<?xml version="1.0" encoding="UTF-8" standalone="no" ?>
<gpx xmlns="http://www.topografix.com/GPX/1/1" xmlns:xsi="http://www.w3.org/2001/XMLSchema-instance" xsi:schemaLocation="http://www.topografix.com/GPX/1/1 http://www.topografix.com/GPX/1/1/gpx.xsd" version="1.1" creator="VisuGPX - https://www.visugpx.com">
  <metadata>
    <name>Randonnée ST Aubin Epinay</name>
    <desc><![CDATA[Circuit au départ de l'église de St Aubin Epinay vers ST Jacques de Darnétal avec retour par le bois Tison]]></desc>
  </metadata>
  <trk>
    <name><![CDATA[Randonnée ST Aubin Epinay_1]]></name>
    <trkseg>
      <trkpt lat="49.4219" lon="1.17755">
        <ele>44</ele>
        <time>2017-02-14T13:45:20Z</time>
      </trkpt>
      <trkpt lat="49.42185" lon="1.17757">
        <ele>44</ele>
        <time>2017-02-14T13:45:20Z</time>
      </trkpt>
      <trkpt lat="49.42181" lon="1.17755">
        <ele>44</ele>
        <time>2017-02-14T13:45:20Z</time>
      </trkpt>
      <trkpt lat="49.42178" lon="1.17757">
        <ele>44</ele>
        <time>2017-02-14T13:45:20Z</time>
      </trkpt>
      <trkpt lat="49.42177" lon="1.17757">
        <ele>44</ele>
        <time>2017-02-14T13:45:20Z</time>
      </trkpt>
      <trkpt lat="49.42186" lon="1.17755">
        <ele>44</ele>
        <time>2017-02-14T13:46:04Z</time>
      </trkpt>
      <trkpt lat="49.42186" lon="1.17755">
        <ele>44</ele>
        <time>2017-02-14T13:46:04Z</time>
      </trkpt>
      <trkpt lat="49.42186" lon="1.17757">
        <ele>44</ele>
        <time>2017-02-14T13:46:04Z</time>
      </trkpt>
      <trkpt lat="49.42186" lon="1.17758">
        <ele>44</ele>
        <time>2017-02-14T13:46:04Z</time>
      </trkpt>
      <trkpt lat="49.42188" lon="1.17757">
        <ele>44</ele>
        <time>2017-02-14T13:46:04Z</time>
      </trkpt>
      <trkpt lat="49.42189" lon="1.17757">
        <ele>44</ele>
        <time>2017-02-14T13:47:56Z</time>
      </trkpt>
      <trkpt lat="49.42189" lon="1.17758">
        <ele>44</ele>
        <time>2017-02-14T13:47:56Z</time>
      </trkpt>
      <trkpt lat="49.42187" lon="1.17757">
        <ele>44</ele>
        <time>2017-02-14T13:47:56Z</time>
      </trkpt>
      <trkpt lat="49.42187" lon="1.17765">
        <ele>44</ele>
        <time>2017-02-14T13:47:56Z</time>
      </trkpt>
      <trkpt lat="49.42185" lon="1.17774">
        <ele>44</ele>
        <time>2017-02-14T13:47:56Z</time>
      </trkpt>
      <trkpt lat="49.42179" lon="1.17786">
        <ele>44</ele>
        <time>2017-02-14T13:48:48Z</time>
      </trkpt>
      <trkpt lat="49.42179" lon="1.17786">
        <ele>44</ele>
        <time>2017-02-14T13:48:48Z</time>
      </trkpt>
      <trkpt lat="49.42169" lon="1.1781">
        <ele>43</ele>
        <time>2017-02-14T13:48:48Z</time>
      </trkpt>
      <trkpt lat="49.42165" lon="1.17822">
        <ele>43</ele>
        <time>2017-02-14T13:48:48Z</time>
      </trkpt>
      <trkpt lat="49.4216" lon="1.17827">
        <ele>43</ele>
        <time>2017-02-14T13:48:48Z</time>
      </trkpt>
      <trkpt lat="49.42158" lon="1.17835">
        <ele>43</ele>
        <time>2017-02-14T13:49:04Z</time>
      </trkpt>
      <trkpt lat="49.42157" lon="1.17843">
        <ele>43</ele>
        <time>2017-02-14T13:49:04Z</time>
      </trkpt>
      <trkpt lat="49.42156" lon="1.17849">
        <ele>43</ele>
        <time>2017-02-14T13:49:04Z</time>
      </trkpt>
      <trkpt lat="49.42154" lon="1.17855">
        <ele>43</ele>
        <time>2017-02-14T13:49:04Z</time>
      </trkpt>
      <trkpt lat="49.42152" lon="1.17862">
        <ele>43</ele>
        <time>2017-02-14T13:49:20Z</time>
      </trkpt>
      <trkpt lat="49.42149" lon="1.17867">
        <ele>43</ele>
        <time>2017-02-14T13:49:20Z</time>
      </trkpt>
      <trkpt lat="49.42144" lon="1.1787">
        <ele>43</ele>
        <time>2017-02-14T13:49:20Z</time>
      </trkpt>
      <trkpt lat="49.42141" lon="1.17873">
        <ele>43</ele>
        <time>2017-02-14T13:49:20Z</time>
      </trkpt>
      <trkpt lat="49.42138" lon="1.17881">
        <ele>44</ele>
        <time>2017-02-14T13:49:36Z</time>
      </trkpt>
      <trkpt lat="49.42136" lon="1.17887">
        <ele>44</ele>
        <time>2017-02-14T13:49:36Z</time>
      </trkpt>
      <trkpt lat="49.42135" lon="1.17893">
        <ele>44</ele>
        <time>2017-02-14T13:49:36Z</time>
      </trkpt>
      <trkpt lat="49.42133" lon="1.17899">
        <ele>44</ele>
        <time>2017-02-14T13:49:36Z</time>
      </trkpt>
      <trkpt lat="49.42132" lon="1.17905">
        <ele>44</ele>
        <time>2017-02-14T13:49:52Z</time>
      </trkpt>
      <trkpt lat="49.42131" lon="1.17911">
        <ele>44</ele>
        <time>2017-02-14T13:49:52Z</time>
      </trkpt>
      <trkpt lat="49.4213" lon="1.17917">
        <ele>44</ele>
        <time>2017-02-14T13:49:52Z</time>
      </trkpt>
      <trkpt lat="49.42129" lon="1.17924">
        <ele>44</ele>
        <time>2017-02-14T13:49:52Z</time>
      </trkpt>
      <trkpt lat="49.42127" lon="1.1793">
        <ele>44</ele>
        <time>2017-02-14T13:50:08Z</time>
      </trkpt>
      <trkpt lat="49.42126" lon="1.17936">
        <ele>44</ele>
        <time>2017-02-14T13:50:08Z</time>
      </trkpt>
      <trkpt lat="49.42123" lon="1.17941">
        <ele>44</ele>
        <time>2017-02-14T13:50:08Z</time>
      </trkpt>
      <trkpt lat="49.42121" lon="1.17946">
        <ele>44</ele>
        <time>2017-02-14T13:50:08Z</time>
      </trkpt>
      <trkpt lat="49.42119" lon="1.17952">
        <ele>44</ele>
        <time>2017-02-14T13:50:24Z</time>
      </trkpt>
      <trkpt lat="49.42117" lon="1.17959">
        <ele>44</ele>
        <time>2017-02-14T13:50:24Z</time>
      </trkpt>
      <trkpt lat="49.42114" lon="1.17966">
        <ele>44</ele>
        <time>2017-02-14T13:50:24Z</time>
      </trkpt>
      <trkpt lat="49.42112" lon="1.17972">
        <ele>44</ele>
        <time>2017-02-14T13:50:24Z</time>
      </trkpt>
      <trkpt lat="49.4211" lon="1.17979">
        <ele>44</ele>
        <time>2017-02-14T13:50:40Z</time>
      </trkpt>
      <trkpt lat="49.42108" lon="1.17985">
        <ele>44</ele>
        <time>2017-02-14T13:50:40Z</time>
      </trkpt>
      <trkpt lat="49.42106" lon="1.17991">
        <ele>44</ele>
        <time>2017-02-14T13:50:40Z</time>
      </trkpt>
      <trkpt lat="49.42105" lon="1.17996">
        <ele>44</ele>
        <time>2017-02-14T13:50:40Z</time>
      </trkpt>
      <trkpt lat="49.42103" lon="1.18002">
        <ele>44</ele>
        <time>2017-02-14T13:50:56Z</time>
      </trkpt>
      <trkpt lat="49.42101" lon="1.18008">
        <ele>44</ele>
        <time>2017-02-14T13:50:56Z</time>
      </trkpt>
      <trkpt lat="49.421" lon="1.18013">
        <ele>44</ele>
        <time>2017-02-14T13:50:56Z</time>
      </trkpt>
      <trkpt lat="49.42098" lon="1.18019">
        <ele>44</ele>
        <time>2017-02-14T13:50:56Z</time>
      </trkpt>
      <trkpt lat="49.42097" lon="1.18026">
        <ele>44</ele>
        <time>2017-02-14T13:51:12Z</time>
      </trkpt>
      <trkpt lat="49.42096" lon="1.18032">
        <ele>44</ele>
        <time>2017-02-14T13:51:12Z</time>
      </trkpt>
      <trkpt lat="49.42094" lon="1.18039">
        <ele>44</ele>
        <time>2017-02-14T13:51:12Z</time>
      </trkpt>
      <trkpt lat="49.42092" lon="1.18046">
        <ele>47</ele>
        <time>2017-02-14T13:51:12Z</time>
      </trkpt>
      <trkpt lat="49.42091" lon="1.18052">
        <ele>47</ele>
        <time>2017-02-14T13:51:28Z</time>
      </trkpt>
      <trkpt lat="49.42091" lon="1.18057">
        <ele>47</ele>
        <time>2017-02-14T13:51:28Z</time>
      </trkpt>
      <trkpt lat="49.4209" lon="1.18064">
        <ele>47</ele>
        <time>2017-02-14T13:51:28Z</time>
      </trkpt>
      <trkpt lat="49.4209" lon="1.1807">
        <ele>47</ele>
        <time>2017-02-14T13:51:28Z</time>
      </trkpt>
      <trkpt lat="49.4209" lon="1.18077">
        <ele>47</ele>
        <time>2017-02-14T13:51:44Z</time>
      </trkpt>
      <trkpt lat="49.42089" lon="1.18082">
        <ele>47</ele>
        <time>2017-02-14T13:51:44Z</time>
      </trkpt>
      <trkpt lat="49.42088" lon="1.18088">
        <ele>47</ele>
        <time>2017-02-14T13:51:44Z</time>
      </trkpt>
      <trkpt lat="49.42088" lon="1.18094">
        <ele>47</ele>
        <time>2017-02-14T13:51:44Z</time>
      </trkpt>
      <trkpt lat="49.42088" lon="1.181">
        <ele>47</ele>
        <time>2017-02-14T13:52:00Z</time>
      </trkpt>
      <trkpt lat="49.42088" lon="1.18107">
        <ele>47</ele>
        <time>2017-02-14T13:52:00Z</time>
      </trkpt>
      <trkpt lat="49.42085" lon="1.18121">
        <ele>47</ele>
        <time>2017-02-14T13:52:00Z</time>
      </trkpt>
      <trkpt lat="49.42083" lon="1.1813">
        <ele>47</ele>
        <time>2017-02-14T13:52:00Z</time>
      </trkpt>
      <trkpt lat="49.42082" lon="1.18138">
        <ele>47</ele>
        <time>2017-02-14T13:52:16Z</time>
      </trkpt>
      <trkpt lat="49.42082" lon="1.18146">
        <ele>47</ele>
        <time>2017-02-14T13:52:16Z</time>
      </trkpt>
      <trkpt lat="49.42082" lon="1.18153">
        <ele>47</ele>
        <time>2017-02-14T13:52:16Z</time>
      </trkpt>
      <trkpt lat="49.42082" lon="1.18159">
        <ele>47</ele>
        <time>2017-02-14T13:52:16Z</time>
      </trkpt>
      <trkpt lat="49.42081" lon="1.18165">
        <ele>47</ele>
        <time>2017-02-14T13:52:32Z</time>
      </trkpt>
      <trkpt lat="49.42081" lon="1.18171">
        <ele>47</ele>
        <time>2017-02-14T13:52:32Z</time>
      </trkpt>
      <trkpt lat="49.42079" lon="1.18178">
        <ele>47</ele>
        <time>2017-02-14T13:52:32Z</time>
      </trkpt>
      <trkpt lat="49.42078" lon="1.18185">
        <ele>47</ele>
        <time>2017-02-14T13:52:32Z</time>
      </trkpt>
      <trkpt lat="49.42077" lon="1.18192">
        <ele>47</ele>
        <time>2017-02-14T13:52:48Z</time>
      </trkpt>
      <trkpt lat="49.42078" lon="1.18199">
        <ele>47</ele>
        <time>2017-02-14T13:52:48Z</time>
      </trkpt>
      <trkpt lat="49.42077" lon="1.18207">
        <ele>47</ele>
        <time>2017-02-14T13:52:48Z</time>
      </trkpt>
      <trkpt lat="49.42076" lon="1.18215">
        <ele>50</ele>
        <time>2017-02-14T13:52:48Z</time>
      </trkpt>
      <trkpt lat="49.42074" lon="1.18222">
        <ele>50</ele>
        <time>2017-02-14T13:53:04Z</time>
      </trkpt>
      <trkpt lat="49.42072" lon="1.18228">
        <ele>50</ele>
        <time>2017-02-14T13:53:04Z</time>
      </trkpt>
      <trkpt lat="49.4207" lon="1.18234">
        <ele>50</ele>
        <time>2017-02-14T13:53:04Z</time>
      </trkpt>
      <trkpt lat="49.42068" lon="1.18241">
        <ele>50</ele>
        <time>2017-02-14T13:53:04Z</time>
      </trkpt>
      <trkpt lat="49.42067" lon="1.18247">
        <ele>50</ele>
        <time>2017-02-14T13:53:20Z</time>
      </trkpt>
      <trkpt lat="49.42065" lon="1.18255">
        <ele>50</ele>
        <time>2017-02-14T13:53:20Z</time>
      </trkpt>
      <trkpt lat="49.42062" lon="1.18262">
        <ele>50</ele>
        <time>2017-02-14T13:53:20Z</time>
      </trkpt>
      <trkpt lat="49.4206" lon="1.18271">
        <ele>50</ele>
        <time>2017-02-14T13:53:20Z</time>
      </trkpt>
      <trkpt lat="49.42058" lon="1.18281">
        <ele>50</ele>
        <time>2017-02-14T13:53:36Z</time>
      </trkpt>
      <trkpt lat="49.42057" lon="1.18289">
        <ele>50</ele>
        <time>2017-02-14T13:53:36Z</time>
      </trkpt>
      <trkpt lat="49.42056" lon="1.18297">
        <ele>56</ele>
        <time>2017-02-14T13:53:36Z</time>
      </trkpt>
      <trkpt lat="49.42054" lon="1.18304">
        <ele>56</ele>
        <time>2017-02-14T13:53:36Z</time>
      </trkpt>
      <trkpt lat="49.42053" lon="1.18311">
        <ele>56</ele>
        <time>2017-02-14T13:53:52Z</time>
      </trkpt>
      <trkpt lat="49.42052" lon="1.18319">
        <ele>56</ele>
        <time>2017-02-14T13:53:52Z</time>
      </trkpt>
      <trkpt lat="49.42051" lon="1.18326">
        <ele>56</ele>
        <time>2017-02-14T13:53:52Z</time>
      </trkpt>
      <trkpt lat="49.42048" lon="1.18334">
        <ele>56</ele>
        <time>2017-02-14T13:53:52Z</time>
      </trkpt>
      <trkpt lat="49.42045" lon="1.18342">
        <ele>56</ele>
        <time>2017-02-14T13:54:09Z</time>
      </trkpt>
      <trkpt lat="49.42043" lon="1.18349">
        <ele>56</ele>
        <time>2017-02-14T13:54:09Z</time>
      </trkpt>
      <trkpt lat="49.42041" lon="1.18355">
        <ele>45</ele>
        <time>2017-02-14T13:54:09Z</time>
      </trkpt>
      <trkpt lat="49.42038" lon="1.18364">
        <ele>45</ele>
        <time>2017-02-14T13:54:09Z</time>
      </trkpt>
      <trkpt lat="49.42037" lon="1.1837">
        <ele>45</ele>
        <time>2017-02-14T13:54:24Z</time>
      </trkpt>
      <trkpt lat="49.42035" lon="1.18377">
        <ele>48</ele>
        <time>2017-02-14T13:54:24Z</time>
      </trkpt>
      <trkpt lat="49.42005" lon="1.18402">
        <ele>48</ele>
        <time>2017-02-14T13:54:24Z</time>
      </trkpt>
      <trkpt lat="49.41991" lon="1.18397">
        <ele>48</ele>
        <time>2017-02-14T13:54:24Z</time>
      </trkpt>
      <trkpt lat="49.41986" lon="1.18398">
        <ele>48</ele>
        <time>2017-02-14T13:54:40Z</time>
      </trkpt>
      <trkpt lat="49.4198" lon="1.184">
        <ele>48</ele>
        <time>2017-02-14T13:54:40Z</time>
      </trkpt>
      <trkpt lat="49.41975" lon="1.18404">
        <ele>48</ele>
        <time>2017-02-14T13:54:40Z</time>
      </trkpt>
      <trkpt lat="49.4197" lon="1.18407">
        <ele>48</ele>
        <time>2017-02-14T13:54:40Z</time>
      </trkpt>
      <trkpt lat="49.41966" lon="1.18416">
        <ele>48</ele>
        <time>2017-02-14T13:55:08Z</time>
      </trkpt>
      <trkpt lat="49.41966" lon="1.18418">
        <ele>48</ele>
        <time>2017-02-14T13:55:08Z</time>
      </trkpt>
      <trkpt lat="49.41966" lon="1.18426">
        <ele>48</ele>
        <time>2017-02-14T13:55:08Z</time>
      </trkpt>
      <trkpt lat="49.41965" lon="1.18432">
        <ele>48</ele>
        <time>2017-02-14T13:55:08Z</time>
      </trkpt>
      <trkpt lat="49.41963" lon="1.18439">
        <ele>48</ele>
        <time>2017-02-14T13:55:08Z</time>
      </trkpt>
      <trkpt lat="49.41962" lon="1.18446">
        <ele>48</ele>
        <time>2017-02-14T13:55:24Z</time>
      </trkpt>
      <trkpt lat="49.4196" lon="1.18453">
        <ele>48</ele>
        <time>2017-02-14T13:55:24Z</time>
      </trkpt>
      <trkpt lat="49.41956" lon="1.18458">
        <ele>45</ele>
        <time>2017-02-14T13:55:24Z</time>
      </trkpt>
      <trkpt lat="49.41949" lon="1.18462">
        <ele>46</ele>
        <time>2017-02-14T13:55:24Z</time>
      </trkpt>
      <trkpt lat="49.41945" lon="1.18469">
        <ele>46</ele>
        <time>2017-02-14T13:55:40Z</time>
      </trkpt>
      <trkpt lat="49.4194" lon="1.18475">
        <ele>46</ele>
        <time>2017-02-14T13:55:40Z</time>
      </trkpt>
      <trkpt lat="49.41936" lon="1.18481">
        <ele>46</ele>
        <time>2017-02-14T13:55:40Z</time>
      </trkpt>
      <trkpt lat="49.41932" lon="1.18486">
        <ele>46</ele>
        <time>2017-02-14T13:55:40Z</time>
      </trkpt>
      <trkpt lat="49.4193" lon="1.18491">
        <ele>46</ele>
        <time>2017-02-14T13:55:56Z</time>
      </trkpt>
      <trkpt lat="49.41928" lon="1.18498">
        <ele>46</ele>
        <time>2017-02-14T13:55:56Z</time>
      </trkpt>
      <trkpt lat="49.41925" lon="1.18504">
        <ele>46</ele>
        <time>2017-02-14T13:55:56Z</time>
      </trkpt>
      <trkpt lat="49.41923" lon="1.18511">
        <ele>46</ele>
        <time>2017-02-14T13:55:56Z</time>
      </trkpt>
      <trkpt lat="49.41921" lon="1.18517">
        <ele>46</ele>
        <time>2017-02-14T13:56:12Z</time>
      </trkpt>
      <trkpt lat="49.41919" lon="1.18524">
        <ele>46</ele>
        <time>2017-02-14T13:56:12Z</time>
      </trkpt>
      <trkpt lat="49.41914" lon="1.18529">
        <ele>46</ele>
        <time>2017-02-14T13:56:12Z</time>
      </trkpt>
      <trkpt lat="49.41911" lon="1.18533">
        <ele>46</ele>
        <time>2017-02-14T13:56:12Z</time>
      </trkpt>
      <trkpt lat="49.41907" lon="1.18539">
        <ele>46</ele>
        <time>2017-02-14T13:56:29Z</time>
      </trkpt>
      <trkpt lat="49.41908" lon="1.18544">
        <ele>48</ele>
        <time>2017-02-14T13:56:29Z</time>
      </trkpt>
      <trkpt lat="49.41912" lon="1.18546">
        <ele>48</ele>
        <time>2017-02-14T13:56:29Z</time>
      </trkpt>
      <trkpt lat="49.41917" lon="1.18549">
        <ele>48</ele>
        <time>2017-02-14T13:56:29Z</time>
      </trkpt>
      <trkpt lat="49.41921" lon="1.18554">
        <ele>48</ele>
        <time>2017-02-14T13:56:45Z</time>
      </trkpt>
      <trkpt lat="49.41919" lon="1.18562">
        <ele>48</ele>
        <time>2017-02-14T13:56:45Z</time>
      </trkpt>
      <trkpt lat="49.41919" lon="1.18569">
        <ele>48</ele>
        <time>2017-02-14T13:56:45Z</time>
      </trkpt>
      <trkpt lat="49.41918" lon="1.18576">
        <ele>48</ele>
        <time>2017-02-14T13:56:45Z</time>
      </trkpt>
      <trkpt lat="49.41917" lon="1.18583">
        <ele>48</ele>
        <time>2017-02-14T13:57:00Z</time>
      </trkpt>
      <trkpt lat="49.41916" lon="1.18588">
        <ele>48</ele>
        <time>2017-02-14T13:57:00Z</time>
      </trkpt>
      <trkpt lat="49.4192" lon="1.18595">
        <ele>48</ele>
        <time>2017-02-14T13:57:00Z</time>
      </trkpt>
      <trkpt lat="49.41922" lon="1.186">
        <ele>48</ele>
        <time>2017-02-14T13:57:00Z</time>
      </trkpt>
      <trkpt lat="49.4192" lon="1.18607">
        <ele>48</ele>
        <time>2017-02-14T13:57:16Z</time>
      </trkpt>
      <trkpt lat="49.41917" lon="1.18613">
        <ele>48</ele>
        <time>2017-02-14T13:57:16Z</time>
      </trkpt>
      <trkpt lat="49.41916" lon="1.1862">
        <ele>48</ele>
        <time>2017-02-14T13:57:16Z</time>
      </trkpt>
      <trkpt lat="49.41914" lon="1.18627">
        <ele>55</ele>
        <time>2017-02-14T13:57:16Z</time>
      </trkpt>
      <trkpt lat="49.41913" lon="1.18634">
        <ele>55</ele>
        <time>2017-02-14T13:57:32Z</time>
      </trkpt>
      <trkpt lat="49.4191" lon="1.1864">
        <ele>55</ele>
        <time>2017-02-14T13:57:32Z</time>
      </trkpt>
      <trkpt lat="49.41908" lon="1.18647">
        <ele>55</ele>
        <time>2017-02-14T13:57:32Z</time>
      </trkpt>
      <trkpt lat="49.41907" lon="1.18654">
        <ele>55</ele>
        <time>2017-02-14T13:57:32Z</time>
      </trkpt>
      <trkpt lat="49.41909" lon="1.1866">
        <ele>55</ele>
        <time>2017-02-14T13:57:48Z</time>
      </trkpt>
      <trkpt lat="49.41911" lon="1.18667">
        <ele>55</ele>
        <time>2017-02-14T13:57:48Z</time>
      </trkpt>
      <trkpt lat="49.41913" lon="1.18673">
        <ele>55</ele>
        <time>2017-02-14T13:57:48Z</time>
      </trkpt>
      <trkpt lat="49.41914" lon="1.1868">
        <ele>55</ele>
        <time>2017-02-14T13:57:48Z</time>
      </trkpt>
      <trkpt lat="49.41915" lon="1.18687">
        <ele>55</ele>
        <time>2017-02-14T13:58:04Z</time>
      </trkpt>
      <trkpt lat="49.41909" lon="1.18695">
        <ele>55</ele>
        <time>2017-02-14T13:58:04Z</time>
      </trkpt>
      <trkpt lat="49.41899" lon="1.18705">
        <ele>55</ele>
        <time>2017-02-14T13:58:04Z</time>
      </trkpt>
      <trkpt lat="49.41896" lon="1.18712">
        <ele>62</ele>
        <time>2017-02-14T13:58:04Z</time>
      </trkpt>
      <trkpt lat="49.41895" lon="1.1872">
        <ele>62</ele>
        <time>2017-02-14T13:58:20Z</time>
      </trkpt>
      <trkpt lat="49.41895" lon="1.18727">
        <ele>62</ele>
        <time>2017-02-14T13:58:20Z</time>
      </trkpt>
      <trkpt lat="49.41894" lon="1.18734">
        <ele>62</ele>
        <time>2017-02-14T13:58:20Z</time>
      </trkpt>
      <trkpt lat="49.41893" lon="1.18741">
        <ele>62</ele>
        <time>2017-02-14T13:58:20Z</time>
      </trkpt>
      <trkpt lat="49.41893" lon="1.18748">
        <ele>62</ele>
        <time>2017-02-14T13:58:36Z</time>
      </trkpt>
      <trkpt lat="49.41892" lon="1.18755">
        <ele>62</ele>
        <time>2017-02-14T13:58:36Z</time>
      </trkpt>
      <trkpt lat="49.4189" lon="1.18766">
        <ele>62</ele>
        <time>2017-02-14T13:58:36Z</time>
      </trkpt>
      <trkpt lat="49.41887" lon="1.18775">
        <ele>62</ele>
        <time>2017-02-14T13:58:36Z</time>
      </trkpt>
      <trkpt lat="49.41884" lon="1.18782">
        <ele>62</ele>
        <time>2017-02-14T13:58:52Z</time>
      </trkpt>
      <trkpt lat="49.41882" lon="1.18791">
        <ele>62</ele>
        <time>2017-02-14T13:58:52Z</time>
      </trkpt>
      <trkpt lat="49.41881" lon="1.18798">
        <ele>69</ele>
        <time>2017-02-14T13:58:52Z</time>
      </trkpt>
      <trkpt lat="49.4188" lon="1.18805">
        <ele>69</ele>
        <time>2017-02-14T13:58:52Z</time>
      </trkpt>
      <trkpt lat="49.41879" lon="1.18812">
        <ele>69</ele>
        <time>2017-02-14T13:59:08Z</time>
      </trkpt>
      <trkpt lat="49.41878" lon="1.1882">
        <ele>69</ele>
        <time>2017-02-14T13:59:08Z</time>
      </trkpt>
      <trkpt lat="49.41878" lon="1.18827">
        <ele>69</ele>
        <time>2017-02-14T13:59:08Z</time>
      </trkpt>
      <trkpt lat="49.41877" lon="1.18834">
        <ele>69</ele>
        <time>2017-02-14T13:59:08Z</time>
      </trkpt>
      <trkpt lat="49.41877" lon="1.18841">
        <ele>69</ele>
        <time>2017-02-14T13:59:24Z</time>
      </trkpt>
      <trkpt lat="49.41877" lon="1.18849">
        <ele>69</ele>
        <time>2017-02-14T13:59:24Z</time>
      </trkpt>
      <trkpt lat="49.41876" lon="1.18852">
        <ele>69</ele>
        <time>2017-02-14T13:59:24Z</time>
      </trkpt>
      <trkpt lat="49.41876" lon="1.18858">
        <ele>69</ele>
        <time>2017-02-14T13:59:24Z</time>
      </trkpt>
      <trkpt lat="49.41877" lon="1.18865">
        <ele>69</ele>
        <time>2017-02-14T13:59:40Z</time>
      </trkpt>
      <trkpt lat="49.41878" lon="1.18872">
        <ele>69</ele>
        <time>2017-02-14T13:59:40Z</time>
      </trkpt>
      <trkpt lat="49.41877" lon="1.18879">
        <ele>69</ele>
        <time>2017-02-14T13:59:40Z</time>
      </trkpt>
      <trkpt lat="49.41876" lon="1.18885">
        <ele>69</ele>
        <time>2017-02-14T13:59:40Z</time>
      </trkpt>
      <trkpt lat="49.41876" lon="1.18891">
        <ele>69</ele>
        <time>2017-02-14T13:59:56Z</time>
      </trkpt>
      <trkpt lat="49.41877" lon="1.18898">
        <ele>69</ele>
        <time>2017-02-14T13:59:56Z</time>
      </trkpt>
      <trkpt lat="49.41878" lon="1.18906">
        <ele>69</ele>
        <time>2017-02-14T13:59:56Z</time>
      </trkpt>
      <trkpt lat="49.4188" lon="1.18913">
        <ele>69</ele>
        <time>2017-02-14T13:59:56Z</time>
      </trkpt>
      <trkpt lat="49.41882" lon="1.18919">
        <ele>69</ele>
        <time>2017-02-14T14:00:12Z</time>
      </trkpt>
      <trkpt lat="49.41884" lon="1.18925">
        <ele>69</ele>
        <time>2017-02-14T14:00:12Z</time>
      </trkpt>
      <trkpt lat="49.41886" lon="1.18934">
        <ele>69</ele>
        <time>2017-02-14T14:00:12Z</time>
      </trkpt>
      <trkpt lat="49.4189" lon="1.1894">
        <ele>69</ele>
        <time>2017-02-14T14:00:12Z</time>
      </trkpt>
      <trkpt lat="49.41895" lon="1.18942">
        <ele>69</ele>
        <time>2017-02-14T14:00:28Z</time>
      </trkpt>
      <trkpt lat="49.419" lon="1.18945">
        <ele>69</ele>
        <time>2017-02-14T14:00:28Z</time>
      </trkpt>
      <trkpt lat="49.41904" lon="1.18946">
        <ele>69</ele>
        <time>2017-02-14T14:00:28Z</time>
      </trkpt>
      <trkpt lat="49.4191" lon="1.18945">
        <ele>69</ele>
        <time>2017-02-14T14:00:28Z</time>
      </trkpt>
      <trkpt lat="49.41914" lon="1.18946">
        <ele>69</ele>
        <time>2017-02-14T14:00:44Z</time>
      </trkpt>
      <trkpt lat="49.41918" lon="1.18948">
        <ele>69</ele>
        <time>2017-02-14T14:00:44Z</time>
      </trkpt>
      <trkpt lat="49.41921" lon="1.18949">
        <ele>69</ele>
        <time>2017-02-14T14:00:44Z</time>
      </trkpt>
      <trkpt lat="49.41925" lon="1.18952">
        <ele>69</ele>
        <time>2017-02-14T14:00:44Z</time>
      </trkpt>
      <trkpt lat="49.41928" lon="1.18955">
        <ele>69</ele>
        <time>2017-02-14T14:01:00Z</time>
      </trkpt>
      <trkpt lat="49.41931" lon="1.18958">
        <ele>69</ele>
        <time>2017-02-14T14:01:00Z</time>
      </trkpt>
      <trkpt lat="49.41935" lon="1.18962">
        <ele>66</ele>
        <time>2017-02-14T14:01:00Z</time>
      </trkpt>
      <trkpt lat="49.41938" lon="1.18968">
        <ele>66</ele>
        <time>2017-02-14T14:01:00Z</time>
      </trkpt>
      <trkpt lat="49.41941" lon="1.18973">
        <ele>66</ele>
        <time>2017-02-14T14:01:16Z</time>
      </trkpt>
      <trkpt lat="49.41944" lon="1.18977">
        <ele>66</ele>
        <time>2017-02-14T14:01:16Z</time>
      </trkpt>
      <trkpt lat="49.41948" lon="1.18979">
        <ele>66</ele>
        <time>2017-02-14T14:01:16Z</time>
      </trkpt>
      <trkpt lat="49.4195" lon="1.18983">
        <ele>66</ele>
        <time>2017-02-14T14:01:16Z</time>
      </trkpt>
      <trkpt lat="49.41953" lon="1.18989">
        <ele>66</ele>
        <time>2017-02-14T14:01:32Z</time>
      </trkpt>
      <trkpt lat="49.41957" lon="1.18993">
        <ele>66</ele>
        <time>2017-02-14T14:01:32Z</time>
      </trkpt>
      <trkpt lat="49.4196" lon="1.18998">
        <ele>89</ele>
        <time>2017-02-14T14:01:32Z</time>
      </trkpt>
      <trkpt lat="49.41961" lon="1.19002">
        <ele>89</ele>
        <time>2017-02-14T14:01:32Z</time>
      </trkpt>
      <trkpt lat="49.41964" lon="1.19008">
        <ele>89</ele>
        <time>2017-02-14T14:01:48Z</time>
      </trkpt>
      <trkpt lat="49.4197" lon="1.19013">
        <ele>89</ele>
        <time>2017-02-14T14:01:48Z</time>
      </trkpt>
      <trkpt lat="49.41974" lon="1.19014">
        <ele>89</ele>
        <time>2017-02-14T14:01:48Z</time>
      </trkpt>
      <trkpt lat="49.41978" lon="1.19018">
        <ele>89</ele>
        <time>2017-02-14T14:01:48Z</time>
      </trkpt>
      <trkpt lat="49.41981" lon="1.19023">
        <ele>89</ele>
        <time>2017-02-14T14:02:04Z</time>
      </trkpt>
      <trkpt lat="49.41984" lon="1.19029">
        <ele>89</ele>
        <time>2017-02-14T14:02:04Z</time>
      </trkpt>
      <trkpt lat="49.41987" lon="1.19034">
        <ele>89</ele>
        <time>2017-02-14T14:02:04Z</time>
      </trkpt>
      <trkpt lat="49.41988" lon="1.1904">
        <ele>89</ele>
        <time>2017-02-14T14:02:04Z</time>
      </trkpt>
      <trkpt lat="49.41992" lon="1.19049">
        <ele>89</ele>
        <time>2017-02-14T14:02:20Z</time>
      </trkpt>
      <trkpt lat="49.41994" lon="1.19054">
        <ele>89</ele>
        <time>2017-02-14T14:02:20Z</time>
      </trkpt>
      <trkpt lat="49.41996" lon="1.1906">
        <ele>89</ele>
        <time>2017-02-14T14:02:20Z</time>
      </trkpt>
      <trkpt lat="49.41999" lon="1.19065">
        <ele>89</ele>
        <time>2017-02-14T14:02:20Z</time>
      </trkpt>
      <trkpt lat="49.42003" lon="1.19069">
        <ele>89</ele>
        <time>2017-02-14T14:02:36Z</time>
      </trkpt>
      <trkpt lat="49.42005" lon="1.19075">
        <ele>89</ele>
        <time>2017-02-14T14:02:36Z</time>
      </trkpt>
      <trkpt lat="49.42007" lon="1.19081">
        <ele>89</ele>
        <time>2017-02-14T14:02:36Z</time>
      </trkpt>
      <trkpt lat="49.42009" lon="1.19087">
        <ele>89</ele>
        <time>2017-02-14T14:02:36Z</time>
      </trkpt>
      <trkpt lat="49.42011" lon="1.19092">
        <ele>89</ele>
        <time>2017-02-14T14:02:52Z</time>
      </trkpt>
      <trkpt lat="49.42012" lon="1.191">
        <ele>89</ele>
        <time>2017-02-14T14:02:52Z</time>
      </trkpt>
      <trkpt lat="49.42013" lon="1.19106">
        <ele>89</ele>
        <time>2017-02-14T14:02:52Z</time>
      </trkpt>
      <trkpt lat="49.42014" lon="1.19113">
        <ele>89</ele>
        <time>2017-02-14T14:02:52Z</time>
      </trkpt>
      <trkpt lat="49.42016" lon="1.19119">
        <ele>89</ele>
        <time>2017-02-14T14:03:08Z</time>
      </trkpt>
      <trkpt lat="49.42019" lon="1.19125">
        <ele>89</ele>
        <time>2017-02-14T14:03:08Z</time>
      </trkpt>
      <trkpt lat="49.42021" lon="1.19131">
        <ele>97</ele>
        <time>2017-02-14T14:03:08Z</time>
      </trkpt>
      <trkpt lat="49.42021" lon="1.19138">
        <ele>97</ele>
        <time>2017-02-14T14:03:08Z</time>
      </trkpt>
      <trkpt lat="49.42024" lon="1.19143">
        <ele>97</ele>
        <time>2017-02-14T14:03:24Z</time>
      </trkpt>
      <trkpt lat="49.42027" lon="1.19148">
        <ele>97</ele>
        <time>2017-02-14T14:03:24Z</time>
      </trkpt>
      <trkpt lat="49.42031" lon="1.19152">
        <ele>97</ele>
        <time>2017-02-14T14:03:24Z</time>
      </trkpt>
      <trkpt lat="49.42034" lon="1.19157">
        <ele>97</ele>
        <time>2017-02-14T14:03:24Z</time>
      </trkpt>
      <trkpt lat="49.42038" lon="1.19161">
        <ele>97</ele>
        <time>2017-02-14T14:03:40Z</time>
      </trkpt>
      <trkpt lat="49.42042" lon="1.19165">
        <ele>97</ele>
        <time>2017-02-14T14:03:40Z</time>
      </trkpt>
      <trkpt lat="49.42046" lon="1.19169">
        <ele>110</ele>
        <time>2017-02-14T14:03:40Z</time>
      </trkpt>
      <trkpt lat="49.42049" lon="1.19172">
        <ele>110</ele>
        <time>2017-02-14T14:03:40Z</time>
      </trkpt>
      <trkpt lat="49.42053" lon="1.19176">
        <ele>110</ele>
        <time>2017-02-14T14:03:56Z</time>
      </trkpt>
      <trkpt lat="49.42057" lon="1.1918">
        <ele>110</ele>
        <time>2017-02-14T14:03:56Z</time>
      </trkpt>
      <trkpt lat="49.42061" lon="1.19184">
        <ele>110</ele>
        <time>2017-02-14T14:03:56Z</time>
      </trkpt>
      <trkpt lat="49.42065" lon="1.19187">
        <ele>110</ele>
        <time>2017-02-14T14:03:56Z</time>
      </trkpt>
      <trkpt lat="49.42068" lon="1.19191">
        <ele>110</ele>
        <time>2017-02-14T14:04:12Z</time>
      </trkpt>
      <trkpt lat="49.42072" lon="1.19194">
        <ele>110</ele>
        <time>2017-02-14T14:04:12Z</time>
      </trkpt>
      <trkpt lat="49.42075" lon="1.19199">
        <ele>110</ele>
        <time>2017-02-14T14:04:12Z</time>
      </trkpt>
      <trkpt lat="49.42079" lon="1.19203">
        <ele>110</ele>
        <time>2017-02-14T14:04:12Z</time>
      </trkpt>
      <trkpt lat="49.42082" lon="1.19207">
        <ele>110</ele>
        <time>2017-02-14T14:04:28Z</time>
      </trkpt>
      <trkpt lat="49.42086" lon="1.19211">
        <ele>111</ele>
        <time>2017-02-14T14:04:28Z</time>
      </trkpt>
      <trkpt lat="49.42089" lon="1.19215">
        <ele>111</ele>
        <time>2017-02-14T14:04:28Z</time>
      </trkpt>
      <trkpt lat="49.42093" lon="1.19218">
        <ele>111</ele>
        <time>2017-02-14T14:04:28Z</time>
      </trkpt>
      <trkpt lat="49.42094" lon="1.19223">
        <ele>111</ele>
        <time>2017-02-14T14:04:48Z</time>
      </trkpt>
      <trkpt lat="49.42094" lon="1.19222">
        <ele>111</ele>
        <time>2017-02-14T14:04:48Z</time>
      </trkpt>
      <trkpt lat="49.42098" lon="1.19222">
        <ele>111</ele>
        <time>2017-02-14T14:04:48Z</time>
      </trkpt>
      <trkpt lat="49.42103" lon="1.19224">
        <ele>111</ele>
        <time>2017-02-14T14:04:48Z</time>
      </trkpt>
      <trkpt lat="49.42106" lon="1.19227">
        <ele>111</ele>
        <time>2017-02-14T14:04:48Z</time>
      </trkpt>
      <trkpt lat="49.4211" lon="1.19231">
        <ele>111</ele>
        <time>2017-02-14T14:05:04Z</time>
      </trkpt>
      <trkpt lat="49.42114" lon="1.19234">
        <ele>111</ele>
        <time>2017-02-14T14:05:04Z</time>
      </trkpt>
      <trkpt lat="49.42118" lon="1.19237">
        <ele>111</ele>
        <time>2017-02-14T14:05:04Z</time>
      </trkpt>
      <trkpt lat="49.42122" lon="1.19239">
        <ele>111</ele>
        <time>2017-02-14T14:05:04Z</time>
      </trkpt>
      <trkpt lat="49.42126" lon="1.19242">
        <ele>123</ele>
        <time>2017-02-14T14:05:21Z</time>
      </trkpt>
      <trkpt lat="49.4213" lon="1.19245">
        <ele>123</ele>
        <time>2017-02-14T14:05:21Z</time>
      </trkpt>
      <trkpt lat="49.42134" lon="1.19248">
        <ele>123</ele>
        <time>2017-02-14T14:05:21Z</time>
      </trkpt>
      <trkpt lat="49.42138" lon="1.19251">
        <ele>123</ele>
        <time>2017-02-14T14:05:21Z</time>
      </trkpt>
      <trkpt lat="49.42142" lon="1.19254">
        <ele>123</ele>
        <time>2017-02-14T14:05:36Z</time>
      </trkpt>
      <trkpt lat="49.42145" lon="1.19257">
        <ele>123</ele>
        <time>2017-02-14T14:05:36Z</time>
      </trkpt>
      <trkpt lat="49.42149" lon="1.19261">
        <ele>123</ele>
        <time>2017-02-14T14:05:36Z</time>
      </trkpt>
      <trkpt lat="49.42152" lon="1.19265">
        <ele>123</ele>
        <time>2017-02-14T14:05:36Z</time>
      </trkpt>
      <trkpt lat="49.42155" lon="1.19269">
        <ele>123</ele>
        <time>2017-02-14T14:05:52Z</time>
      </trkpt>
      <trkpt lat="49.42158" lon="1.19273">
        <ele>123</ele>
        <time>2017-02-14T14:05:52Z</time>
      </trkpt>
      <trkpt lat="49.42161" lon="1.19279">
        <ele>123</ele>
        <time>2017-02-14T14:05:52Z</time>
      </trkpt>
      <trkpt lat="49.42163" lon="1.19282">
        <ele>123</ele>
        <time>2017-02-14T14:05:52Z</time>
      </trkpt>
      <trkpt lat="49.42165" lon="1.19287">
        <ele>123</ele>
        <time>2017-02-14T14:06:08Z</time>
      </trkpt>
      <trkpt lat="49.42168" lon="1.19291">
        <ele>123</ele>
        <time>2017-02-14T14:06:08Z</time>
      </trkpt>
      <trkpt lat="49.4217" lon="1.19296">
        <ele>126</ele>
        <time>2017-02-14T14:06:08Z</time>
      </trkpt>
      <trkpt lat="49.42169" lon="1.19299">
        <ele>126</ele>
        <time>2017-02-14T14:06:08Z</time>
      </trkpt>
      <trkpt lat="49.42165" lon="1.19301">
        <ele>126</ele>
        <time>2017-02-14T14:06:24Z</time>
      </trkpt>
      <trkpt lat="49.42167" lon="1.19307">
        <ele>126</ele>
        <time>2017-02-14T14:06:24Z</time>
      </trkpt>
      <trkpt lat="49.4217" lon="1.19312">
        <ele>126</ele>
        <time>2017-02-14T14:06:24Z</time>
      </trkpt>
      <trkpt lat="49.42172" lon="1.19317">
        <ele>126</ele>
        <time>2017-02-14T14:06:24Z</time>
      </trkpt>
      <trkpt lat="49.42175" lon="1.19322">
        <ele>126</ele>
        <time>2017-02-14T14:06:40Z</time>
      </trkpt>
      <trkpt lat="49.42177" lon="1.19328">
        <ele>126</ele>
        <time>2017-02-14T14:06:40Z</time>
      </trkpt>
      <trkpt lat="49.42181" lon="1.19332">
        <ele>126</ele>
        <time>2017-02-14T14:06:40Z</time>
      </trkpt>
      <trkpt lat="49.42184" lon="1.19336">
        <ele>126</ele>
        <time>2017-02-14T14:06:40Z</time>
      </trkpt>
      <trkpt lat="49.42188" lon="1.1934">
        <ele>126</ele>
        <time>2017-02-14T14:06:56Z</time>
      </trkpt>
      <trkpt lat="49.4219" lon="1.19344">
        <ele>126</ele>
        <time>2017-02-14T14:06:56Z</time>
      </trkpt>
      <trkpt lat="49.42194" lon="1.19349">
        <ele>126</ele>
        <time>2017-02-14T14:06:56Z</time>
      </trkpt>
      <trkpt lat="49.42198" lon="1.19352">
        <ele>126</ele>
        <time>2017-02-14T14:06:56Z</time>
      </trkpt>
      <trkpt lat="49.42202" lon="1.19356">
        <ele>126</ele>
        <time>2017-02-14T14:07:12Z</time>
      </trkpt>
      <trkpt lat="49.42205" lon="1.19359">
        <ele>126</ele>
        <time>2017-02-14T14:07:12Z</time>
      </trkpt>
      <trkpt lat="49.42209" lon="1.19362">
        <ele>134</ele>
        <time>2017-02-14T14:07:12Z</time>
      </trkpt>
      <trkpt lat="49.42213" lon="1.19365">
        <ele>134</ele>
        <time>2017-02-14T14:07:12Z</time>
      </trkpt>
      <trkpt lat="49.42216" lon="1.19369">
        <ele>134</ele>
        <time>2017-02-14T14:07:32Z</time>
      </trkpt>
      <trkpt lat="49.4222" lon="1.19361">
        <ele>134</ele>
        <time>2017-02-14T14:07:32Z</time>
      </trkpt>
      <trkpt lat="49.42222" lon="1.19364">
        <ele>134</ele>
        <time>2017-02-14T14:07:32Z</time>
      </trkpt>
      <trkpt lat="49.42225" lon="1.19368">
        <ele>134</ele>
        <time>2017-02-14T14:07:32Z</time>
      </trkpt>
      <trkpt lat="49.42229" lon="1.19371">
        <ele>134</ele>
        <time>2017-02-14T14:07:32Z</time>
      </trkpt>
      <trkpt lat="49.42232" lon="1.19374">
        <ele>134</ele>
        <time>2017-02-14T14:07:48Z</time>
      </trkpt>
      <trkpt lat="49.42236" lon="1.19378">
        <ele>135</ele>
        <time>2017-02-14T14:07:48Z</time>
      </trkpt>
      <trkpt lat="49.4224" lon="1.19382">
        <ele>135</ele>
        <time>2017-02-14T14:07:48Z</time>
      </trkpt>
      <trkpt lat="49.42243" lon="1.19385">
        <ele>135</ele>
        <time>2017-02-14T14:07:48Z</time>
      </trkpt>
      <trkpt lat="49.42246" lon="1.19388">
        <ele>135</ele>
        <time>2017-02-14T14:08:04Z</time>
      </trkpt>
      <trkpt lat="49.4225" lon="1.19392">
        <ele>135</ele>
        <time>2017-02-14T14:08:04Z</time>
      </trkpt>
      <trkpt lat="49.42254" lon="1.19394">
        <ele>135</ele>
        <time>2017-02-14T14:08:04Z</time>
      </trkpt>
      <trkpt lat="49.42259" lon="1.19396">
        <ele>135</ele>
        <time>2017-02-14T14:08:04Z</time>
      </trkpt>
      <trkpt lat="49.42265" lon="1.19402">
        <ele>135</ele>
        <time>2017-02-14T14:08:20Z</time>
      </trkpt>
      <trkpt lat="49.42269" lon="1.19406">
        <ele>135</ele>
        <time>2017-02-14T14:08:20Z</time>
      </trkpt>
      <trkpt lat="49.42273" lon="1.19411">
        <ele>135</ele>
        <time>2017-02-14T14:08:20Z</time>
      </trkpt>
      <trkpt lat="49.42275" lon="1.19417">
        <ele>135</ele>
        <time>2017-02-14T14:08:20Z</time>
      </trkpt>
      <trkpt lat="49.42278" lon="1.19422">
        <ele>135</ele>
        <time>2017-02-14T14:08:38Z</time>
      </trkpt>
      <trkpt lat="49.42281" lon="1.19425">
        <ele>135</ele>
        <time>2017-02-14T14:08:38Z</time>
      </trkpt>
      <trkpt lat="49.42283" lon="1.19431">
        <ele>135</ele>
        <time>2017-02-14T14:08:38Z</time>
      </trkpt>
      <trkpt lat="49.42284" lon="1.19439">
        <ele>135</ele>
        <time>2017-02-14T14:08:38Z</time>
      </trkpt>
      <trkpt lat="49.42285" lon="1.19444">
        <ele>135</ele>
        <time>2017-02-14T14:08:52Z</time>
      </trkpt>
      <trkpt lat="49.42287" lon="1.19453">
        <ele>135</ele>
        <time>2017-02-14T14:08:52Z</time>
      </trkpt>
      <trkpt lat="49.42289" lon="1.19458">
        <ele>135</ele>
        <time>2017-02-14T14:08:52Z</time>
      </trkpt>
      <trkpt lat="49.42291" lon="1.19464">
        <ele>136</ele>
        <time>2017-02-14T14:08:52Z</time>
      </trkpt>
      <trkpt lat="49.42294" lon="1.1947">
        <ele>136</ele>
        <time>2017-02-14T14:09:08Z</time>
      </trkpt>
      <trkpt lat="49.42297" lon="1.19475">
        <ele>136</ele>
        <time>2017-02-14T14:09:08Z</time>
      </trkpt>
      <trkpt lat="49.42299" lon="1.19481">
        <ele>136</ele>
        <time>2017-02-14T14:09:08Z</time>
      </trkpt>
      <trkpt lat="49.42301" lon="1.19486">
        <ele>136</ele>
        <time>2017-02-14T14:09:08Z</time>
      </trkpt>
      <trkpt lat="49.42305" lon="1.19492">
        <ele>136</ele>
        <time>2017-02-14T14:09:24Z</time>
      </trkpt>
      <trkpt lat="49.42307" lon="1.19495">
        <ele>136</ele>
        <time>2017-02-14T14:09:24Z</time>
      </trkpt>
      <trkpt lat="49.42308" lon="1.19501">
        <ele>136</ele>
        <time>2017-02-14T14:09:24Z</time>
      </trkpt>
      <trkpt lat="49.42306" lon="1.19511">
        <ele>136</ele>
        <time>2017-02-14T14:09:24Z</time>
      </trkpt>
      <trkpt lat="49.42306" lon="1.19517">
        <ele>136</ele>
        <time>2017-02-14T14:09:41Z</time>
      </trkpt>
      <trkpt lat="49.42307" lon="1.19525">
        <ele>136</ele>
        <time>2017-02-14T14:09:41Z</time>
      </trkpt>
      <trkpt lat="49.4231" lon="1.19537">
        <ele>136</ele>
        <time>2017-02-14T14:09:41Z</time>
      </trkpt>
      <trkpt lat="49.42313" lon="1.19545">
        <ele>132</ele>
        <time>2017-02-14T14:09:41Z</time>
      </trkpt>
      <trkpt lat="49.42315" lon="1.19549">
        <ele>132</ele>
        <time>2017-02-14T14:09:56Z</time>
      </trkpt>
      <trkpt lat="49.42317" lon="1.19554">
        <ele>132</ele>
        <time>2017-02-14T14:09:56Z</time>
      </trkpt>
      <trkpt lat="49.42318" lon="1.19561">
        <ele>132</ele>
        <time>2017-02-14T14:09:56Z</time>
      </trkpt>
      <trkpt lat="49.42319" lon="1.19569">
        <ele>132</ele>
        <time>2017-02-14T14:09:56Z</time>
      </trkpt>
      <trkpt lat="49.42321" lon="1.19576">
        <ele>132</ele>
        <time>2017-02-14T14:10:12Z</time>
      </trkpt>
      <trkpt lat="49.42323" lon="1.19584">
        <ele>132</ele>
        <time>2017-02-14T14:10:12Z</time>
      </trkpt>
      <trkpt lat="49.42326" lon="1.1959">
        <ele>132</ele>
        <time>2017-02-14T14:10:12Z</time>
      </trkpt>
      <trkpt lat="49.42327" lon="1.19598">
        <ele>132</ele>
        <time>2017-02-14T14:10:12Z</time>
      </trkpt>
      <trkpt lat="49.42329" lon="1.19606">
        <ele>132</ele>
        <time>2017-02-14T14:10:28Z</time>
      </trkpt>
      <trkpt lat="49.42332" lon="1.19613">
        <ele>132</ele>
        <time>2017-02-14T14:10:28Z</time>
      </trkpt>
      <trkpt lat="49.42333" lon="1.19622">
        <ele>132</ele>
        <time>2017-02-14T14:10:28Z</time>
      </trkpt>
      <trkpt lat="49.42335" lon="1.1963">
        <ele>131</ele>
        <time>2017-02-14T14:10:28Z</time>
      </trkpt>
      <trkpt lat="49.42337" lon="1.19636">
        <ele>131</ele>
        <time>2017-02-14T14:10:44Z</time>
      </trkpt>
      <trkpt lat="49.42341" lon="1.19643">
        <ele>131</ele>
        <time>2017-02-14T14:10:44Z</time>
      </trkpt>
      <trkpt lat="49.42344" lon="1.19646">
        <ele>131</ele>
        <time>2017-02-14T14:10:44Z</time>
      </trkpt>
      <trkpt lat="49.42347" lon="1.1965">
        <ele>131</ele>
        <time>2017-02-14T14:10:44Z</time>
      </trkpt>
      <trkpt lat="49.4235" lon="1.19655">
        <ele>131</ele>
        <time>2017-02-14T14:11:00Z</time>
      </trkpt>
      <trkpt lat="49.42353" lon="1.19662">
        <ele>131</ele>
        <time>2017-02-14T14:11:00Z</time>
      </trkpt>
      <trkpt lat="49.42356" lon="1.19667">
        <ele>131</ele>
        <time>2017-02-14T14:11:00Z</time>
      </trkpt>
      <trkpt lat="49.42361" lon="1.19671">
        <ele>131</ele>
        <time>2017-02-14T14:11:00Z</time>
      </trkpt>
      <trkpt lat="49.42364" lon="1.19678">
        <ele>131</ele>
        <time>2017-02-14T14:11:17Z</time>
      </trkpt>
      <trkpt lat="49.42367" lon="1.19686">
        <ele>131</ele>
        <time>2017-02-14T14:11:17Z</time>
      </trkpt>
      <trkpt lat="49.4237" lon="1.19692">
        <ele>131</ele>
        <time>2017-02-14T14:11:17Z</time>
      </trkpt>
      <trkpt lat="49.42372" lon="1.19698">
        <ele>131</ele>
        <time>2017-02-14T14:11:17Z</time>
      </trkpt>
      <trkpt lat="49.42376" lon="1.19703">
        <ele>132</ele>
        <time>2017-02-14T14:11:32Z</time>
      </trkpt>
      <trkpt lat="49.42379" lon="1.1971">
        <ele>134</ele>
        <time>2017-02-14T14:11:32Z</time>
      </trkpt>
      <trkpt lat="49.42383" lon="1.19715">
        <ele>134</ele>
        <time>2017-02-14T14:11:32Z</time>
      </trkpt>
      <trkpt lat="49.42385" lon="1.1972">
        <ele>134</ele>
        <time>2017-02-14T14:11:32Z</time>
      </trkpt>
      <trkpt lat="49.42387" lon="1.19728">
        <ele>134</ele>
        <time>2017-02-14T14:13:56Z</time>
      </trkpt>
      <trkpt lat="49.42388" lon="1.19727">
        <ele>134</ele>
        <time>2017-02-14T14:13:56Z</time>
      </trkpt>
      <trkpt lat="49.42393" lon="1.19729">
        <ele>134</ele>
        <time>2017-02-14T14:13:56Z</time>
      </trkpt>
      <trkpt lat="49.42396" lon="1.19731">
        <ele>134</ele>
        <time>2017-02-14T14:13:56Z</time>
      </trkpt>
      <trkpt lat="49.42397" lon="1.19739">
        <ele>134</ele>
        <time>2017-02-14T14:13:56Z</time>
      </trkpt>
      <trkpt lat="49.42399" lon="1.19747">
        <ele>134</ele>
        <time>2017-02-14T14:14:12Z</time>
      </trkpt>
      <trkpt lat="49.42402" lon="1.19753">
        <ele>134</ele>
        <time>2017-02-14T14:14:12Z</time>
      </trkpt>
      <trkpt lat="49.42405" lon="1.19764">
        <ele>134</ele>
        <time>2017-02-14T14:14:12Z</time>
      </trkpt>
      <trkpt lat="49.42407" lon="1.19769">
        <ele>134</ele>
        <time>2017-02-14T14:14:12Z</time>
      </trkpt>
      <trkpt lat="49.4241" lon="1.19775">
        <ele>134</ele>
        <time>2017-02-14T14:14:29Z</time>
      </trkpt>
      <trkpt lat="49.42413" lon="1.1978">
        <ele>134</ele>
        <time>2017-02-14T14:14:29Z</time>
      </trkpt>
      <trkpt lat="49.42416" lon="1.19785">
        <ele>134</ele>
        <time>2017-02-14T14:14:29Z</time>
      </trkpt>
      <trkpt lat="49.42418" lon="1.1979">
        <ele>134</ele>
        <time>2017-02-14T14:14:29Z</time>
      </trkpt>
      <trkpt lat="49.42421" lon="1.19796">
        <ele>136</ele>
        <time>2017-02-14T14:14:44Z</time>
      </trkpt>
      <trkpt lat="49.42425" lon="1.19802">
        <ele>136</ele>
        <time>2017-02-14T14:14:44Z</time>
      </trkpt>
      <trkpt lat="49.42429" lon="1.19809">
        <ele>136</ele>
        <time>2017-02-14T14:14:44Z</time>
      </trkpt>
      <trkpt lat="49.42431" lon="1.19813">
        <ele>136</ele>
        <time>2017-02-14T14:14:44Z</time>
      </trkpt>
      <trkpt lat="49.42434" lon="1.19817">
        <ele>136</ele>
        <time>2017-02-14T14:15:01Z</time>
      </trkpt>
      <trkpt lat="49.42438" lon="1.19822">
        <ele>136</ele>
        <time>2017-02-14T14:15:01Z</time>
      </trkpt>
      <trkpt lat="49.42441" lon="1.19829">
        <ele>136</ele>
        <time>2017-02-14T14:15:01Z</time>
      </trkpt>
      <trkpt lat="49.42445" lon="1.19835">
        <ele>136</ele>
        <time>2017-02-14T14:15:01Z</time>
      </trkpt>
      <trkpt lat="49.42447" lon="1.1984">
        <ele>136</ele>
        <time>2017-02-14T14:15:16Z</time>
      </trkpt>
      <trkpt lat="49.42451" lon="1.19844">
        <ele>136</ele>
        <time>2017-02-14T14:15:16Z</time>
      </trkpt>
      <trkpt lat="49.42455" lon="1.1985">
        <ele>136</ele>
        <time>2017-02-14T14:15:16Z</time>
      </trkpt>
      <trkpt lat="49.42458" lon="1.19858">
        <ele>136</ele>
        <time>2017-02-14T14:15:16Z</time>
      </trkpt>
      <trkpt lat="49.42461" lon="1.19863">
        <ele>135</ele>
        <time>2017-02-14T14:15:32Z</time>
      </trkpt>
      <trkpt lat="49.42463" lon="1.19866">
        <ele>135</ele>
        <time>2017-02-14T14:15:32Z</time>
      </trkpt>
      <trkpt lat="49.42466" lon="1.19869">
        <ele>135</ele>
        <time>2017-02-14T14:15:32Z</time>
      </trkpt>
      <trkpt lat="49.4247" lon="1.19873">
        <ele>135</ele>
        <time>2017-02-14T14:15:32Z</time>
      </trkpt>
      <trkpt lat="49.42472" lon="1.19883">
        <ele>137</ele>
        <time>2017-02-14T14:15:48Z</time>
      </trkpt>
      <trkpt lat="49.42476" lon="1.1989">
        <ele>137</ele>
        <time>2017-02-14T14:15:48Z</time>
      </trkpt>
      <trkpt lat="49.42479" lon="1.19896">
        <ele>137</ele>
        <time>2017-02-14T14:15:48Z</time>
      </trkpt>
      <trkpt lat="49.42481" lon="1.19903">
        <ele>137</ele>
        <time>2017-02-14T14:15:48Z</time>
      </trkpt>
      <trkpt lat="49.42483" lon="1.1991">
        <ele>137</ele>
        <time>2017-02-14T14:16:04Z</time>
      </trkpt>
      <trkpt lat="49.42485" lon="1.19916">
        <ele>137</ele>
        <time>2017-02-14T14:16:04Z</time>
      </trkpt>
      <trkpt lat="49.42487" lon="1.19921">
        <ele>137</ele>
        <time>2017-02-14T14:16:04Z</time>
      </trkpt>
      <trkpt lat="49.42489" lon="1.19927">
        <ele>137</ele>
        <time>2017-02-14T14:16:04Z</time>
      </trkpt>
      <trkpt lat="49.42491" lon="1.19933">
        <ele>137</ele>
        <time>2017-02-14T14:16:20Z</time>
      </trkpt>
      <trkpt lat="49.42491" lon="1.19943">
        <ele>137</ele>
        <time>2017-02-14T14:16:20Z</time>
      </trkpt>
      <trkpt lat="49.42492" lon="1.19949">
        <ele>137</ele>
        <time>2017-02-14T14:16:20Z</time>
      </trkpt>
      <trkpt lat="49.42493" lon="1.19955">
        <ele>137</ele>
        <time>2017-02-14T14:16:20Z</time>
      </trkpt>
      <trkpt lat="49.42495" lon="1.19962">
        <ele>137</ele>
        <time>2017-02-14T14:16:36Z</time>
      </trkpt>
      <trkpt lat="49.42495" lon="1.19971">
        <ele>137</ele>
        <time>2017-02-14T14:16:36Z</time>
      </trkpt>
      <trkpt lat="49.42498" lon="1.19979">
        <ele>137</ele>
        <time>2017-02-14T14:16:36Z</time>
      </trkpt>
      <trkpt lat="49.42498" lon="1.19986">
        <ele>137</ele>
        <time>2017-02-14T14:16:36Z</time>
      </trkpt>
      <trkpt lat="49.42498" lon="1.19995">
        <ele>137</ele>
        <time>2017-02-14T14:16:53Z</time>
      </trkpt>
      <trkpt lat="49.42499" lon="1.20003">
        <ele>137</ele>
        <time>2017-02-14T14:16:53Z</time>
      </trkpt>
      <trkpt lat="49.42501" lon="1.20011">
        <ele>137</ele>
        <time>2017-02-14T14:16:53Z</time>
      </trkpt>
      <trkpt lat="49.42502" lon="1.20018">
        <ele>137</ele>
        <time>2017-02-14T14:16:53Z</time>
      </trkpt>
      <trkpt lat="49.42502" lon="1.20025">
        <ele>137</ele>
        <time>2017-02-14T14:17:08Z</time>
      </trkpt>
      <trkpt lat="49.42503" lon="1.20033">
        <ele>137</ele>
        <time>2017-02-14T14:17:08Z</time>
      </trkpt>
      <trkpt lat="49.42504" lon="1.20042">
        <ele>139</ele>
        <time>2017-02-14T14:17:08Z</time>
      </trkpt>
      <trkpt lat="49.42504" lon="1.20049">
        <ele>139</ele>
        <time>2017-02-14T14:17:08Z</time>
      </trkpt>
      <trkpt lat="49.42505" lon="1.20057">
        <ele>139</ele>
        <time>2017-02-14T14:17:24Z</time>
      </trkpt>
      <trkpt lat="49.42506" lon="1.20064">
        <ele>139</ele>
        <time>2017-02-14T14:17:24Z</time>
      </trkpt>
      <trkpt lat="49.42507" lon="1.20073">
        <ele>139</ele>
        <time>2017-02-14T14:17:24Z</time>
      </trkpt>
      <trkpt lat="49.42508" lon="1.20082">
        <ele>139</ele>
        <time>2017-02-14T14:17:24Z</time>
      </trkpt>
      <trkpt lat="49.42507" lon="1.20088">
        <ele>139</ele>
        <time>2017-02-14T14:17:40Z</time>
      </trkpt>
      <trkpt lat="49.42507" lon="1.20097">
        <ele>139</ele>
        <time>2017-02-14T14:17:40Z</time>
      </trkpt>
      <trkpt lat="49.42508" lon="1.20106">
        <ele>139</ele>
        <time>2017-02-14T14:17:40Z</time>
      </trkpt>
      <trkpt lat="49.42509" lon="1.20112">
        <ele>139</ele>
        <time>2017-02-14T14:17:40Z</time>
      </trkpt>
      <trkpt lat="49.42511" lon="1.20119">
        <ele>139</ele>
        <time>2017-02-14T14:17:56Z</time>
      </trkpt>
      <trkpt lat="49.42512" lon="1.20125">
        <ele>140</ele>
        <time>2017-02-14T14:17:56Z</time>
      </trkpt>
      <trkpt lat="49.42513" lon="1.20131">
        <ele>140</ele>
        <time>2017-02-14T14:17:56Z</time>
      </trkpt>
      <trkpt lat="49.42514" lon="1.20139">
        <ele>140</ele>
        <time>2017-02-14T14:17:56Z</time>
      </trkpt>
      <trkpt lat="49.42515" lon="1.20148">
        <ele>140</ele>
        <time>2017-02-14T14:18:12Z</time>
      </trkpt>
      <trkpt lat="49.42517" lon="1.20157">
        <ele>140</ele>
        <time>2017-02-14T14:18:12Z</time>
      </trkpt>
      <trkpt lat="49.42519" lon="1.20167">
        <ele>140</ele>
        <time>2017-02-14T14:18:12Z</time>
      </trkpt>
      <trkpt lat="49.4252" lon="1.20173">
        <ele>140</ele>
        <time>2017-02-14T14:18:12Z</time>
      </trkpt>
      <trkpt lat="49.4252" lon="1.20181">
        <ele>140</ele>
        <time>2017-02-14T14:18:29Z</time>
      </trkpt>
      <trkpt lat="49.42522" lon="1.20191">
        <ele>140</ele>
        <time>2017-02-14T14:18:29Z</time>
      </trkpt>
      <trkpt lat="49.42521" lon="1.20199">
        <ele>140</ele>
        <time>2017-02-14T14:18:29Z</time>
      </trkpt>
      <trkpt lat="49.4252" lon="1.20206">
        <ele>140</ele>
        <time>2017-02-14T14:18:29Z</time>
      </trkpt>
      <trkpt lat="49.42518" lon="1.20213">
        <ele>141</ele>
        <time>2017-02-14T14:18:44Z</time>
      </trkpt>
      <trkpt lat="49.42518" lon="1.20219">
        <ele>141</ele>
        <time>2017-02-14T14:18:44Z</time>
      </trkpt>
      <trkpt lat="49.42521" lon="1.20226">
        <ele>141</ele>
        <time>2017-02-14T14:18:44Z</time>
      </trkpt>
      <trkpt lat="49.42521" lon="1.20236">
        <ele>141</ele>
        <time>2017-02-14T14:18:44Z</time>
      </trkpt>
      <trkpt lat="49.42522" lon="1.20242">
        <ele>141</ele>
        <time>2017-02-14T14:19:00Z</time>
      </trkpt>
      <trkpt lat="49.42523" lon="1.20249">
        <ele>141</ele>
        <time>2017-02-14T14:19:00Z</time>
      </trkpt>
      <trkpt lat="49.42526" lon="1.20259">
        <ele>141</ele>
        <time>2017-02-14T14:19:00Z</time>
      </trkpt>
      <trkpt lat="49.42527" lon="1.20265">
        <ele>141</ele>
        <time>2017-02-14T14:19:00Z</time>
      </trkpt>
      <trkpt lat="49.42527" lon="1.20272">
        <ele>141</ele>
        <time>2017-02-14T14:19:16Z</time>
      </trkpt>
      <trkpt lat="49.42529" lon="1.2028">
        <ele>141</ele>
        <time>2017-02-14T14:19:16Z</time>
      </trkpt>
      <trkpt lat="49.42531" lon="1.20286">
        <ele>141</ele>
        <time>2017-02-14T14:19:16Z</time>
      </trkpt>
      <trkpt lat="49.42532" lon="1.20294">
        <ele>141</ele>
        <time>2017-02-14T14:19:16Z</time>
      </trkpt>
      <trkpt lat="49.42535" lon="1.20304">
        <ele>141</ele>
        <time>2017-02-14T14:19:33Z</time>
      </trkpt>
      <trkpt lat="49.42536" lon="1.20314">
        <ele>141</ele>
        <time>2017-02-14T14:19:33Z</time>
      </trkpt>
      <trkpt lat="49.42537" lon="1.2032">
        <ele>141</ele>
        <time>2017-02-14T14:19:33Z</time>
      </trkpt>
      <trkpt lat="49.42538" lon="1.20329">
        <ele>141</ele>
        <time>2017-02-14T14:19:33Z</time>
      </trkpt>
      <trkpt lat="49.42538" lon="1.20333">
        <ele>141</ele>
        <time>2017-02-14T14:19:48Z</time>
      </trkpt>
      <trkpt lat="49.42536" lon="1.20343">
        <ele>141</ele>
        <time>2017-02-14T14:19:48Z</time>
      </trkpt>
      <trkpt lat="49.42537" lon="1.20349">
        <ele>141</ele>
        <time>2017-02-14T14:19:48Z</time>
      </trkpt>
      <trkpt lat="49.42538" lon="1.20357">
        <ele>141</ele>
        <time>2017-02-14T14:19:48Z</time>
      </trkpt>
      <trkpt lat="49.42538" lon="1.20366">
        <ele>141</ele>
        <time>2017-02-14T14:20:04Z</time>
      </trkpt>
      <trkpt lat="49.42539" lon="1.20374">
        <ele>141</ele>
        <time>2017-02-14T14:20:04Z</time>
      </trkpt>
      <trkpt lat="49.4254" lon="1.20382">
        <ele>143</ele>
        <time>2017-02-14T14:20:04Z</time>
      </trkpt>
      <trkpt lat="49.42542" lon="1.20388">
        <ele>143</ele>
        <time>2017-02-14T14:20:04Z</time>
      </trkpt>
      <trkpt lat="49.42543" lon="1.20398">
        <ele>143</ele>
        <time>2017-02-14T14:20:20Z</time>
      </trkpt>
      <trkpt lat="49.42544" lon="1.20406">
        <ele>143</ele>
        <time>2017-02-14T14:20:20Z</time>
      </trkpt>
      <trkpt lat="49.42545" lon="1.20413">
        <ele>143</ele>
        <time>2017-02-14T14:20:20Z</time>
      </trkpt>
      <trkpt lat="49.42546" lon="1.20419">
        <ele>143</ele>
        <time>2017-02-14T14:20:20Z</time>
      </trkpt>
      <trkpt lat="49.42547" lon="1.20427">
        <ele>143</ele>
        <time>2017-02-14T14:20:36Z</time>
      </trkpt>
      <trkpt lat="49.42547" lon="1.20438">
        <ele>143</ele>
        <time>2017-02-14T14:20:36Z</time>
      </trkpt>
      <trkpt lat="49.42548" lon="1.20444">
        <ele>143</ele>
        <time>2017-02-14T14:20:36Z</time>
      </trkpt>
      <trkpt lat="49.42548" lon="1.20451">
        <ele>143</ele>
        <time>2017-02-14T14:20:36Z</time>
      </trkpt>
      <trkpt lat="49.42549" lon="1.20459">
        <ele>144</ele>
        <time>2017-02-14T14:20:52Z</time>
      </trkpt>
      <trkpt lat="49.42552" lon="1.20469">
        <ele>144</ele>
        <time>2017-02-14T14:20:52Z</time>
      </trkpt>
      <trkpt lat="49.42551" lon="1.20478">
        <ele>144</ele>
        <time>2017-02-14T14:20:52Z</time>
      </trkpt>
      <trkpt lat="49.42551" lon="1.20488">
        <ele>144</ele>
        <time>2017-02-14T14:20:52Z</time>
      </trkpt>
      <trkpt lat="49.42551" lon="1.20493">
        <ele>144</ele>
        <time>2017-02-14T14:21:08Z</time>
      </trkpt>
      <trkpt lat="49.42551" lon="1.20503">
        <ele>144</ele>
        <time>2017-02-14T14:21:08Z</time>
      </trkpt>
      <trkpt lat="49.42552" lon="1.2051">
        <ele>144</ele>
        <time>2017-02-14T14:21:08Z</time>
      </trkpt>
      <trkpt lat="49.42552" lon="1.20517">
        <ele>144</ele>
        <time>2017-02-14T14:21:08Z</time>
      </trkpt>
      <trkpt lat="49.42553" lon="1.20523">
        <ele>144</ele>
        <time>2017-02-14T14:21:24Z</time>
      </trkpt>
      <trkpt lat="49.42554" lon="1.20531">
        <ele>144</ele>
        <time>2017-02-14T14:21:25Z</time>
      </trkpt>
      <trkpt lat="49.42554" lon="1.20538">
        <ele>144</ele>
        <time>2017-02-14T14:21:25Z</time>
      </trkpt>
      <trkpt lat="49.42554" lon="1.20547">
        <ele>145</ele>
        <time>2017-02-14T14:21:25Z</time>
      </trkpt>
      <trkpt lat="49.42553" lon="1.20557">
        <ele>145</ele>
        <time>2017-02-14T14:21:40Z</time>
      </trkpt>
      <trkpt lat="49.42552" lon="1.20566">
        <ele>145</ele>
        <time>2017-02-14T14:21:40Z</time>
      </trkpt>
      <trkpt lat="49.42553" lon="1.20574">
        <ele>145</ele>
        <time>2017-02-14T14:21:40Z</time>
      </trkpt>
      <trkpt lat="49.42553" lon="1.20581">
        <ele>145</ele>
        <time>2017-02-14T14:21:40Z</time>
      </trkpt>
      <trkpt lat="49.42554" lon="1.20588">
        <ele>145</ele>
        <time>2017-02-14T14:21:56Z</time>
      </trkpt>
      <trkpt lat="49.42554" lon="1.20598">
        <ele>145</ele>
        <time>2017-02-14T14:21:56Z</time>
      </trkpt>
      <trkpt lat="49.42554" lon="1.20607">
        <ele>145</ele>
        <time>2017-02-14T14:21:56Z</time>
      </trkpt>
      <trkpt lat="49.42554" lon="1.20615">
        <ele>145</ele>
        <time>2017-02-14T14:21:56Z</time>
      </trkpt>
      <trkpt lat="49.42554" lon="1.20622">
        <ele>145</ele>
        <time>2017-02-14T14:22:12Z</time>
      </trkpt>
      <trkpt lat="49.42557" lon="1.20629">
        <ele>146</ele>
        <time>2017-02-14T14:22:12Z</time>
      </trkpt>
      <trkpt lat="49.42556" lon="1.20636">
        <ele>146</ele>
        <time>2017-02-14T14:22:12Z</time>
      </trkpt>
      <trkpt lat="49.42555" lon="1.20644">
        <ele>146</ele>
        <time>2017-02-14T14:22:12Z</time>
      </trkpt>
      <trkpt lat="49.42555" lon="1.20652">
        <ele>146</ele>
        <time>2017-02-14T14:22:28Z</time>
      </trkpt>
      <trkpt lat="49.42555" lon="1.2066">
        <ele>146</ele>
        <time>2017-02-14T14:22:28Z</time>
      </trkpt>
      <trkpt lat="49.42555" lon="1.20666">
        <ele>146</ele>
        <time>2017-02-14T14:22:28Z</time>
      </trkpt>
      <trkpt lat="49.42555" lon="1.20674">
        <ele>146</ele>
        <time>2017-02-14T14:22:28Z</time>
      </trkpt>
      <trkpt lat="49.42556" lon="1.20682">
        <ele>146</ele>
        <time>2017-02-14T14:22:44Z</time>
      </trkpt>
      <trkpt lat="49.42556" lon="1.20692">
        <ele>146</ele>
        <time>2017-02-14T14:22:44Z</time>
      </trkpt>
      <trkpt lat="49.42556" lon="1.20701">
        <ele>146</ele>
        <time>2017-02-14T14:22:44Z</time>
      </trkpt>
      <trkpt lat="49.42555" lon="1.20707">
        <ele>146</ele>
        <time>2017-02-14T14:22:44Z</time>
      </trkpt>
      <trkpt lat="49.42555" lon="1.20716">
        <ele>147</ele>
        <time>2017-02-14T14:23:00Z</time>
      </trkpt>
      <trkpt lat="49.42556" lon="1.20725">
        <ele>147</ele>
        <time>2017-02-14T14:23:00Z</time>
      </trkpt>
      <trkpt lat="49.42556" lon="1.20733">
        <ele>147</ele>
        <time>2017-02-14T14:23:00Z</time>
      </trkpt>
      <trkpt lat="49.42557" lon="1.20739">
        <ele>147</ele>
        <time>2017-02-14T14:23:00Z</time>
      </trkpt>
      <trkpt lat="49.42558" lon="1.20748">
        <ele>147</ele>
        <time>2017-02-14T14:23:16Z</time>
      </trkpt>
      <trkpt lat="49.42558" lon="1.20757">
        <ele>147</ele>
        <time>2017-02-14T14:23:16Z</time>
      </trkpt>
      <trkpt lat="49.42559" lon="1.20764">
        <ele>147</ele>
        <time>2017-02-14T14:23:16Z</time>
      </trkpt>
      <trkpt lat="49.42559" lon="1.20773">
        <ele>147</ele>
        <time>2017-02-14T14:23:16Z</time>
      </trkpt>
      <trkpt lat="49.42559" lon="1.20778">
        <ele>147</ele>
        <time>2017-02-14T14:23:32Z</time>
      </trkpt>
      <trkpt lat="49.42559" lon="1.20784">
        <ele>147</ele>
        <time>2017-02-14T14:23:32Z</time>
      </trkpt>
      <trkpt lat="49.42558" lon="1.20793">
        <ele>148</ele>
        <time>2017-02-14T14:23:32Z</time>
      </trkpt>
      <trkpt lat="49.42558" lon="1.208">
        <ele>148</ele>
        <time>2017-02-14T14:23:32Z</time>
      </trkpt>
      <trkpt lat="49.42559" lon="1.2081">
        <ele>148</ele>
        <time>2017-02-14T14:23:49Z</time>
      </trkpt>
      <trkpt lat="49.42561" lon="1.20817">
        <ele>148</ele>
        <time>2017-02-14T14:23:49Z</time>
      </trkpt>
      <trkpt lat="49.42562" lon="1.20826">
        <ele>148</ele>
        <time>2017-02-14T14:23:49Z</time>
      </trkpt>
      <trkpt lat="49.42562" lon="1.20832">
        <ele>148</ele>
        <time>2017-02-14T14:23:49Z</time>
      </trkpt>
      <trkpt lat="49.42562" lon="1.20842">
        <ele>148</ele>
        <time>2017-02-14T14:24:04Z</time>
      </trkpt>
      <trkpt lat="49.42563" lon="1.20848">
        <ele>148</ele>
        <time>2017-02-14T14:24:04Z</time>
      </trkpt>
      <trkpt lat="49.42563" lon="1.20854">
        <ele>148</ele>
        <time>2017-02-14T14:24:04Z</time>
      </trkpt>
      <trkpt lat="49.42565" lon="1.20861">
        <ele>148</ele>
        <time>2017-02-14T14:24:04Z</time>
      </trkpt>
      <trkpt lat="49.42566" lon="1.20868">
        <ele>148</ele>
        <time>2017-02-14T14:24:20Z</time>
      </trkpt>
      <trkpt lat="49.42566" lon="1.20877">
        <ele>149</ele>
        <time>2017-02-14T14:24:20Z</time>
      </trkpt>
      <trkpt lat="49.42566" lon="1.20886">
        <ele>149</ele>
        <time>2017-02-14T14:24:20Z</time>
      </trkpt>
      <trkpt lat="49.42566" lon="1.20894">
        <ele>149</ele>
        <time>2017-02-14T14:24:20Z</time>
      </trkpt>
      <trkpt lat="49.42567" lon="1.20901">
        <ele>149</ele>
        <time>2017-02-14T14:24:36Z</time>
      </trkpt>
      <trkpt lat="49.42568" lon="1.20907">
        <ele>149</ele>
        <time>2017-02-14T14:24:36Z</time>
      </trkpt>
      <trkpt lat="49.42568" lon="1.20916">
        <ele>149</ele>
        <time>2017-02-14T14:24:36Z</time>
      </trkpt>
      <trkpt lat="49.42568" lon="1.20925">
        <ele>149</ele>
        <time>2017-02-14T14:24:36Z</time>
      </trkpt>
      <trkpt lat="49.42569" lon="1.20933">
        <ele>149</ele>
        <time>2017-02-14T14:24:52Z</time>
      </trkpt>
      <trkpt lat="49.42568" lon="1.20942">
        <ele>149</ele>
        <time>2017-02-14T14:24:52Z</time>
      </trkpt>
      <trkpt lat="49.42569" lon="1.20949">
        <ele>149</ele>
        <time>2017-02-14T14:24:52Z</time>
      </trkpt>
      <trkpt lat="49.42569" lon="1.20957">
        <ele>149</ele>
        <time>2017-02-14T14:24:52Z</time>
      </trkpt>
      <trkpt lat="49.42569" lon="1.20966">
        <ele>151</ele>
        <time>2017-02-14T14:25:08Z</time>
      </trkpt>
      <trkpt lat="49.4257" lon="1.20975">
        <ele>151</ele>
        <time>2017-02-14T14:25:08Z</time>
      </trkpt>
      <trkpt lat="49.42571" lon="1.20983">
        <ele>151</ele>
        <time>2017-02-14T14:25:08Z</time>
      </trkpt>
      <trkpt lat="49.42572" lon="1.20992">
        <ele>151</ele>
        <time>2017-02-14T14:25:08Z</time>
      </trkpt>
      <trkpt lat="49.42573" lon="1.20999">
        <ele>151</ele>
        <time>2017-02-14T14:25:24Z</time>
      </trkpt>
      <trkpt lat="49.42574" lon="1.21005">
        <ele>151</ele>
        <time>2017-02-14T14:25:24Z</time>
      </trkpt>
      <trkpt lat="49.42576" lon="1.21011">
        <ele>151</ele>
        <time>2017-02-14T14:25:24Z</time>
      </trkpt>
      <trkpt lat="49.42577" lon="1.21018">
        <ele>151</ele>
        <time>2017-02-14T14:25:24Z</time>
      </trkpt>
      <trkpt lat="49.42577" lon="1.21025">
        <ele>151</ele>
        <time>2017-02-14T14:25:40Z</time>
      </trkpt>
      <trkpt lat="49.42578" lon="1.21033">
        <ele>151</ele>
        <time>2017-02-14T14:25:40Z</time>
      </trkpt>
      <trkpt lat="49.42581" lon="1.21041">
        <ele>151</ele>
        <time>2017-02-14T14:25:40Z</time>
      </trkpt>
      <trkpt lat="49.42584" lon="1.21046">
        <ele>152</ele>
        <time>2017-02-14T14:25:40Z</time>
      </trkpt>
      <trkpt lat="49.42588" lon="1.21053">
        <ele>152</ele>
        <time>2017-02-14T14:25:56Z</time>
      </trkpt>
      <trkpt lat="49.42589" lon="1.21054">
        <ele>152</ele>
        <time>2017-02-14T14:25:56Z</time>
      </trkpt>
      <trkpt lat="49.42597" lon="1.21062">
        <ele>152</ele>
        <time>2017-02-14T14:25:56Z</time>
      </trkpt>
      <trkpt lat="49.42602" lon="1.21065">
        <ele>152</ele>
        <time>2017-02-14T14:25:56Z</time>
      </trkpt>
      <trkpt lat="49.42606" lon="1.21068">
        <ele>152</ele>
        <time>2017-02-14T14:26:12Z</time>
      </trkpt>
      <trkpt lat="49.4261" lon="1.21073">
        <ele>152</ele>
        <time>2017-02-14T14:26:12Z</time>
      </trkpt>
      <trkpt lat="49.42614" lon="1.21077">
        <ele>152</ele>
        <time>2017-02-14T14:26:12Z</time>
      </trkpt>
      <trkpt lat="49.42618" lon="1.21082">
        <ele>152</ele>
        <time>2017-02-14T14:26:12Z</time>
      </trkpt>
      <trkpt lat="49.42621" lon="1.21088">
        <ele>152</ele>
        <time>2017-02-14T14:26:28Z</time>
      </trkpt>
      <trkpt lat="49.42624" lon="1.21093">
        <ele>152</ele>
        <time>2017-02-14T14:26:28Z</time>
      </trkpt>
      <trkpt lat="49.42626" lon="1.21096">
        <ele>154</ele>
        <time>2017-02-14T14:26:28Z</time>
      </trkpt>
      <trkpt lat="49.4263" lon="1.21101">
        <ele>154</ele>
        <time>2017-02-14T14:26:28Z</time>
      </trkpt>
      <trkpt lat="49.42633" lon="1.21109">
        <ele>154</ele>
        <time>2017-02-14T14:26:44Z</time>
      </trkpt>
      <trkpt lat="49.42637" lon="1.21116">
        <ele>154</ele>
        <time>2017-02-14T14:26:44Z</time>
      </trkpt>
      <trkpt lat="49.42642" lon="1.21123">
        <ele>154</ele>
        <time>2017-02-14T14:26:44Z</time>
      </trkpt>
      <trkpt lat="49.42647" lon="1.2113">
        <ele>154</ele>
        <time>2017-02-14T14:26:44Z</time>
      </trkpt>
      <trkpt lat="49.42655" lon="1.2114">
        <ele>154</ele>
        <time>2017-02-14T14:28:57Z</time>
      </trkpt>
      <trkpt lat="49.42655" lon="1.2114">
        <ele>154</ele>
        <time>2017-02-14T14:28:57Z</time>
      </trkpt>
      <trkpt lat="49.42656" lon="1.2114">
        <ele>154</ele>
        <time>2017-02-14T14:28:57Z</time>
      </trkpt>
      <trkpt lat="49.42656" lon="1.21139">
        <ele>154</ele>
        <time>2017-02-14T14:28:57Z</time>
      </trkpt>
      <trkpt lat="49.42657" lon="1.21142">
        <ele>154</ele>
        <time>2017-02-14T14:28:57Z</time>
      </trkpt>
      <trkpt lat="49.42662" lon="1.21144">
        <ele>154</ele>
        <time>2017-02-14T14:29:13Z</time>
      </trkpt>
      <trkpt lat="49.42666" lon="1.21148">
        <ele>154</ele>
        <time>2017-02-14T14:29:13Z</time>
      </trkpt>
      <trkpt lat="49.42668" lon="1.21151">
        <ele>154</ele>
        <time>2017-02-14T14:29:13Z</time>
      </trkpt>
      <trkpt lat="49.42669" lon="1.21157">
        <ele>154</ele>
        <time>2017-02-14T14:29:13Z</time>
      </trkpt>
      <trkpt lat="49.42673" lon="1.21164">
        <ele>154</ele>
        <time>2017-02-14T14:29:28Z</time>
      </trkpt>
      <trkpt lat="49.42675" lon="1.2117">
        <ele>154</ele>
        <time>2017-02-14T14:29:28Z</time>
      </trkpt>
      <trkpt lat="49.42677" lon="1.21176">
        <ele>154</ele>
        <time>2017-02-14T14:29:28Z</time>
      </trkpt>
      <trkpt lat="49.4268" lon="1.21179">
        <ele>154</ele>
        <time>2017-02-14T14:29:28Z</time>
      </trkpt>
      <trkpt lat="49.42684" lon="1.21183">
        <ele>154</ele>
        <time>2017-02-14T14:29:44Z</time>
      </trkpt>
      <trkpt lat="49.42686" lon="1.21187">
        <ele>154</ele>
        <time>2017-02-14T14:29:44Z</time>
      </trkpt>
      <trkpt lat="49.42689" lon="1.21191">
        <ele>154</ele>
        <time>2017-02-14T14:29:44Z</time>
      </trkpt>
      <trkpt lat="49.42692" lon="1.21196">
        <ele>154</ele>
        <time>2017-02-14T14:29:44Z</time>
      </trkpt>
      <trkpt lat="49.42696" lon="1.212">
        <ele>154</ele>
        <time>2017-02-14T14:30:00Z</time>
      </trkpt>
      <trkpt lat="49.42698" lon="1.21207">
        <ele>154</ele>
        <time>2017-02-14T14:30:00Z</time>
      </trkpt>
      <trkpt lat="49.427" lon="1.21211">
        <ele>156</ele>
        <time>2017-02-14T14:30:00Z</time>
      </trkpt>
      <trkpt lat="49.42704" lon="1.21216">
        <ele>156</ele>
        <time>2017-02-14T14:30:00Z</time>
      </trkpt>
      <trkpt lat="49.42708" lon="1.21221">
        <ele>156</ele>
        <time>2017-02-14T14:30:16Z</time>
      </trkpt>
      <trkpt lat="49.42711" lon="1.21226">
        <ele>157</ele>
        <time>2017-02-14T14:30:16Z</time>
      </trkpt>
      <trkpt lat="49.42714" lon="1.21232">
        <ele>157</ele>
        <time>2017-02-14T14:30:16Z</time>
      </trkpt>
      <trkpt lat="49.42717" lon="1.21237">
        <ele>157</ele>
        <time>2017-02-14T14:30:16Z</time>
      </trkpt>
      <trkpt lat="49.42721" lon="1.21244">
        <ele>157</ele>
        <time>2017-02-14T14:30:32Z</time>
      </trkpt>
      <trkpt lat="49.42724" lon="1.2125">
        <ele>157</ele>
        <time>2017-02-14T14:30:32Z</time>
      </trkpt>
      <trkpt lat="49.42727" lon="1.21253">
        <ele>157</ele>
        <time>2017-02-14T14:30:32Z</time>
      </trkpt>
      <trkpt lat="49.42729" lon="1.21257">
        <ele>157</ele>
        <time>2017-02-14T14:30:32Z</time>
      </trkpt>
      <trkpt lat="49.42731" lon="1.21264">
        <ele>157</ele>
        <time>2017-02-14T14:30:48Z</time>
      </trkpt>
      <trkpt lat="49.42734" lon="1.21269">
        <ele>157</ele>
        <time>2017-02-14T14:30:48Z</time>
      </trkpt>
      <trkpt lat="49.42738" lon="1.21274">
        <ele>157</ele>
        <time>2017-02-14T14:30:48Z</time>
      </trkpt>
      <trkpt lat="49.42741" lon="1.21283">
        <ele>157</ele>
        <time>2017-02-14T14:30:48Z</time>
      </trkpt>
      <trkpt lat="49.42744" lon="1.2129">
        <ele>157</ele>
        <time>2017-02-14T14:31:04Z</time>
      </trkpt>
      <trkpt lat="49.42747" lon="1.21298">
        <ele>160</ele>
        <time>2017-02-14T14:31:04Z</time>
      </trkpt>
      <trkpt lat="49.42749" lon="1.21304">
        <ele>160</ele>
        <time>2017-02-14T14:31:04Z</time>
      </trkpt>
      <trkpt lat="49.42751" lon="1.21308">
        <ele>160</ele>
        <time>2017-02-14T14:31:04Z</time>
      </trkpt>
      <trkpt lat="49.42755" lon="1.21316">
        <ele>160</ele>
        <time>2017-02-14T14:31:20Z</time>
      </trkpt>
      <trkpt lat="49.42758" lon="1.2132">
        <ele>160</ele>
        <time>2017-02-14T14:31:20Z</time>
      </trkpt>
      <trkpt lat="49.4276" lon="1.21325">
        <ele>160</ele>
        <time>2017-02-14T14:31:20Z</time>
      </trkpt>
      <trkpt lat="49.42763" lon="1.21331">
        <ele>160</ele>
        <time>2017-02-14T14:31:20Z</time>
      </trkpt>
      <trkpt lat="49.42767" lon="1.21333">
        <ele>160</ele>
        <time>2017-02-14T14:31:36Z</time>
      </trkpt>
      <trkpt lat="49.4277" lon="1.21337">
        <ele>160</ele>
        <time>2017-02-14T14:31:36Z</time>
      </trkpt>
      <trkpt lat="49.42774" lon="1.21337">
        <ele>160</ele>
        <time>2017-02-14T14:31:36Z</time>
      </trkpt>
      <trkpt lat="49.4278" lon="1.21335">
        <ele>160</ele>
        <time>2017-02-14T14:31:36Z</time>
      </trkpt>
      <trkpt lat="49.42785" lon="1.21332">
        <ele>160</ele>
        <time>2017-02-14T14:31:52Z</time>
      </trkpt>
      <trkpt lat="49.42789" lon="1.21328">
        <ele>160</ele>
        <time>2017-02-14T14:31:52Z</time>
      </trkpt>
      <trkpt lat="49.42792" lon="1.21324">
        <ele>156</ele>
        <time>2017-02-14T14:31:53Z</time>
      </trkpt>
      <trkpt lat="49.42795" lon="1.21319">
        <ele>156</ele>
        <time>2017-02-14T14:31:53Z</time>
      </trkpt>
      <trkpt lat="49.42798" lon="1.21316">
        <ele>156</ele>
        <time>2017-02-14T14:32:08Z</time>
      </trkpt>
      <trkpt lat="49.42802" lon="1.21311">
        <ele>156</ele>
        <time>2017-02-14T14:32:08Z</time>
      </trkpt>
      <trkpt lat="49.42805" lon="1.21308">
        <ele>156</ele>
        <time>2017-02-14T14:32:08Z</time>
      </trkpt>
      <trkpt lat="49.42808" lon="1.21305">
        <ele>156</ele>
        <time>2017-02-14T14:32:08Z</time>
      </trkpt>
      <trkpt lat="49.42809" lon="1.21297">
        <ele>156</ele>
        <time>2017-02-14T14:32:32Z</time>
      </trkpt>
      <trkpt lat="49.42809" lon="1.21297">
        <ele>156</ele>
        <time>2017-02-14T14:32:32Z</time>
      </trkpt>
      <trkpt lat="49.42811" lon="1.21297">
        <ele>156</ele>
        <time>2017-02-14T14:32:32Z</time>
      </trkpt>
      <trkpt lat="49.42817" lon="1.21296">
        <ele>156</ele>
        <time>2017-02-14T14:32:32Z</time>
      </trkpt>
      <trkpt lat="49.42821" lon="1.21292">
        <ele>156</ele>
        <time>2017-02-14T14:32:32Z</time>
      </trkpt>
      <trkpt lat="49.42824" lon="1.21288">
        <ele>157</ele>
        <time>2017-02-14T14:32:49Z</time>
      </trkpt>
      <trkpt lat="49.42829" lon="1.21284">
        <ele>157</ele>
        <time>2017-02-14T14:32:49Z</time>
      </trkpt>
      <trkpt lat="49.42832" lon="1.21281">
        <ele>157</ele>
        <time>2017-02-14T14:32:49Z</time>
      </trkpt>
      <trkpt lat="49.42837" lon="1.21276">
        <ele>157</ele>
        <time>2017-02-14T14:32:49Z</time>
      </trkpt>
      <trkpt lat="49.42839" lon="1.21272">
        <ele>157</ele>
        <time>2017-02-14T14:33:04Z</time>
      </trkpt>
      <trkpt lat="49.42842" lon="1.21268">
        <ele>157</ele>
        <time>2017-02-14T14:33:04Z</time>
      </trkpt>
      <trkpt lat="49.42846" lon="1.21267">
        <ele>157</ele>
        <time>2017-02-14T14:33:04Z</time>
      </trkpt>
      <trkpt lat="49.42848" lon="1.21264">
        <ele>157</ele>
        <time>2017-02-14T14:33:04Z</time>
      </trkpt>
      <trkpt lat="49.42852" lon="1.21258">
        <ele>157</ele>
        <time>2017-02-14T14:33:32Z</time>
      </trkpt>
      <trkpt lat="49.42854" lon="1.21253">
        <ele>157</ele>
        <time>2017-02-14T14:33:32Z</time>
      </trkpt>
      <trkpt lat="49.42859" lon="1.21247">
        <ele>157</ele>
        <time>2017-02-14T14:33:32Z</time>
      </trkpt>
      <trkpt lat="49.42863" lon="1.21243">
        <ele>157</ele>
        <time>2017-02-14T14:33:32Z</time>
      </trkpt>
      <trkpt lat="49.42866" lon="1.21239">
        <ele>157</ele>
        <time>2017-02-14T14:33:32Z</time>
      </trkpt>
      <trkpt lat="49.4287" lon="1.21234">
        <ele>157</ele>
        <time>2017-02-14T14:33:48Z</time>
      </trkpt>
      <trkpt lat="49.42873" lon="1.21229">
        <ele>157</ele>
        <time>2017-02-14T14:33:48Z</time>
      </trkpt>
      <trkpt lat="49.42878" lon="1.21227">
        <ele>157</ele>
        <time>2017-02-14T14:33:48Z</time>
      </trkpt>
      <trkpt lat="49.4288" lon="1.21224">
        <ele>157</ele>
        <time>2017-02-14T14:33:48Z</time>
      </trkpt>
      <trkpt lat="49.42885" lon="1.21219">
        <ele>157</ele>
        <time>2017-02-14T14:34:04Z</time>
      </trkpt>
      <trkpt lat="49.4289" lon="1.21218">
        <ele>157</ele>
        <time>2017-02-14T14:34:04Z</time>
      </trkpt>
      <trkpt lat="49.42895" lon="1.21218">
        <ele>157</ele>
        <time>2017-02-14T14:34:04Z</time>
      </trkpt>
      <trkpt lat="49.42901" lon="1.21218">
        <ele>157</ele>
        <time>2017-02-14T14:34:04Z</time>
      </trkpt>
      <trkpt lat="49.42905" lon="1.21217">
        <ele>157</ele>
        <time>2017-02-14T14:34:20Z</time>
      </trkpt>
      <trkpt lat="49.4291" lon="1.21216">
        <ele>157</ele>
        <time>2017-02-14T14:34:20Z</time>
      </trkpt>
      <trkpt lat="49.42915" lon="1.21214">
        <ele>157</ele>
        <time>2017-02-14T14:34:20Z</time>
      </trkpt>
      <trkpt lat="49.42919" lon="1.21214">
        <ele>157</ele>
        <time>2017-02-14T14:34:20Z</time>
      </trkpt>
      <trkpt lat="49.42923" lon="1.21212">
        <ele>157</ele>
        <time>2017-02-14T14:34:36Z</time>
      </trkpt>
      <trkpt lat="49.42929" lon="1.21211">
        <ele>157</ele>
        <time>2017-02-14T14:34:36Z</time>
      </trkpt>
      <trkpt lat="49.42934" lon="1.21209">
        <ele>157</ele>
        <time>2017-02-14T14:34:36Z</time>
      </trkpt>
      <trkpt lat="49.42939" lon="1.21209">
        <ele>157</ele>
        <time>2017-02-14T14:34:36Z</time>
      </trkpt>
      <trkpt lat="49.42946" lon="1.21206">
        <ele>155</ele>
        <time>2017-02-14T14:35:57Z</time>
      </trkpt>
      <trkpt lat="49.42949" lon="1.21206">
        <ele>155</ele>
        <time>2017-02-14T14:35:57Z</time>
      </trkpt>
      <trkpt lat="49.42956" lon="1.21202">
        <ele>155</ele>
        <time>2017-02-14T14:35:57Z</time>
      </trkpt>
      <trkpt lat="49.4296" lon="1.21203">
        <ele>155</ele>
        <time>2017-02-14T14:35:57Z</time>
      </trkpt>
      <trkpt lat="49.42964" lon="1.21204">
        <ele>155</ele>
        <time>2017-02-14T14:35:57Z</time>
      </trkpt>
      <trkpt lat="49.42968" lon="1.21205">
        <ele>155</ele>
        <time>2017-02-14T14:36:20Z</time>
      </trkpt>
      <trkpt lat="49.42972" lon="1.212">
        <ele>155</ele>
        <time>2017-02-14T14:36:20Z</time>
      </trkpt>
      <trkpt lat="49.42972" lon="1.212">
        <ele>155</ele>
        <time>2017-02-14T14:36:20Z</time>
      </trkpt>
      <trkpt lat="49.42988" lon="1.21185">
        <ele>155</ele>
        <time>2017-02-14T14:36:20Z</time>
      </trkpt>
      <trkpt lat="49.42991" lon="1.21177">
        <ele>155</ele>
        <time>2017-02-14T14:36:36Z</time>
      </trkpt>
      <trkpt lat="49.43" lon="1.2119">
        <ele>155</ele>
        <time>2017-02-14T14:36:36Z</time>
      </trkpt>
      <trkpt lat="49.43005" lon="1.21192">
        <ele>155</ele>
        <time>2017-02-14T14:36:36Z</time>
      </trkpt>
      <trkpt lat="49.4301" lon="1.21189">
        <ele>155</ele>
        <time>2017-02-14T14:36:36Z</time>
      </trkpt>
      <trkpt lat="49.43016" lon="1.21189">
        <ele>155</ele>
        <time>2017-02-14T14:36:52Z</time>
      </trkpt>
      <trkpt lat="49.43021" lon="1.21185">
        <ele>155</ele>
        <time>2017-02-14T14:36:52Z</time>
      </trkpt>
      <trkpt lat="49.43024" lon="1.21183">
        <ele>155</ele>
        <time>2017-02-14T14:36:52Z</time>
      </trkpt>
      <trkpt lat="49.4303" lon="1.21181">
        <ele>155</ele>
        <time>2017-02-14T14:36:52Z</time>
      </trkpt>
      <trkpt lat="49.43038" lon="1.2118">
        <ele>155</ele>
        <time>2017-02-14T14:37:08Z</time>
      </trkpt>
      <trkpt lat="49.43041" lon="1.21179">
        <ele>155</ele>
        <time>2017-02-14T14:37:08Z</time>
      </trkpt>
      <trkpt lat="49.43049" lon="1.21176">
        <ele>153</ele>
        <time>2017-02-14T14:37:08Z</time>
      </trkpt>
      <trkpt lat="49.43055" lon="1.21175">
        <ele>153</ele>
        <time>2017-02-14T14:37:08Z</time>
      </trkpt>
      <trkpt lat="49.43059" lon="1.21173">
        <ele>153</ele>
        <time>2017-02-14T14:37:24Z</time>
      </trkpt>
      <trkpt lat="49.43065" lon="1.21171">
        <ele>153</ele>
        <time>2017-02-14T14:37:24Z</time>
      </trkpt>
      <trkpt lat="49.4307" lon="1.21171">
        <ele>153</ele>
        <time>2017-02-14T14:37:24Z</time>
      </trkpt>
      <trkpt lat="49.43076" lon="1.2117">
        <ele>153</ele>
        <time>2017-02-14T14:37:24Z</time>
      </trkpt>
      <trkpt lat="49.43081" lon="1.21169">
        <ele>153</ele>
        <time>2017-02-14T14:37:41Z</time>
      </trkpt>
      <trkpt lat="49.43084" lon="1.21172">
        <ele>153</ele>
        <time>2017-02-14T14:37:41Z</time>
      </trkpt>
      <trkpt lat="49.43089" lon="1.21175">
        <ele>153</ele>
        <time>2017-02-14T14:37:41Z</time>
      </trkpt>
      <trkpt lat="49.43094" lon="1.21178">
        <ele>153</ele>
        <time>2017-02-14T14:37:41Z</time>
      </trkpt>
      <trkpt lat="49.431" lon="1.21179">
        <ele>153</ele>
        <time>2017-02-14T14:37:56Z</time>
      </trkpt>
      <trkpt lat="49.43104" lon="1.21181">
        <ele>153</ele>
        <time>2017-02-14T14:37:56Z</time>
      </trkpt>
      <trkpt lat="49.43109" lon="1.21184">
        <ele>153</ele>
        <time>2017-02-14T14:37:56Z</time>
      </trkpt>
      <trkpt lat="49.43114" lon="1.21187">
        <ele>153</ele>
        <time>2017-02-14T14:37:56Z</time>
      </trkpt>
      <trkpt lat="49.4312" lon="1.2119">
        <ele>153</ele>
        <time>2017-02-14T14:38:12Z</time>
      </trkpt>
      <trkpt lat="49.43123" lon="1.21192">
        <ele>153</ele>
        <time>2017-02-14T14:38:12Z</time>
      </trkpt>
      <trkpt lat="49.43128" lon="1.21194">
        <ele>151</ele>
        <time>2017-02-14T14:38:12Z</time>
      </trkpt>
      <trkpt lat="49.43135" lon="1.21197">
        <ele>151</ele>
        <time>2017-02-14T14:38:12Z</time>
      </trkpt>
      <trkpt lat="49.43142" lon="1.212">
        <ele>151</ele>
        <time>2017-02-14T14:38:28Z</time>
      </trkpt>
      <trkpt lat="49.43147" lon="1.21202">
        <ele>151</ele>
        <time>2017-02-14T14:38:28Z</time>
      </trkpt>
      <trkpt lat="49.43151" lon="1.21202">
        <ele>151</ele>
        <time>2017-02-14T14:38:28Z</time>
      </trkpt>
      <trkpt lat="49.43157" lon="1.21207">
        <ele>151</ele>
        <time>2017-02-14T14:38:28Z</time>
      </trkpt>
      <trkpt lat="49.43161" lon="1.21208">
        <ele>151</ele>
        <time>2017-02-14T14:38:44Z</time>
      </trkpt>
      <trkpt lat="49.43165" lon="1.2121">
        <ele>154</ele>
        <time>2017-02-14T14:38:44Z</time>
      </trkpt>
      <trkpt lat="49.4317" lon="1.21215">
        <ele>154</ele>
        <time>2017-02-14T14:38:45Z</time>
      </trkpt>
      <trkpt lat="49.43174" lon="1.21219">
        <ele>154</ele>
        <time>2017-02-14T14:38:45Z</time>
      </trkpt>
      <trkpt lat="49.43184" lon="1.2122">
        <ele>154</ele>
        <time>2017-02-14T14:40:52Z</time>
      </trkpt>
      <trkpt lat="49.43187" lon="1.21218">
        <ele>154</ele>
        <time>2017-02-14T14:40:52Z</time>
      </trkpt>
      <trkpt lat="49.43194" lon="1.21213">
        <ele>154</ele>
        <time>2017-02-14T14:40:52Z</time>
      </trkpt>
      <trkpt lat="49.43198" lon="1.2121">
        <ele>154</ele>
        <time>2017-02-14T14:40:52Z</time>
      </trkpt>
      <trkpt lat="49.43201" lon="1.21206">
        <ele>151</ele>
        <time>2017-02-14T14:40:52Z</time>
      </trkpt>
      <trkpt lat="49.43203" lon="1.21203">
        <ele>151</ele>
        <time>2017-02-14T14:41:08Z</time>
      </trkpt>
      <trkpt lat="49.43207" lon="1.21198">
        <ele>151</ele>
        <time>2017-02-14T14:41:08Z</time>
      </trkpt>
      <trkpt lat="49.43211" lon="1.21194">
        <ele>150</ele>
        <time>2017-02-14T14:41:08Z</time>
      </trkpt>
      <trkpt lat="49.43213" lon="1.2119">
        <ele>150</ele>
        <time>2017-02-14T14:41:08Z</time>
      </trkpt>
      <trkpt lat="49.43215" lon="1.21185">
        <ele>150</ele>
        <time>2017-02-14T14:41:24Z</time>
      </trkpt>
      <trkpt lat="49.43218" lon="1.21178">
        <ele>150</ele>
        <time>2017-02-14T14:41:25Z</time>
      </trkpt>
      <trkpt lat="49.43222" lon="1.21172">
        <ele>150</ele>
        <time>2017-02-14T14:41:25Z</time>
      </trkpt>
      <trkpt lat="49.43225" lon="1.21167">
        <ele>150</ele>
        <time>2017-02-14T14:41:25Z</time>
      </trkpt>
      <trkpt lat="49.4323" lon="1.21162">
        <ele>150</ele>
        <time>2017-02-14T14:41:41Z</time>
      </trkpt>
      <trkpt lat="49.43234" lon="1.21158">
        <ele>150</ele>
        <time>2017-02-14T14:41:41Z</time>
      </trkpt>
      <trkpt lat="49.43236" lon="1.21154">
        <ele>150</ele>
        <time>2017-02-14T14:41:41Z</time>
      </trkpt>
      <trkpt lat="49.43238" lon="1.21149">
        <ele>150</ele>
        <time>2017-02-14T14:41:41Z</time>
      </trkpt>
      <trkpt lat="49.43242" lon="1.21143">
        <ele>150</ele>
        <time>2017-02-14T14:41:56Z</time>
      </trkpt>
      <trkpt lat="49.43247" lon="1.21137">
        <ele>150</ele>
        <time>2017-02-14T14:41:56Z</time>
      </trkpt>
      <trkpt lat="49.4325" lon="1.21131">
        <ele>150</ele>
        <time>2017-02-14T14:41:56Z</time>
      </trkpt>
      <trkpt lat="49.43254" lon="1.21124">
        <ele>150</ele>
        <time>2017-02-14T14:41:56Z</time>
      </trkpt>
      <trkpt lat="49.43257" lon="1.21118">
        <ele>150</ele>
        <time>2017-02-14T14:42:12Z</time>
      </trkpt>
      <trkpt lat="49.43261" lon="1.21115">
        <ele>150</ele>
        <time>2017-02-14T14:42:12Z</time>
      </trkpt>
      <trkpt lat="49.43265" lon="1.2111">
        <ele>150</ele>
        <time>2017-02-14T14:42:12Z</time>
      </trkpt>
      <trkpt lat="49.43269" lon="1.21106">
        <ele>150</ele>
        <time>2017-02-14T14:42:12Z</time>
      </trkpt>
      <trkpt lat="49.43273" lon="1.21102">
        <ele>150</ele>
        <time>2017-02-14T14:42:28Z</time>
      </trkpt>
      <trkpt lat="49.43277" lon="1.21096">
        <ele>150</ele>
        <time>2017-02-14T14:42:28Z</time>
      </trkpt>
      <trkpt lat="49.43281" lon="1.2109">
        <ele>150</ele>
        <time>2017-02-14T14:42:28Z</time>
      </trkpt>
      <trkpt lat="49.43285" lon="1.21086">
        <ele>150</ele>
        <time>2017-02-14T14:42:28Z</time>
      </trkpt>
      <trkpt lat="49.43289" lon="1.21079">
        <ele>150</ele>
        <time>2017-02-14T14:42:44Z</time>
      </trkpt>
      <trkpt lat="49.43294" lon="1.21072">
        <ele>150</ele>
        <time>2017-02-14T14:42:44Z</time>
      </trkpt>
      <trkpt lat="49.43297" lon="1.21068">
        <ele>150</ele>
        <time>2017-02-14T14:42:44Z</time>
      </trkpt>
      <trkpt lat="49.433" lon="1.21063">
        <ele>150</ele>
        <time>2017-02-14T14:42:44Z</time>
      </trkpt>
      <trkpt lat="49.43302" lon="1.21061">
        <ele>150</ele>
        <time>2017-02-14T14:43:00Z</time>
      </trkpt>
      <trkpt lat="49.43303" lon="1.21059">
        <ele>150</ele>
        <time>2017-02-14T14:43:00Z</time>
      </trkpt>
      <trkpt lat="49.43307" lon="1.21055">
        <ele>150</ele>
        <time>2017-02-14T14:43:00Z</time>
      </trkpt>
      <trkpt lat="49.43313" lon="1.21051">
        <ele>150</ele>
        <time>2017-02-14T14:43:00Z</time>
      </trkpt>
      <trkpt lat="49.43317" lon="1.21046">
        <ele>150</ele>
        <time>2017-02-14T14:43:17Z</time>
      </trkpt>
      <trkpt lat="49.43322" lon="1.21042">
        <ele>150</ele>
        <time>2017-02-14T14:43:17Z</time>
      </trkpt>
      <trkpt lat="49.43327" lon="1.21036">
        <ele>149</ele>
        <time>2017-02-14T14:43:17Z</time>
      </trkpt>
      <trkpt lat="49.43332" lon="1.2103">
        <ele>149</ele>
        <time>2017-02-14T14:43:17Z</time>
      </trkpt>
      <trkpt lat="49.43335" lon="1.21027">
        <ele>149</ele>
        <time>2017-02-14T14:43:32Z</time>
      </trkpt>
      <trkpt lat="49.4334" lon="1.21022">
        <ele>149</ele>
        <time>2017-02-14T14:43:32Z</time>
      </trkpt>
      <trkpt lat="49.43344" lon="1.21017">
        <ele>149</ele>
        <time>2017-02-14T14:43:32Z</time>
      </trkpt>
      <trkpt lat="49.43348" lon="1.21012">
        <ele>149</ele>
        <time>2017-02-14T14:43:32Z</time>
      </trkpt>
      <trkpt lat="49.43354" lon="1.21005">
        <ele>149</ele>
        <time>2017-02-14T14:43:49Z</time>
      </trkpt>
      <trkpt lat="49.43357" lon="1.21001">
        <ele>149</ele>
        <time>2017-02-14T14:43:49Z</time>
      </trkpt>
      <trkpt lat="49.43361" lon="1.20997">
        <ele>149</ele>
        <time>2017-02-14T14:43:49Z</time>
      </trkpt>
      <trkpt lat="49.43363" lon="1.20992">
        <ele>149</ele>
        <time>2017-02-14T14:43:49Z</time>
      </trkpt>
      <trkpt lat="49.43368" lon="1.20987">
        <ele>149</ele>
        <time>2017-02-14T14:44:04Z</time>
      </trkpt>
      <trkpt lat="49.43372" lon="1.20983">
        <ele>149</ele>
        <time>2017-02-14T14:44:04Z</time>
      </trkpt>
      <trkpt lat="49.43376" lon="1.20977">
        <ele>148</ele>
        <time>2017-02-14T14:44:04Z</time>
      </trkpt>
      <trkpt lat="49.43381" lon="1.20973">
        <ele>148</ele>
        <time>2017-02-14T14:44:04Z</time>
      </trkpt>
      <trkpt lat="49.43382" lon="1.20971">
        <ele>148</ele>
        <time>2017-02-14T14:44:20Z</time>
      </trkpt>
      <trkpt lat="49.43386" lon="1.20966">
        <ele>148</ele>
        <time>2017-02-14T14:44:20Z</time>
      </trkpt>
      <trkpt lat="49.43391" lon="1.20959">
        <ele>148</ele>
        <time>2017-02-14T14:44:20Z</time>
      </trkpt>
      <trkpt lat="49.43397" lon="1.20951">
        <ele>147</ele>
        <time>2017-02-14T14:44:20Z</time>
      </trkpt>
      <trkpt lat="49.43403" lon="1.20947">
        <ele>147</ele>
        <time>2017-02-14T14:44:48Z</time>
      </trkpt>
      <trkpt lat="49.43403" lon="1.20946">
        <ele>147</ele>
        <time>2017-02-14T14:44:48Z</time>
      </trkpt>
      <trkpt lat="49.43409" lon="1.20946">
        <ele>147</ele>
        <time>2017-02-14T14:44:48Z</time>
      </trkpt>
      <trkpt lat="49.43413" lon="1.2095">
        <ele>147</ele>
        <time>2017-02-14T14:44:48Z</time>
      </trkpt>
      <trkpt lat="49.43418" lon="1.20953">
        <ele>147</ele>
        <time>2017-02-14T14:44:48Z</time>
      </trkpt>
      <trkpt lat="49.43423" lon="1.20956">
        <ele>147</ele>
        <time>2017-02-14T14:45:04Z</time>
      </trkpt>
      <trkpt lat="49.43427" lon="1.20958">
        <ele>147</ele>
        <time>2017-02-14T14:45:04Z</time>
      </trkpt>
      <trkpt lat="49.43433" lon="1.20961">
        <ele>148</ele>
        <time>2017-02-14T14:45:04Z</time>
      </trkpt>
      <trkpt lat="49.43436" lon="1.20963">
        <ele>148</ele>
        <time>2017-02-14T14:45:04Z</time>
      </trkpt>
      <trkpt lat="49.43441" lon="1.20966">
        <ele>148</ele>
        <time>2017-02-14T14:45:20Z</time>
      </trkpt>
      <trkpt lat="49.43445" lon="1.20969">
        <ele>148</ele>
        <time>2017-02-14T14:45:20Z</time>
      </trkpt>
      <trkpt lat="49.43449" lon="1.20972">
        <ele>148</ele>
        <time>2017-02-14T14:45:20Z</time>
      </trkpt>
      <trkpt lat="49.43454" lon="1.20975">
        <ele>148</ele>
        <time>2017-02-14T14:45:20Z</time>
      </trkpt>
      <trkpt lat="49.43459" lon="1.20978">
        <ele>150</ele>
        <time>2017-02-14T14:45:36Z</time>
      </trkpt>
      <trkpt lat="49.43464" lon="1.20981">
        <ele>150</ele>
        <time>2017-02-14T14:45:36Z</time>
      </trkpt>
      <trkpt lat="49.43471" lon="1.20984">
        <ele>150</ele>
        <time>2017-02-14T14:45:36Z</time>
      </trkpt>
      <trkpt lat="49.43475" lon="1.20987">
        <ele>150</ele>
        <time>2017-02-14T14:45:36Z</time>
      </trkpt>
      <trkpt lat="49.4348" lon="1.20989">
        <ele>150</ele>
        <time>2017-02-14T14:45:52Z</time>
      </trkpt>
      <trkpt lat="49.43484" lon="1.20992">
        <ele>150</ele>
        <time>2017-02-14T14:45:52Z</time>
      </trkpt>
      <trkpt lat="49.4349" lon="1.20995">
        <ele>150</ele>
        <time>2017-02-14T14:45:52Z</time>
      </trkpt>
      <trkpt lat="49.43495" lon="1.20996">
        <ele>150</ele>
        <time>2017-02-14T14:45:52Z</time>
      </trkpt>
      <trkpt lat="49.435" lon="1.20999">
        <ele>150</ele>
        <time>2017-02-14T14:46:08Z</time>
      </trkpt>
      <trkpt lat="49.43505" lon="1.21002">
        <ele>150</ele>
        <time>2017-02-14T14:46:08Z</time>
      </trkpt>
      <trkpt lat="49.43507" lon="1.21004">
        <ele>150</ele>
        <time>2017-02-14T14:46:08Z</time>
      </trkpt>
      <trkpt lat="49.43512" lon="1.21007">
        <ele>150</ele>
        <time>2017-02-14T14:46:08Z</time>
      </trkpt>
      <trkpt lat="49.43517" lon="1.21009">
        <ele>150</ele>
        <time>2017-02-14T14:46:24Z</time>
      </trkpt>
      <trkpt lat="49.43522" lon="1.21011">
        <ele>150</ele>
        <time>2017-02-14T14:46:24Z</time>
      </trkpt>
      <trkpt lat="49.43526" lon="1.21015">
        <ele>150</ele>
        <time>2017-02-14T14:46:24Z</time>
      </trkpt>
      <trkpt lat="49.43531" lon="1.21019">
        <ele>150</ele>
        <time>2017-02-14T14:46:24Z</time>
      </trkpt>
      <trkpt lat="49.43537" lon="1.21022">
        <ele>150</ele>
        <time>2017-02-14T14:46:40Z</time>
      </trkpt>
      <trkpt lat="49.43541" lon="1.21024">
        <ele>150</ele>
        <time>2017-02-14T14:46:40Z</time>
      </trkpt>
      <trkpt lat="49.43547" lon="1.21026">
        <ele>152</ele>
        <time>2017-02-14T14:46:40Z</time>
      </trkpt>
      <trkpt lat="49.43552" lon="1.21028">
        <ele>152</ele>
        <time>2017-02-14T14:46:40Z</time>
      </trkpt>
      <trkpt lat="49.43558" lon="1.21031">
        <ele>152</ele>
        <time>2017-02-14T14:46:56Z</time>
      </trkpt>
      <trkpt lat="49.43562" lon="1.21032">
        <ele>152</ele>
        <time>2017-02-14T14:46:56Z</time>
      </trkpt>
      <trkpt lat="49.43569" lon="1.21035">
        <ele>152</ele>
        <time>2017-02-14T14:46:56Z</time>
      </trkpt>
      <trkpt lat="49.43572" lon="1.21038">
        <ele>152</ele>
        <time>2017-02-14T14:46:56Z</time>
      </trkpt>
      <trkpt lat="49.43577" lon="1.21039">
        <ele>152</ele>
        <time>2017-02-14T14:47:12Z</time>
      </trkpt>
      <trkpt lat="49.43582" lon="1.21041">
        <ele>152</ele>
        <time>2017-02-14T14:47:12Z</time>
      </trkpt>
      <trkpt lat="49.43587" lon="1.21044">
        <ele>154</ele>
        <time>2017-02-14T14:47:12Z</time>
      </trkpt>
      <trkpt lat="49.4359" lon="1.21046">
        <ele>154</ele>
        <time>2017-02-14T14:47:12Z</time>
      </trkpt>
      <trkpt lat="49.43597" lon="1.21049">
        <ele>154</ele>
        <time>2017-02-14T14:47:28Z</time>
      </trkpt>
      <trkpt lat="49.43598" lon="1.2105">
        <ele>154</ele>
        <time>2017-02-14T14:47:28Z</time>
      </trkpt>
      <trkpt lat="49.43605" lon="1.21052">
        <ele>154</ele>
        <time>2017-02-14T14:47:28Z</time>
      </trkpt>
      <trkpt lat="49.43611" lon="1.21054">
        <ele>154</ele>
        <time>2017-02-14T14:47:28Z</time>
      </trkpt>
      <trkpt lat="49.43624" lon="1.21061">
        <ele>154</ele>
        <time>2017-02-14T14:48:08Z</time>
      </trkpt>
      <trkpt lat="49.43627" lon="1.2106">
        <ele>153</ele>
        <time>2017-02-14T14:48:08Z</time>
      </trkpt>
      <trkpt lat="49.43632" lon="1.21062">
        <ele>153</ele>
        <time>2017-02-14T14:48:08Z</time>
      </trkpt>
      <trkpt lat="49.43636" lon="1.21063">
        <ele>153</ele>
        <time>2017-02-14T14:48:08Z</time>
      </trkpt>
      <trkpt lat="49.4364" lon="1.21064">
        <ele>153</ele>
        <time>2017-02-14T14:48:08Z</time>
      </trkpt>
      <trkpt lat="49.43643" lon="1.21066">
        <ele>153</ele>
        <time>2017-02-14T14:48:24Z</time>
      </trkpt>
      <trkpt lat="49.43649" lon="1.21066">
        <ele>153</ele>
        <time>2017-02-14T14:48:24Z</time>
      </trkpt>
      <trkpt lat="49.43652" lon="1.21067">
        <ele>153</ele>
        <time>2017-02-14T14:48:24Z</time>
      </trkpt>
      <trkpt lat="49.43656" lon="1.21069">
        <ele>153</ele>
        <time>2017-02-14T14:48:24Z</time>
      </trkpt>
      <trkpt lat="49.43661" lon="1.21072">
        <ele>153</ele>
        <time>2017-02-14T14:48:40Z</time>
      </trkpt>
      <trkpt lat="49.43666" lon="1.21073">
        <ele>153</ele>
        <time>2017-02-14T14:48:40Z</time>
      </trkpt>
      <trkpt lat="49.43671" lon="1.21074">
        <ele>153</ele>
        <time>2017-02-14T14:48:40Z</time>
      </trkpt>
      <trkpt lat="49.43675" lon="1.21073">
        <ele>153</ele>
        <time>2017-02-14T14:48:40Z</time>
      </trkpt>
      <trkpt lat="49.43679" lon="1.21071">
        <ele>153</ele>
        <time>2017-02-14T14:51:16Z</time>
      </trkpt>
      <trkpt lat="49.4368" lon="1.21073">
        <ele>153</ele>
        <time>2017-02-14T14:51:16Z</time>
      </trkpt>
      <trkpt lat="49.43678" lon="1.21076">
        <ele>153</ele>
        <time>2017-02-14T14:51:16Z</time>
      </trkpt>
      <trkpt lat="49.43676" lon="1.21084">
        <ele>153</ele>
        <time>2017-02-14T14:51:16Z</time>
      </trkpt>
      <trkpt lat="49.43675" lon="1.21093">
        <ele>153</ele>
        <time>2017-02-14T14:51:16Z</time>
      </trkpt>
      <trkpt lat="49.43675" lon="1.211">
        <ele>153</ele>
        <time>2017-02-14T14:51:33Z</time>
      </trkpt>
      <trkpt lat="49.43676" lon="1.21108">
        <ele>153</ele>
        <time>2017-02-14T14:51:33Z</time>
      </trkpt>
      <trkpt lat="49.43675" lon="1.21116">
        <ele>153</ele>
        <time>2017-02-14T14:51:33Z</time>
      </trkpt>
      <trkpt lat="49.43674" lon="1.21124">
        <ele>153</ele>
        <time>2017-02-14T14:51:33Z</time>
      </trkpt>
      <trkpt lat="49.43672" lon="1.21134">
        <ele>154</ele>
        <time>2017-02-14T14:51:48Z</time>
      </trkpt>
      <trkpt lat="49.43669" lon="1.2114">
        <ele>154</ele>
        <time>2017-02-14T14:51:48Z</time>
      </trkpt>
      <trkpt lat="49.43667" lon="1.21147">
        <ele>154</ele>
        <time>2017-02-14T14:51:48Z</time>
      </trkpt>
      <trkpt lat="49.43665" lon="1.21156">
        <ele>154</ele>
        <time>2017-02-14T14:51:48Z</time>
      </trkpt>
      <trkpt lat="49.43663" lon="1.21164">
        <ele>154</ele>
        <time>2017-02-14T14:52:05Z</time>
      </trkpt>
      <trkpt lat="49.4366" lon="1.21172">
        <ele>154</ele>
        <time>2017-02-14T14:52:05Z</time>
      </trkpt>
      <trkpt lat="49.43658" lon="1.21177">
        <ele>154</ele>
        <time>2017-02-14T14:52:05Z</time>
      </trkpt>
      <trkpt lat="49.43655" lon="1.21185">
        <ele>154</ele>
        <time>2017-02-14T14:52:05Z</time>
      </trkpt>
      <trkpt lat="49.43652" lon="1.21193">
        <ele>154</ele>
        <time>2017-02-14T14:52:21Z</time>
      </trkpt>
      <trkpt lat="49.4365" lon="1.212">
        <ele>154</ele>
        <time>2017-02-14T14:52:21Z</time>
      </trkpt>
      <trkpt lat="49.43648" lon="1.21206">
        <ele>154</ele>
        <time>2017-02-14T14:52:21Z</time>
      </trkpt>
      <trkpt lat="49.43647" lon="1.21214">
        <ele>154</ele>
        <time>2017-02-14T14:52:21Z</time>
      </trkpt>
      <trkpt lat="49.43646" lon="1.21222">
        <ele>154</ele>
        <time>2017-02-14T14:52:36Z</time>
      </trkpt>
      <trkpt lat="49.43645" lon="1.2123">
        <ele>154</ele>
        <time>2017-02-14T14:52:36Z</time>
      </trkpt>
      <trkpt lat="49.43643" lon="1.21238">
        <ele>154</ele>
        <time>2017-02-14T14:52:36Z</time>
      </trkpt>
      <trkpt lat="49.43641" lon="1.21244">
        <ele>154</ele>
        <time>2017-02-14T14:52:36Z</time>
      </trkpt>
      <trkpt lat="49.4364" lon="1.21251">
        <ele>154</ele>
        <time>2017-02-14T14:52:53Z</time>
      </trkpt>
      <trkpt lat="49.43639" lon="1.21258">
        <ele>154</ele>
        <time>2017-02-14T14:52:53Z</time>
      </trkpt>
      <trkpt lat="49.43637" lon="1.21265">
        <ele>154</ele>
        <time>2017-02-14T14:52:53Z</time>
      </trkpt>
      <trkpt lat="49.43637" lon="1.21274">
        <ele>154</ele>
        <time>2017-02-14T14:52:53Z</time>
      </trkpt>
      <trkpt lat="49.43636" lon="1.21283">
        <ele>154</ele>
        <time>2017-02-14T14:53:08Z</time>
      </trkpt>
      <trkpt lat="49.43635" lon="1.21292">
        <ele>155</ele>
        <time>2017-02-14T14:53:08Z</time>
      </trkpt>
      <trkpt lat="49.43634" lon="1.213">
        <ele>155</ele>
        <time>2017-02-14T14:53:08Z</time>
      </trkpt>
      <trkpt lat="49.43632" lon="1.21307">
        <ele>155</ele>
        <time>2017-02-14T14:53:08Z</time>
      </trkpt>
      <trkpt lat="49.43631" lon="1.21317">
        <ele>155</ele>
        <time>2017-02-14T14:53:24Z</time>
      </trkpt>
      <trkpt lat="49.4363" lon="1.21325">
        <ele>155</ele>
        <time>2017-02-14T14:53:24Z</time>
      </trkpt>
      <trkpt lat="49.4363" lon="1.21332">
        <ele>155</ele>
        <time>2017-02-14T14:53:24Z</time>
      </trkpt>
      <trkpt lat="49.4363" lon="1.21338">
        <ele>155</ele>
        <time>2017-02-14T14:53:24Z</time>
      </trkpt>
      <trkpt lat="49.43631" lon="1.21346">
        <ele>155</ele>
        <time>2017-02-14T14:53:40Z</time>
      </trkpt>
      <trkpt lat="49.43632" lon="1.21354">
        <ele>155</ele>
        <time>2017-02-14T14:53:40Z</time>
      </trkpt>
      <trkpt lat="49.43632" lon="1.21362">
        <ele>155</ele>
        <time>2017-02-14T14:53:40Z</time>
      </trkpt>
      <trkpt lat="49.43632" lon="1.21368">
        <ele>155</ele>
        <time>2017-02-14T14:53:40Z</time>
      </trkpt>
      <trkpt lat="49.4363" lon="1.21376">
        <ele>155</ele>
        <time>2017-02-14T14:53:57Z</time>
      </trkpt>
      <trkpt lat="49.4363" lon="1.21384">
        <ele>155</ele>
        <time>2017-02-14T14:53:57Z</time>
      </trkpt>
      <trkpt lat="49.4363" lon="1.21393">
        <ele>155</ele>
        <time>2017-02-14T14:53:57Z</time>
      </trkpt>
      <trkpt lat="49.4363" lon="1.21401">
        <ele>155</ele>
        <time>2017-02-14T14:53:57Z</time>
      </trkpt>
      <trkpt lat="49.4363" lon="1.21406">
        <ele>155</ele>
        <time>2017-02-14T14:54:12Z</time>
      </trkpt>
      <trkpt lat="49.43631" lon="1.21414">
        <ele>155</ele>
        <time>2017-02-14T14:54:12Z</time>
      </trkpt>
      <trkpt lat="49.43632" lon="1.21423">
        <ele>155</ele>
        <time>2017-02-14T14:54:12Z</time>
      </trkpt>
      <trkpt lat="49.43631" lon="1.21428">
        <ele>155</ele>
        <time>2017-02-14T14:54:12Z</time>
      </trkpt>
      <trkpt lat="49.43631" lon="1.21434">
        <ele>155</ele>
        <time>2017-02-14T14:54:28Z</time>
      </trkpt>
      <trkpt lat="49.43629" lon="1.21443">
        <ele>155</ele>
        <time>2017-02-14T14:54:28Z</time>
      </trkpt>
      <trkpt lat="49.4363" lon="1.21451">
        <ele>155</ele>
        <time>2017-02-14T14:54:28Z</time>
      </trkpt>
      <trkpt lat="49.43631" lon="1.21458">
        <ele>155</ele>
        <time>2017-02-14T14:54:28Z</time>
      </trkpt>
      <trkpt lat="49.43631" lon="1.21468">
        <ele>156</ele>
        <time>2017-02-14T14:54:44Z</time>
      </trkpt>
      <trkpt lat="49.43631" lon="1.21474">
        <ele>156</ele>
        <time>2017-02-14T14:54:44Z</time>
      </trkpt>
      <trkpt lat="49.43631" lon="1.2148">
        <ele>156</ele>
        <time>2017-02-14T14:54:44Z</time>
      </trkpt>
      <trkpt lat="49.43632" lon="1.21488">
        <ele>156</ele>
        <time>2017-02-14T14:54:44Z</time>
      </trkpt>
      <trkpt lat="49.43633" lon="1.21495">
        <ele>156</ele>
        <time>2017-02-14T14:55:00Z</time>
      </trkpt>
      <trkpt lat="49.43633" lon="1.21504">
        <ele>156</ele>
        <time>2017-02-14T14:55:00Z</time>
      </trkpt>
      <trkpt lat="49.43635" lon="1.21512">
        <ele>156</ele>
        <time>2017-02-14T14:55:00Z</time>
      </trkpt>
      <trkpt lat="49.43636" lon="1.21519">
        <ele>156</ele>
        <time>2017-02-14T14:55:00Z</time>
      </trkpt>
      <trkpt lat="49.43637" lon="1.21526">
        <ele>156</ele>
        <time>2017-02-14T14:55:16Z</time>
      </trkpt>
      <trkpt lat="49.43639" lon="1.21532">
        <ele>156</ele>
        <time>2017-02-14T14:55:16Z</time>
      </trkpt>
      <trkpt lat="49.4364" lon="1.21542">
        <ele>155</ele>
        <time>2017-02-14T14:55:16Z</time>
      </trkpt>
      <trkpt lat="49.43641" lon="1.21546">
        <ele>155</ele>
        <time>2017-02-14T14:55:16Z</time>
      </trkpt>
      <trkpt lat="49.43641" lon="1.21554">
        <ele>155</ele>
        <time>2017-02-14T14:55:32Z</time>
      </trkpt>
      <trkpt lat="49.43642" lon="1.21563">
        <ele>155</ele>
        <time>2017-02-14T14:55:32Z</time>
      </trkpt>
      <trkpt lat="49.43643" lon="1.21572">
        <ele>155</ele>
        <time>2017-02-14T14:55:32Z</time>
      </trkpt>
      <trkpt lat="49.43645" lon="1.21579">
        <ele>155</ele>
        <time>2017-02-14T14:55:32Z</time>
      </trkpt>
      <trkpt lat="49.43645" lon="1.21585">
        <ele>155</ele>
        <time>2017-02-14T14:55:48Z</time>
      </trkpt>
      <trkpt lat="49.43645" lon="1.21593">
        <ele>155</ele>
        <time>2017-02-14T14:55:48Z</time>
      </trkpt>
      <trkpt lat="49.43646" lon="1.21601">
        <ele>155</ele>
        <time>2017-02-14T14:55:48Z</time>
      </trkpt>
      <trkpt lat="49.43647" lon="1.21606">
        <ele>155</ele>
        <time>2017-02-14T14:55:48Z</time>
      </trkpt>
      <trkpt lat="49.43647" lon="1.21613">
        <ele>155</ele>
        <time>2017-02-14T14:56:04Z</time>
      </trkpt>
      <trkpt lat="49.43649" lon="1.21619">
        <ele>155</ele>
        <time>2017-02-14T14:56:04Z</time>
      </trkpt>
      <trkpt lat="49.43649" lon="1.21628">
        <ele>156</ele>
        <time>2017-02-14T14:56:04Z</time>
      </trkpt>
      <trkpt lat="49.43651" lon="1.21635">
        <ele>156</ele>
        <time>2017-02-14T14:56:04Z</time>
      </trkpt>
      <trkpt lat="49.43653" lon="1.21642">
        <ele>156</ele>
        <time>2017-02-14T14:56:20Z</time>
      </trkpt>
      <trkpt lat="49.43654" lon="1.21649">
        <ele>156</ele>
        <time>2017-02-14T14:56:20Z</time>
      </trkpt>
      <trkpt lat="49.43655" lon="1.21658">
        <ele>156</ele>
        <time>2017-02-14T14:56:20Z</time>
      </trkpt>
      <trkpt lat="49.43659" lon="1.21662">
        <ele>156</ele>
        <time>2017-02-14T14:56:20Z</time>
      </trkpt>
      <trkpt lat="49.43661" lon="1.21668">
        <ele>156</ele>
        <time>2017-02-14T14:56:36Z</time>
      </trkpt>
      <trkpt lat="49.43662" lon="1.21675">
        <ele>156</ele>
        <time>2017-02-14T14:56:36Z</time>
      </trkpt>
      <trkpt lat="49.43663" lon="1.21683">
        <ele>156</ele>
        <time>2017-02-14T14:56:36Z</time>
      </trkpt>
      <trkpt lat="49.43664" lon="1.21692">
        <ele>156</ele>
        <time>2017-02-14T14:56:36Z</time>
      </trkpt>
      <trkpt lat="49.43665" lon="1.217">
        <ele>156</ele>
        <time>2017-02-14T14:56:52Z</time>
      </trkpt>
      <trkpt lat="49.43665" lon="1.21709">
        <ele>156</ele>
        <time>2017-02-14T14:56:52Z</time>
      </trkpt>
      <trkpt lat="49.43667" lon="1.21716">
        <ele>156</ele>
        <time>2017-02-14T14:56:52Z</time>
      </trkpt>
      <trkpt lat="49.43668" lon="1.21724">
        <ele>156</ele>
        <time>2017-02-14T14:56:52Z</time>
      </trkpt>
      <trkpt lat="49.4367" lon="1.2173">
        <ele>156</ele>
        <time>2017-02-14T14:57:08Z</time>
      </trkpt>
      <trkpt lat="49.43671" lon="1.21737">
        <ele>156</ele>
        <time>2017-02-14T14:57:08Z</time>
      </trkpt>
      <trkpt lat="49.43671" lon="1.21743">
        <ele>156</ele>
        <time>2017-02-14T14:57:08Z</time>
      </trkpt>
      <trkpt lat="49.43671" lon="1.21751">
        <ele>156</ele>
        <time>2017-02-14T14:57:08Z</time>
      </trkpt>
      <trkpt lat="49.43676" lon="1.21766">
        <ele>156</ele>
        <time>2017-02-14T14:57:53Z</time>
      </trkpt>
      <trkpt lat="49.43676" lon="1.21772">
        <ele>156</ele>
        <time>2017-02-14T14:57:53Z</time>
      </trkpt>
      <trkpt lat="49.43678" lon="1.21778">
        <ele>156</ele>
        <time>2017-02-14T14:57:53Z</time>
      </trkpt>
      <trkpt lat="49.43679" lon="1.21784">
        <ele>156</ele>
        <time>2017-02-14T14:57:53Z</time>
      </trkpt>
      <trkpt lat="49.43681" lon="1.2179">
        <ele>156</ele>
        <time>2017-02-14T14:57:53Z</time>
      </trkpt>
      <trkpt lat="49.43681" lon="1.21793">
        <ele>157</ele>
        <time>2017-02-14T14:58:28Z</time>
      </trkpt>
      <trkpt lat="49.43681" lon="1.21793">
        <ele>157</ele>
        <time>2017-02-14T14:58:28Z</time>
      </trkpt>
      <trkpt lat="49.43679" lon="1.21797">
        <ele>157</ele>
        <time>2017-02-14T14:58:28Z</time>
      </trkpt>
      <trkpt lat="49.4368" lon="1.21804">
        <ele>157</ele>
        <time>2017-02-14T14:58:28Z</time>
      </trkpt>
      <trkpt lat="49.43684" lon="1.21811">
        <ele>157</ele>
        <time>2017-02-14T14:58:28Z</time>
      </trkpt>
      <trkpt lat="49.43687" lon="1.21816">
        <ele>157</ele>
        <time>2017-02-14T14:58:44Z</time>
      </trkpt>
      <trkpt lat="49.43689" lon="1.21822">
        <ele>157</ele>
        <time>2017-02-14T14:58:44Z</time>
      </trkpt>
      <trkpt lat="49.4369" lon="1.21829">
        <ele>157</ele>
        <time>2017-02-14T14:58:44Z</time>
      </trkpt>
      <trkpt lat="49.43692" lon="1.21835">
        <ele>157</ele>
        <time>2017-02-14T14:58:44Z</time>
      </trkpt>
      <trkpt lat="49.43693" lon="1.2184">
        <ele>157</ele>
        <time>2017-02-14T14:59:00Z</time>
      </trkpt>
      <trkpt lat="49.43694" lon="1.21847">
        <ele>157</ele>
        <time>2017-02-14T14:59:00Z</time>
      </trkpt>
      <trkpt lat="49.43695" lon="1.21853">
        <ele>157</ele>
        <time>2017-02-14T14:59:00Z</time>
      </trkpt>
      <trkpt lat="49.43695" lon="1.21861">
        <ele>157</ele>
        <time>2017-02-14T14:59:00Z</time>
      </trkpt>
      <trkpt lat="49.43696" lon="1.21868">
        <ele>157</ele>
        <time>2017-02-14T14:59:16Z</time>
      </trkpt>
      <trkpt lat="49.43698" lon="1.21874">
        <ele>157</ele>
        <time>2017-02-14T14:59:16Z</time>
      </trkpt>
      <trkpt lat="49.437" lon="1.21881">
        <ele>156</ele>
        <time>2017-02-14T14:59:16Z</time>
      </trkpt>
      <trkpt lat="49.43702" lon="1.21888">
        <ele>156</ele>
        <time>2017-02-14T14:59:16Z</time>
      </trkpt>
      <trkpt lat="49.43702" lon="1.21894">
        <ele>156</ele>
        <time>2017-02-14T14:59:33Z</time>
      </trkpt>
      <trkpt lat="49.43702" lon="1.21901">
        <ele>156</ele>
        <time>2017-02-14T14:59:33Z</time>
      </trkpt>
      <trkpt lat="49.43702" lon="1.21908">
        <ele>156</ele>
        <time>2017-02-14T14:59:33Z</time>
      </trkpt>
      <trkpt lat="49.43702" lon="1.21915">
        <ele>156</ele>
        <time>2017-02-14T14:59:33Z</time>
      </trkpt>
      <trkpt lat="49.43704" lon="1.21921">
        <ele>156</ele>
        <time>2017-02-14T14:59:48Z</time>
      </trkpt>
      <trkpt lat="49.43704" lon="1.21926">
        <ele>156</ele>
        <time>2017-02-14T14:59:48Z</time>
      </trkpt>
      <trkpt lat="49.43705" lon="1.21935">
        <ele>156</ele>
        <time>2017-02-14T14:59:48Z</time>
      </trkpt>
      <trkpt lat="49.43705" lon="1.21942">
        <ele>156</ele>
        <time>2017-02-14T14:59:48Z</time>
      </trkpt>
      <trkpt lat="49.43705" lon="1.2195">
        <ele>156</ele>
        <time>2017-02-14T15:00:04Z</time>
      </trkpt>
      <trkpt lat="49.43707" lon="1.21959">
        <ele>155</ele>
        <time>2017-02-14T15:00:04Z</time>
      </trkpt>
      <trkpt lat="49.43709" lon="1.21965">
        <ele>158</ele>
        <time>2017-02-14T15:00:04Z</time>
      </trkpt>
      <trkpt lat="49.4371" lon="1.21971">
        <ele>158</ele>
        <time>2017-02-14T15:00:04Z</time>
      </trkpt>
      <trkpt lat="49.43711" lon="1.21978">
        <ele>158</ele>
        <time>2017-02-14T15:00:20Z</time>
      </trkpt>
      <trkpt lat="49.43713" lon="1.21983">
        <ele>158</ele>
        <time>2017-02-14T15:00:20Z</time>
      </trkpt>
      <trkpt lat="49.43715" lon="1.2199">
        <ele>158</ele>
        <time>2017-02-14T15:00:20Z</time>
      </trkpt>
      <trkpt lat="49.43716" lon="1.21998">
        <ele>158</ele>
        <time>2017-02-14T15:00:20Z</time>
      </trkpt>
      <trkpt lat="49.43717" lon="1.22004">
        <ele>158</ele>
        <time>2017-02-14T15:00:37Z</time>
      </trkpt>
      <trkpt lat="49.43716" lon="1.22014">
        <ele>158</ele>
        <time>2017-02-14T15:00:37Z</time>
      </trkpt>
      <trkpt lat="49.43715" lon="1.22022">
        <ele>158</ele>
        <time>2017-02-14T15:00:37Z</time>
      </trkpt>
      <trkpt lat="49.43715" lon="1.22032">
        <ele>158</ele>
        <time>2017-02-14T15:00:37Z</time>
      </trkpt>
      <trkpt lat="49.43715" lon="1.22036">
        <ele>158</ele>
        <time>2017-02-14T15:00:52Z</time>
      </trkpt>
      <trkpt lat="49.43714" lon="1.22044">
        <ele>157</ele>
        <time>2017-02-14T15:00:52Z</time>
      </trkpt>
      <trkpt lat="49.43715" lon="1.22052">
        <ele>157</ele>
        <time>2017-02-14T15:00:52Z</time>
      </trkpt>
      <trkpt lat="49.43715" lon="1.22057">
        <ele>157</ele>
        <time>2017-02-14T15:00:52Z</time>
      </trkpt>
      <trkpt lat="49.43713" lon="1.22065">
        <ele>157</ele>
        <time>2017-02-14T15:01:08Z</time>
      </trkpt>
      <trkpt lat="49.43713" lon="1.22071">
        <ele>157</ele>
        <time>2017-02-14T15:01:08Z</time>
      </trkpt>
      <trkpt lat="49.43713" lon="1.22079">
        <ele>157</ele>
        <time>2017-02-14T15:01:08Z</time>
      </trkpt>
      <trkpt lat="49.43714" lon="1.22087">
        <ele>157</ele>
        <time>2017-02-14T15:01:08Z</time>
      </trkpt>
      <trkpt lat="49.43713" lon="1.22093">
        <ele>157</ele>
        <time>2017-02-14T15:01:25Z</time>
      </trkpt>
      <trkpt lat="49.43714" lon="1.221">
        <ele>157</ele>
        <time>2017-02-14T15:01:25Z</time>
      </trkpt>
      <trkpt lat="49.43716" lon="1.22108">
        <ele>157</ele>
        <time>2017-02-14T15:01:25Z</time>
      </trkpt>
      <trkpt lat="49.43717" lon="1.22116">
        <ele>157</ele>
        <time>2017-02-14T15:01:25Z</time>
      </trkpt>
      <trkpt lat="49.43719" lon="1.22121">
        <ele>157</ele>
        <time>2017-02-14T15:01:40Z</time>
      </trkpt>
      <trkpt lat="49.4372" lon="1.22128">
        <ele>158</ele>
        <time>2017-02-14T15:01:40Z</time>
      </trkpt>
      <trkpt lat="49.43722" lon="1.22137">
        <ele>158</ele>
        <time>2017-02-14T15:01:40Z</time>
      </trkpt>
      <trkpt lat="49.43723" lon="1.22141">
        <ele>158</ele>
        <time>2017-02-14T15:01:40Z</time>
      </trkpt>
      <trkpt lat="49.43724" lon="1.22148">
        <ele>158</ele>
        <time>2017-02-14T15:01:57Z</time>
      </trkpt>
      <trkpt lat="49.43724" lon="1.22156">
        <ele>158</ele>
        <time>2017-02-14T15:01:57Z</time>
      </trkpt>
      <trkpt lat="49.43726" lon="1.22164">
        <ele>158</ele>
        <time>2017-02-14T15:01:57Z</time>
      </trkpt>
      <trkpt lat="49.43727" lon="1.22173">
        <ele>158</ele>
        <time>2017-02-14T15:01:57Z</time>
      </trkpt>
      <trkpt lat="49.43727" lon="1.2218">
        <ele>158</ele>
        <time>2017-02-14T15:02:12Z</time>
      </trkpt>
      <trkpt lat="49.43729" lon="1.22186">
        <ele>158</ele>
        <time>2017-02-14T15:02:12Z</time>
      </trkpt>
      <trkpt lat="49.43731" lon="1.22194">
        <ele>158</ele>
        <time>2017-02-14T15:02:12Z</time>
      </trkpt>
      <trkpt lat="49.43731" lon="1.22202">
        <ele>158</ele>
        <time>2017-02-14T15:02:12Z</time>
      </trkpt>
      <trkpt lat="49.43733" lon="1.22209">
        <ele>159</ele>
        <time>2017-02-14T15:02:28Z</time>
      </trkpt>
      <trkpt lat="49.43735" lon="1.22215">
        <ele>159</ele>
        <time>2017-02-14T15:02:28Z</time>
      </trkpt>
      <trkpt lat="49.43737" lon="1.22224">
        <ele>159</ele>
        <time>2017-02-14T15:02:28Z</time>
      </trkpt>
      <trkpt lat="49.43739" lon="1.22229">
        <ele>159</ele>
        <time>2017-02-14T15:02:28Z</time>
      </trkpt>
      <trkpt lat="49.43741" lon="1.22235">
        <ele>159</ele>
        <time>2017-02-14T15:02:44Z</time>
      </trkpt>
      <trkpt lat="49.43742" lon="1.22242">
        <ele>159</ele>
        <time>2017-02-14T15:02:44Z</time>
      </trkpt>
      <trkpt lat="49.43744" lon="1.22247">
        <ele>159</ele>
        <time>2017-02-14T15:02:44Z</time>
      </trkpt>
      <trkpt lat="49.43748" lon="1.22252">
        <ele>159</ele>
        <time>2017-02-14T15:02:44Z</time>
      </trkpt>
      <trkpt lat="49.43751" lon="1.22258">
        <ele>159</ele>
        <time>2017-02-14T15:03:00Z</time>
      </trkpt>
      <trkpt lat="49.43755" lon="1.22263">
        <ele>159</ele>
        <time>2017-02-14T15:03:00Z</time>
      </trkpt>
      <trkpt lat="49.43758" lon="1.22267">
        <ele>159</ele>
        <time>2017-02-14T15:03:00Z</time>
      </trkpt>
      <trkpt lat="49.43761" lon="1.2227">
        <ele>159</ele>
        <time>2017-02-14T15:03:00Z</time>
      </trkpt>
      <trkpt lat="49.43764" lon="1.22275">
        <ele>159</ele>
        <time>2017-02-14T15:03:17Z</time>
      </trkpt>
      <trkpt lat="49.43768" lon="1.2228">
        <ele>159</ele>
        <time>2017-02-14T15:03:17Z</time>
      </trkpt>
      <trkpt lat="49.43771" lon="1.22286">
        <ele>159</ele>
        <time>2017-02-14T15:03:17Z</time>
      </trkpt>
      <trkpt lat="49.43773" lon="1.22292">
        <ele>159</ele>
        <time>2017-02-14T15:03:17Z</time>
      </trkpt>
      <trkpt lat="49.43773" lon="1.22298">
        <ele>159</ele>
        <time>2017-02-14T15:03:32Z</time>
      </trkpt>
      <trkpt lat="49.43774" lon="1.22304">
        <ele>159</ele>
        <time>2017-02-14T15:03:32Z</time>
      </trkpt>
      <trkpt lat="49.43773" lon="1.22312">
        <ele>159</ele>
        <time>2017-02-14T15:03:32Z</time>
      </trkpt>
      <trkpt lat="49.43773" lon="1.22318">
        <ele>159</ele>
        <time>2017-02-14T15:03:32Z</time>
      </trkpt>
      <trkpt lat="49.43773" lon="1.22327">
        <ele>159</ele>
        <time>2017-02-14T15:03:48Z</time>
      </trkpt>
      <trkpt lat="49.43774" lon="1.22334">
        <ele>159</ele>
        <time>2017-02-14T15:03:48Z</time>
      </trkpt>
      <trkpt lat="49.43774" lon="1.22342">
        <ele>159</ele>
        <time>2017-02-14T15:03:49Z</time>
      </trkpt>
      <trkpt lat="49.43775" lon="1.22349">
        <ele>159</ele>
        <time>2017-02-14T15:03:49Z</time>
      </trkpt>
      <trkpt lat="49.43775" lon="1.22354">
        <ele>159</ele>
        <time>2017-02-14T15:04:04Z</time>
      </trkpt>
      <trkpt lat="49.43776" lon="1.2236">
        <ele>159</ele>
        <time>2017-02-14T15:04:04Z</time>
      </trkpt>
      <trkpt lat="49.43776" lon="1.22367">
        <ele>159</ele>
        <time>2017-02-14T15:04:04Z</time>
      </trkpt>
      <trkpt lat="49.43777" lon="1.22372">
        <ele>159</ele>
        <time>2017-02-14T15:04:04Z</time>
      </trkpt>
      <trkpt lat="49.43778" lon="1.22381">
        <ele>158</ele>
        <time>2017-02-14T15:04:20Z</time>
      </trkpt>
      <trkpt lat="49.43778" lon="1.22386">
        <ele>158</ele>
        <time>2017-02-14T15:04:20Z</time>
      </trkpt>
      <trkpt lat="49.43778" lon="1.22395">
        <ele>158</ele>
        <time>2017-02-14T15:04:20Z</time>
      </trkpt>
      <trkpt lat="49.43779" lon="1.22398">
        <ele>158</ele>
        <time>2017-02-14T15:04:20Z</time>
      </trkpt>
      <trkpt lat="49.43779" lon="1.22409">
        <ele>158</ele>
        <time>2017-02-14T15:04:36Z</time>
      </trkpt>
      <trkpt lat="49.43779" lon="1.22415">
        <ele>158</ele>
        <time>2017-02-14T15:04:36Z</time>
      </trkpt>
      <trkpt lat="49.4378" lon="1.22422">
        <ele>158</ele>
        <time>2017-02-14T15:04:36Z</time>
      </trkpt>
      <trkpt lat="49.4378" lon="1.22429">
        <ele>158</ele>
        <time>2017-02-14T15:04:36Z</time>
      </trkpt>
      <trkpt lat="49.43778" lon="1.22433">
        <ele>158</ele>
        <time>2017-02-14T15:04:52Z</time>
      </trkpt>
      <trkpt lat="49.43779" lon="1.22443">
        <ele>158</ele>
        <time>2017-02-14T15:04:52Z</time>
      </trkpt>
      <trkpt lat="49.43781" lon="1.2245">
        <ele>158</ele>
        <time>2017-02-14T15:04:52Z</time>
      </trkpt>
      <trkpt lat="49.43784" lon="1.2246">
        <ele>158</ele>
        <time>2017-02-14T15:04:52Z</time>
      </trkpt>
      <trkpt lat="49.43784" lon="1.22466">
        <ele>158</ele>
        <time>2017-02-14T15:05:09Z</time>
      </trkpt>
      <trkpt lat="49.43784" lon="1.22473">
        <ele>158</ele>
        <time>2017-02-14T15:05:09Z</time>
      </trkpt>
      <trkpt lat="49.43785" lon="1.22478">
        <ele>158</ele>
        <time>2017-02-14T15:05:09Z</time>
      </trkpt>
      <trkpt lat="49.43785" lon="1.22486">
        <ele>158</ele>
        <time>2017-02-14T15:05:09Z</time>
      </trkpt>
      <trkpt lat="49.43785" lon="1.22493">
        <ele>158</ele>
        <time>2017-02-14T15:05:25Z</time>
      </trkpt>
      <trkpt lat="49.43786" lon="1.22501">
        <ele>158</ele>
        <time>2017-02-14T15:05:25Z</time>
      </trkpt>
      <trkpt lat="49.43786" lon="1.22507">
        <ele>158</ele>
        <time>2017-02-14T15:05:25Z</time>
      </trkpt>
      <trkpt lat="49.43787" lon="1.22514">
        <ele>158</ele>
        <time>2017-02-14T15:05:25Z</time>
      </trkpt>
      <trkpt lat="49.43787" lon="1.22522">
        <ele>158</ele>
        <time>2017-02-14T15:05:40Z</time>
      </trkpt>
      <trkpt lat="49.43788" lon="1.22527">
        <ele>158</ele>
        <time>2017-02-14T15:05:40Z</time>
      </trkpt>
      <trkpt lat="49.43788" lon="1.22534">
        <ele>158</ele>
        <time>2017-02-14T15:05:40Z</time>
      </trkpt>
      <trkpt lat="49.43788" lon="1.22541">
        <ele>158</ele>
        <time>2017-02-14T15:05:40Z</time>
      </trkpt>
      <trkpt lat="49.43786" lon="1.22549">
        <ele>156</ele>
        <time>2017-02-14T15:05:57Z</time>
      </trkpt>
      <trkpt lat="49.43787" lon="1.22557">
        <ele>156</ele>
        <time>2017-02-14T15:05:57Z</time>
      </trkpt>
      <trkpt lat="49.43791" lon="1.22566">
        <ele>156</ele>
        <time>2017-02-14T15:05:57Z</time>
      </trkpt>
      <trkpt lat="49.43791" lon="1.2257">
        <ele>156</ele>
        <time>2017-02-14T15:05:57Z</time>
      </trkpt>
      <trkpt lat="49.43791" lon="1.22576">
        <ele>156</ele>
        <time>2017-02-14T15:06:12Z</time>
      </trkpt>
      <trkpt lat="49.43792" lon="1.22583">
        <ele>156</ele>
        <time>2017-02-14T15:06:12Z</time>
      </trkpt>
      <trkpt lat="49.43791" lon="1.22591">
        <ele>156</ele>
        <time>2017-02-14T15:06:12Z</time>
      </trkpt>
      <trkpt lat="49.43792" lon="1.22598">
        <ele>156</ele>
        <time>2017-02-14T15:06:12Z</time>
      </trkpt>
      <trkpt lat="49.43792" lon="1.22609">
        <ele>156</ele>
        <time>2017-02-14T15:06:29Z</time>
      </trkpt>
      <trkpt lat="49.43792" lon="1.22615">
        <ele>156</ele>
        <time>2017-02-14T15:06:29Z</time>
      </trkpt>
      <trkpt lat="49.43792" lon="1.22622">
        <ele>156</ele>
        <time>2017-02-14T15:06:29Z</time>
      </trkpt>
      <trkpt lat="49.43792" lon="1.22631">
        <ele>154</ele>
        <time>2017-02-14T15:06:29Z</time>
      </trkpt>
      <trkpt lat="49.43792" lon="1.22637">
        <ele>154</ele>
        <time>2017-02-14T15:06:44Z</time>
      </trkpt>
      <trkpt lat="49.43793" lon="1.22646">
        <ele>154</ele>
        <time>2017-02-14T15:06:44Z</time>
      </trkpt>
      <trkpt lat="49.43796" lon="1.22653">
        <ele>154</ele>
        <time>2017-02-14T15:06:44Z</time>
      </trkpt>
      <trkpt lat="49.43797" lon="1.22658">
        <ele>154</ele>
        <time>2017-02-14T15:06:44Z</time>
      </trkpt>
      <trkpt lat="49.43799" lon="1.22667">
        <ele>154</ele>
        <time>2017-02-14T15:07:00Z</time>
      </trkpt>
      <trkpt lat="49.43801" lon="1.22671">
        <ele>154</ele>
        <time>2017-02-14T15:07:00Z</time>
      </trkpt>
      <trkpt lat="49.43803" lon="1.22679">
        <ele>154</ele>
        <time>2017-02-14T15:07:00Z</time>
      </trkpt>
      <trkpt lat="49.43803" lon="1.22685">
        <ele>154</ele>
        <time>2017-02-14T15:07:00Z</time>
      </trkpt>
      <trkpt lat="49.43806" lon="1.22692">
        <ele>154</ele>
        <time>2017-02-14T15:07:16Z</time>
      </trkpt>
      <trkpt lat="49.43808" lon="1.227">
        <ele>154</ele>
        <time>2017-02-14T15:07:16Z</time>
      </trkpt>
      <trkpt lat="49.4381" lon="1.22704">
        <ele>154</ele>
        <time>2017-02-14T15:07:16Z</time>
      </trkpt>
      <trkpt lat="49.43812" lon="1.22711">
        <ele>151</ele>
        <time>2017-02-14T15:07:16Z</time>
      </trkpt>
      <trkpt lat="49.43813" lon="1.22718">
        <ele>151</ele>
        <time>2017-02-14T15:07:33Z</time>
      </trkpt>
      <trkpt lat="49.43815" lon="1.22725">
        <ele>151</ele>
        <time>2017-02-14T15:07:33Z</time>
      </trkpt>
      <trkpt lat="49.43816" lon="1.22734">
        <ele>151</ele>
        <time>2017-02-14T15:07:33Z</time>
      </trkpt>
      <trkpt lat="49.43817" lon="1.22741">
        <ele>151</ele>
        <time>2017-02-14T15:07:33Z</time>
      </trkpt>
      <trkpt lat="49.43818" lon="1.22748">
        <ele>151</ele>
        <time>2017-02-14T15:07:49Z</time>
      </trkpt>
      <trkpt lat="49.43818" lon="1.22754">
        <ele>151</ele>
        <time>2017-02-14T15:07:49Z</time>
      </trkpt>
      <trkpt lat="49.43819" lon="1.22762">
        <ele>151</ele>
        <time>2017-02-14T15:07:49Z</time>
      </trkpt>
      <trkpt lat="49.43821" lon="1.22771">
        <ele>151</ele>
        <time>2017-02-14T15:07:49Z</time>
      </trkpt>
      <trkpt lat="49.43823" lon="1.22777">
        <ele>151</ele>
        <time>2017-02-14T15:08:04Z</time>
      </trkpt>
      <trkpt lat="49.43825" lon="1.22784">
        <ele>151</ele>
        <time>2017-02-14T15:08:04Z</time>
      </trkpt>
      <trkpt lat="49.43826" lon="1.22791">
        <ele>151</ele>
        <time>2017-02-14T15:08:04Z</time>
      </trkpt>
      <trkpt lat="49.43827" lon="1.22798">
        <ele>151</ele>
        <time>2017-02-14T15:08:04Z</time>
      </trkpt>
      <trkpt lat="49.43828" lon="1.22805">
        <ele>151</ele>
        <time>2017-02-14T15:08:21Z</time>
      </trkpt>
      <trkpt lat="49.4383" lon="1.22812">
        <ele>151</ele>
        <time>2017-02-14T15:08:21Z</time>
      </trkpt>
      <trkpt lat="49.43832" lon="1.22819">
        <ele>151</ele>
        <time>2017-02-14T15:08:21Z</time>
      </trkpt>
      <trkpt lat="49.43833" lon="1.22826">
        <ele>151</ele>
        <time>2017-02-14T15:08:21Z</time>
      </trkpt>
      <trkpt lat="49.43834" lon="1.22832">
        <ele>151</ele>
        <time>2017-02-14T15:08:36Z</time>
      </trkpt>
      <trkpt lat="49.43837" lon="1.22842">
        <ele>151</ele>
        <time>2017-02-14T15:08:36Z</time>
      </trkpt>
      <trkpt lat="49.43837" lon="1.22848">
        <ele>151</ele>
        <time>2017-02-14T15:08:36Z</time>
      </trkpt>
      <trkpt lat="49.43838" lon="1.22855">
        <ele>151</ele>
        <time>2017-02-14T15:08:36Z</time>
      </trkpt>
      <trkpt lat="49.4384" lon="1.22862">
        <ele>151</ele>
        <time>2017-02-14T15:08:52Z</time>
      </trkpt>
      <trkpt lat="49.43843" lon="1.22871">
        <ele>151</ele>
        <time>2017-02-14T15:08:52Z</time>
      </trkpt>
      <trkpt lat="49.43844" lon="1.22877">
        <ele>150</ele>
        <time>2017-02-14T15:08:52Z</time>
      </trkpt>
      <trkpt lat="49.43845" lon="1.22881">
        <ele>150</ele>
        <time>2017-02-14T15:08:52Z</time>
      </trkpt>
      <trkpt lat="49.43847" lon="1.22885">
        <ele>150</ele>
        <time>2017-02-14T15:09:09Z</time>
      </trkpt>
      <trkpt lat="49.43849" lon="1.22893">
        <ele>150</ele>
        <time>2017-02-14T15:09:09Z</time>
      </trkpt>
      <trkpt lat="49.43851" lon="1.22902">
        <ele>150</ele>
        <time>2017-02-14T15:09:09Z</time>
      </trkpt>
      <trkpt lat="49.43853" lon="1.22907">
        <ele>150</ele>
        <time>2017-02-14T15:09:09Z</time>
      </trkpt>
      <trkpt lat="49.43854" lon="1.22914">
        <ele>150</ele>
        <time>2017-02-14T15:09:24Z</time>
      </trkpt>
      <trkpt lat="49.43856" lon="1.22921">
        <ele>150</ele>
        <time>2017-02-14T15:09:24Z</time>
      </trkpt>
      <trkpt lat="49.43858" lon="1.22929">
        <ele>150</ele>
        <time>2017-02-14T15:09:24Z</time>
      </trkpt>
      <trkpt lat="49.4386" lon="1.22935">
        <ele>150</ele>
        <time>2017-02-14T15:09:24Z</time>
      </trkpt>
      <trkpt lat="49.43861" lon="1.22944">
        <ele>150</ele>
        <time>2017-02-14T15:09:40Z</time>
      </trkpt>
      <trkpt lat="49.43862" lon="1.2295">
        <ele>150</ele>
        <time>2017-02-14T15:09:41Z</time>
      </trkpt>
      <trkpt lat="49.43862" lon="1.22958">
        <ele>150</ele>
        <time>2017-02-14T15:09:41Z</time>
      </trkpt>
      <trkpt lat="49.43862" lon="1.22965">
        <ele>149</ele>
        <time>2017-02-14T15:09:41Z</time>
      </trkpt>
      <trkpt lat="49.43863" lon="1.22973">
        <ele>149</ele>
        <time>2017-02-14T15:09:56Z</time>
      </trkpt>
      <trkpt lat="49.43862" lon="1.22982">
        <ele>149</ele>
        <time>2017-02-14T15:09:56Z</time>
      </trkpt>
      <trkpt lat="49.43863" lon="1.22991">
        <ele>149</ele>
        <time>2017-02-14T15:09:56Z</time>
      </trkpt>
      <trkpt lat="49.43862" lon="1.23">
        <ele>149</ele>
        <time>2017-02-14T15:09:56Z</time>
      </trkpt>
      <trkpt lat="49.43862" lon="1.23007">
        <ele>149</ele>
        <time>2017-02-14T15:10:12Z</time>
      </trkpt>
      <trkpt lat="49.4386" lon="1.23015">
        <ele>149</ele>
        <time>2017-02-14T15:10:12Z</time>
      </trkpt>
      <trkpt lat="49.43858" lon="1.23022">
        <ele>149</ele>
        <time>2017-02-14T15:10:12Z</time>
      </trkpt>
      <trkpt lat="49.43856" lon="1.23028">
        <ele>149</ele>
        <time>2017-02-14T15:10:12Z</time>
      </trkpt>
      <trkpt lat="49.43854" lon="1.23034">
        <ele>149</ele>
        <time>2017-02-14T15:10:28Z</time>
      </trkpt>
      <trkpt lat="49.43853" lon="1.23041">
        <ele>149</ele>
        <time>2017-02-14T15:10:28Z</time>
      </trkpt>
      <trkpt lat="49.4385" lon="1.23048">
        <ele>147</ele>
        <time>2017-02-14T15:10:28Z</time>
      </trkpt>
      <trkpt lat="49.43848" lon="1.23053">
        <ele>147</ele>
        <time>2017-02-14T15:10:28Z</time>
      </trkpt>
      <trkpt lat="49.43846" lon="1.2306">
        <ele>147</ele>
        <time>2017-02-14T15:10:46Z</time>
      </trkpt>
      <trkpt lat="49.43843" lon="1.23068">
        <ele>147</ele>
        <time>2017-02-14T15:10:46Z</time>
      </trkpt>
      <trkpt lat="49.43841" lon="1.23076">
        <ele>147</ele>
        <time>2017-02-14T15:10:46Z</time>
      </trkpt>
      <trkpt lat="49.43839" lon="1.23082">
        <ele>147</ele>
        <time>2017-02-14T15:10:46Z</time>
      </trkpt>
      <trkpt lat="49.43838" lon="1.23085">
        <ele>147</ele>
        <time>2017-02-14T15:11:00Z</time>
      </trkpt>
      <trkpt lat="49.43834" lon="1.23092">
        <ele>147</ele>
        <time>2017-02-14T15:11:00Z</time>
      </trkpt>
      <trkpt lat="49.43831" lon="1.23099">
        <ele>147</ele>
        <time>2017-02-14T15:11:00Z</time>
      </trkpt>
      <trkpt lat="49.43829" lon="1.23104">
        <ele>147</ele>
        <time>2017-02-14T15:11:00Z</time>
      </trkpt>
      <trkpt lat="49.43824" lon="1.23116">
        <ele>147</ele>
        <time>2017-02-14T15:11:33Z</time>
      </trkpt>
      <trkpt lat="49.43824" lon="1.23119">
        <ele>147</ele>
        <time>2017-02-14T15:11:33Z</time>
      </trkpt>
      <trkpt lat="49.43823" lon="1.23126">
        <ele>145</ele>
        <time>2017-02-14T15:11:33Z</time>
      </trkpt>
      <trkpt lat="49.4382" lon="1.23131">
        <ele>145</ele>
        <time>2017-02-14T15:11:33Z</time>
      </trkpt>
      <trkpt lat="49.43816" lon="1.2314">
        <ele>145</ele>
        <time>2017-02-14T15:11:33Z</time>
      </trkpt>
      <trkpt lat="49.43813" lon="1.23144">
        <ele>145</ele>
        <time>2017-02-14T15:11:48Z</time>
      </trkpt>
      <trkpt lat="49.4381" lon="1.23149">
        <ele>145</ele>
        <time>2017-02-14T15:11:48Z</time>
      </trkpt>
      <trkpt lat="49.43807" lon="1.23155">
        <ele>145</ele>
        <time>2017-02-14T15:11:48Z</time>
      </trkpt>
      <trkpt lat="49.43805" lon="1.23163">
        <ele>145</ele>
        <time>2017-02-14T15:11:48Z</time>
      </trkpt>
      <trkpt lat="49.43804" lon="1.23167">
        <ele>145</ele>
        <time>2017-02-14T15:12:05Z</time>
      </trkpt>
      <trkpt lat="49.43803" lon="1.23171">
        <ele>145</ele>
        <time>2017-02-14T15:12:05Z</time>
      </trkpt>
      <trkpt lat="49.43802" lon="1.23177">
        <ele>145</ele>
        <time>2017-02-14T15:12:05Z</time>
      </trkpt>
      <trkpt lat="49.438" lon="1.23181">
        <ele>145</ele>
        <time>2017-02-14T15:12:05Z</time>
      </trkpt>
      <trkpt lat="49.43797" lon="1.23188">
        <ele>145</ele>
        <time>2017-02-14T15:12:20Z</time>
      </trkpt>
      <trkpt lat="49.43794" lon="1.23194">
        <ele>145</ele>
        <time>2017-02-14T15:12:20Z</time>
      </trkpt>
      <trkpt lat="49.43793" lon="1.23198">
        <ele>145</ele>
        <time>2017-02-14T15:12:20Z</time>
      </trkpt>
      <trkpt lat="49.43791" lon="1.23203">
        <ele>142</ele>
        <time>2017-02-14T15:12:20Z</time>
      </trkpt>
      <trkpt lat="49.43788" lon="1.23208">
        <ele>142</ele>
        <time>2017-02-14T15:12:36Z</time>
      </trkpt>
      <trkpt lat="49.43787" lon="1.23216">
        <ele>138</ele>
        <time>2017-02-14T15:12:36Z</time>
      </trkpt>
      <trkpt lat="49.43785" lon="1.23223">
        <ele>138</ele>
        <time>2017-02-14T15:12:36Z</time>
      </trkpt>
      <trkpt lat="49.43782" lon="1.23229">
        <ele>138</ele>
        <time>2017-02-14T15:12:36Z</time>
      </trkpt>
      <trkpt lat="49.4378" lon="1.23236">
        <ele>138</ele>
        <time>2017-02-14T15:12:52Z</time>
      </trkpt>
      <trkpt lat="49.43778" lon="1.23243">
        <ele>138</ele>
        <time>2017-02-14T15:12:52Z</time>
      </trkpt>
      <trkpt lat="49.43776" lon="1.23249">
        <ele>138</ele>
        <time>2017-02-14T15:12:52Z</time>
      </trkpt>
      <trkpt lat="49.43775" lon="1.23257">
        <ele>138</ele>
        <time>2017-02-14T15:12:52Z</time>
      </trkpt>
      <trkpt lat="49.43774" lon="1.23262">
        <ele>138</ele>
        <time>2017-02-14T15:13:08Z</time>
      </trkpt>
      <trkpt lat="49.43772" lon="1.23268">
        <ele>138</ele>
        <time>2017-02-14T15:13:08Z</time>
      </trkpt>
      <trkpt lat="49.43771" lon="1.23273">
        <ele>138</ele>
        <time>2017-02-14T15:13:08Z</time>
      </trkpt>
      <trkpt lat="49.4377" lon="1.2328">
        <ele>138</ele>
        <time>2017-02-14T15:13:08Z</time>
      </trkpt>
      <trkpt lat="49.43769" lon="1.23288">
        <ele>138</ele>
        <time>2017-02-14T15:13:25Z</time>
      </trkpt>
      <trkpt lat="49.43768" lon="1.23295">
        <ele>136</ele>
        <time>2017-02-14T15:13:25Z</time>
      </trkpt>
      <trkpt lat="49.43767" lon="1.23302">
        <ele>136</ele>
        <time>2017-02-14T15:13:25Z</time>
      </trkpt>
      <trkpt lat="49.43766" lon="1.23309">
        <ele>136</ele>
        <time>2017-02-14T15:13:25Z</time>
      </trkpt>
      <trkpt lat="49.43765" lon="1.23316">
        <ele>136</ele>
        <time>2017-02-14T15:13:40Z</time>
      </trkpt>
      <trkpt lat="49.43764" lon="1.23322">
        <ele>136</ele>
        <time>2017-02-14T15:13:40Z</time>
      </trkpt>
      <trkpt lat="49.43764" lon="1.23328">
        <ele>136</ele>
        <time>2017-02-14T15:13:40Z</time>
      </trkpt>
      <trkpt lat="49.43762" lon="1.23335">
        <ele>136</ele>
        <time>2017-02-14T15:13:40Z</time>
      </trkpt>
      <trkpt lat="49.4376" lon="1.23342">
        <ele>136</ele>
        <time>2017-02-14T15:13:56Z</time>
      </trkpt>
      <trkpt lat="49.43758" lon="1.2335">
        <ele>136</ele>
        <time>2017-02-14T15:13:56Z</time>
      </trkpt>
      <trkpt lat="49.43756" lon="1.23354">
        <ele>136</ele>
        <time>2017-02-14T15:13:56Z</time>
      </trkpt>
      <trkpt lat="49.43755" lon="1.23358">
        <ele>136</ele>
        <time>2017-02-14T15:13:56Z</time>
      </trkpt>
      <trkpt lat="49.43756" lon="1.23363">
        <ele>136</ele>
        <time>2017-02-14T15:14:12Z</time>
      </trkpt>
      <trkpt lat="49.43754" lon="1.2337">
        <ele>136</ele>
        <time>2017-02-14T15:14:12Z</time>
      </trkpt>
      <trkpt lat="49.43755" lon="1.23375">
        <ele>134</ele>
        <time>2017-02-14T15:14:12Z</time>
      </trkpt>
      <trkpt lat="49.43753" lon="1.23381">
        <ele>134</ele>
        <time>2017-02-14T15:14:12Z</time>
      </trkpt>
      <trkpt lat="49.43753" lon="1.23388">
        <ele>134</ele>
        <time>2017-02-14T15:14:28Z</time>
      </trkpt>
      <trkpt lat="49.43751" lon="1.23396">
        <ele>134</ele>
        <time>2017-02-14T15:14:28Z</time>
      </trkpt>
      <trkpt lat="49.43752" lon="1.23405">
        <ele>134</ele>
        <time>2017-02-14T15:14:28Z</time>
      </trkpt>
      <trkpt lat="49.43752" lon="1.2341">
        <ele>134</ele>
        <time>2017-02-14T15:14:28Z</time>
      </trkpt>
      <trkpt lat="49.43751" lon="1.23418">
        <ele>134</ele>
        <time>2017-02-14T15:14:44Z</time>
      </trkpt>
      <trkpt lat="49.43748" lon="1.23424">
        <ele>134</ele>
        <time>2017-02-14T15:14:44Z</time>
      </trkpt>
      <trkpt lat="49.43744" lon="1.23427">
        <ele>134</ele>
        <time>2017-02-14T15:14:44Z</time>
      </trkpt>
      <trkpt lat="49.4374" lon="1.23427">
        <ele>134</ele>
        <time>2017-02-14T15:14:44Z</time>
      </trkpt>
      <trkpt lat="49.43736" lon="1.23431">
        <ele>134</ele>
        <time>2017-02-14T15:15:01Z</time>
      </trkpt>
      <trkpt lat="49.43735" lon="1.23445">
        <ele>134</ele>
        <time>2017-02-14T15:15:01Z</time>
      </trkpt>
      <trkpt lat="49.43732" lon="1.23453">
        <ele>134</ele>
        <time>2017-02-14T15:15:01Z</time>
      </trkpt>
      <trkpt lat="49.43721" lon="1.23435">
        <ele>134</ele>
        <time>2017-02-14T15:15:01Z</time>
      </trkpt>
      <trkpt lat="49.43716" lon="1.23433">
        <ele>134</ele>
        <time>2017-02-14T15:15:16Z</time>
      </trkpt>
      <trkpt lat="49.43714" lon="1.23437">
        <ele>134</ele>
        <time>2017-02-14T15:15:16Z</time>
      </trkpt>
      <trkpt lat="49.43711" lon="1.23443">
        <ele>134</ele>
        <time>2017-02-14T15:15:16Z</time>
      </trkpt>
      <trkpt lat="49.43706" lon="1.2344">
        <ele>134</ele>
        <time>2017-02-14T15:15:16Z</time>
      </trkpt>
      <trkpt lat="49.43699" lon="1.23439">
        <ele>134</ele>
        <time>2017-02-14T15:15:32Z</time>
      </trkpt>
      <trkpt lat="49.43694" lon="1.23436">
        <ele>134</ele>
        <time>2017-02-14T15:15:32Z</time>
      </trkpt>
      <trkpt lat="49.43691" lon="1.23442">
        <ele>134</ele>
        <time>2017-02-14T15:15:32Z</time>
      </trkpt>
      <trkpt lat="49.43692" lon="1.23457">
        <ele>134</ele>
        <time>2017-02-14T15:15:32Z</time>
      </trkpt>
      <trkpt lat="49.43687" lon="1.23464">
        <ele>129</ele>
        <time>2017-02-14T15:15:49Z</time>
      </trkpt>
      <trkpt lat="49.43689" lon="1.23474">
        <ele>129</ele>
        <time>2017-02-14T15:15:49Z</time>
      </trkpt>
      <trkpt lat="49.4369" lon="1.23481">
        <ele>129</ele>
        <time>2017-02-14T15:15:49Z</time>
      </trkpt>
      <trkpt lat="49.4369" lon="1.23489">
        <ele>129</ele>
        <time>2017-02-14T15:15:49Z</time>
      </trkpt>
      <trkpt lat="49.43685" lon="1.23494">
        <ele>129</ele>
        <time>2017-02-14T15:16:04Z</time>
      </trkpt>
      <trkpt lat="49.43679" lon="1.23499">
        <ele>129</ele>
        <time>2017-02-14T15:16:04Z</time>
      </trkpt>
      <trkpt lat="49.43676" lon="1.23503">
        <ele>129</ele>
        <time>2017-02-14T15:16:04Z</time>
      </trkpt>
      <trkpt lat="49.43675" lon="1.23509">
        <ele>129</ele>
        <time>2017-02-14T15:16:04Z</time>
      </trkpt>
      <trkpt lat="49.43675" lon="1.23516">
        <ele>129</ele>
        <time>2017-02-14T15:16:20Z</time>
      </trkpt>
      <trkpt lat="49.43674" lon="1.23523">
        <ele>129</ele>
        <time>2017-02-14T15:16:20Z</time>
      </trkpt>
      <trkpt lat="49.43674" lon="1.23529">
        <ele>129</ele>
        <time>2017-02-14T15:16:20Z</time>
      </trkpt>
      <trkpt lat="49.43674" lon="1.23534">
        <ele>129</ele>
        <time>2017-02-14T15:16:20Z</time>
      </trkpt>
      <trkpt lat="49.43673" lon="1.23539">
        <ele>129</ele>
        <time>2017-02-14T15:16:38Z</time>
      </trkpt>
      <trkpt lat="49.43672" lon="1.23546">
        <ele>123</ele>
        <time>2017-02-14T15:16:38Z</time>
      </trkpt>
      <trkpt lat="49.4367" lon="1.23551">
        <ele>123</ele>
        <time>2017-02-14T15:16:38Z</time>
      </trkpt>
      <trkpt lat="49.43662" lon="1.23554">
        <ele>123</ele>
        <time>2017-02-14T15:16:38Z</time>
      </trkpt>
      <trkpt lat="49.43655" lon="1.23553">
        <ele>123</ele>
        <time>2017-02-14T15:16:52Z</time>
      </trkpt>
      <trkpt lat="49.43649" lon="1.23553">
        <ele>123</ele>
        <time>2017-02-14T15:16:52Z</time>
      </trkpt>
      <trkpt lat="49.43647" lon="1.23555">
        <ele>123</ele>
        <time>2017-02-14T15:16:52Z</time>
      </trkpt>
      <trkpt lat="49.43642" lon="1.23559">
        <ele>123</ele>
        <time>2017-02-14T15:16:52Z</time>
      </trkpt>
      <trkpt lat="49.43639" lon="1.23564">
        <ele>123</ele>
        <time>2017-02-14T15:17:08Z</time>
      </trkpt>
      <trkpt lat="49.43635" lon="1.23567">
        <ele>123</ele>
        <time>2017-02-14T15:17:08Z</time>
      </trkpt>
      <trkpt lat="49.4363" lon="1.23565">
        <ele>123</ele>
        <time>2017-02-14T15:17:08Z</time>
      </trkpt>
      <trkpt lat="49.43625" lon="1.23561">
        <ele>120</ele>
        <time>2017-02-14T15:17:08Z</time>
      </trkpt>
      <trkpt lat="49.43621" lon="1.23563">
        <ele>120</ele>
        <time>2017-02-14T15:17:25Z</time>
      </trkpt>
      <trkpt lat="49.43615" lon="1.23569">
        <ele>120</ele>
        <time>2017-02-14T15:17:25Z</time>
      </trkpt>
      <trkpt lat="49.43612" lon="1.23574">
        <ele>120</ele>
        <time>2017-02-14T15:17:25Z</time>
      </trkpt>
      <trkpt lat="49.43606" lon="1.23572">
        <ele>120</ele>
        <time>2017-02-14T15:17:25Z</time>
      </trkpt>
      <trkpt lat="49.436" lon="1.23571">
        <ele>120</ele>
        <time>2017-02-14T15:17:41Z</time>
      </trkpt>
      <trkpt lat="49.43595" lon="1.23571">
        <ele>120</ele>
        <time>2017-02-14T15:17:41Z</time>
      </trkpt>
      <trkpt lat="49.43592" lon="1.23573">
        <ele>120</ele>
        <time>2017-02-14T15:17:41Z</time>
      </trkpt>
      <trkpt lat="49.43585" lon="1.23575">
        <ele>120</ele>
        <time>2017-02-14T15:17:41Z</time>
      </trkpt>
      <trkpt lat="49.43581" lon="1.23577">
        <ele>120</ele>
        <time>2017-02-14T15:17:56Z</time>
      </trkpt>
      <trkpt lat="49.43578" lon="1.23579">
        <ele>120</ele>
        <time>2017-02-14T15:17:56Z</time>
      </trkpt>
      <trkpt lat="49.43572" lon="1.23583">
        <ele>120</ele>
        <time>2017-02-14T15:17:56Z</time>
      </trkpt>
      <trkpt lat="49.43569" lon="1.23585">
        <ele>120</ele>
        <time>2017-02-14T15:17:57Z</time>
      </trkpt>
      <trkpt lat="49.43563" lon="1.23586">
        <ele>120</ele>
        <time>2017-02-14T15:18:41Z</time>
      </trkpt>
      <trkpt lat="49.43559" lon="1.2359">
        <ele>120</ele>
        <time>2017-02-14T15:18:41Z</time>
      </trkpt>
      <trkpt lat="49.43554" lon="1.23593">
        <ele>120</ele>
        <time>2017-02-14T15:18:41Z</time>
      </trkpt>
      <trkpt lat="49.43548" lon="1.23595">
        <ele>120</ele>
        <time>2017-02-14T15:18:41Z</time>
      </trkpt>
      <trkpt lat="49.43539" lon="1.23589">
        <ele>114</ele>
        <time>2017-02-14T15:18:41Z</time>
      </trkpt>
      <trkpt lat="49.43528" lon="1.23582">
        <ele>114</ele>
        <time>2017-02-14T15:18:57Z</time>
      </trkpt>
      <trkpt lat="49.43517" lon="1.23572">
        <ele>114</ele>
        <time>2017-02-14T15:18:57Z</time>
      </trkpt>
      <trkpt lat="49.43508" lon="1.23565">
        <ele>114</ele>
        <time>2017-02-14T15:18:57Z</time>
      </trkpt>
      <trkpt lat="49.43499" lon="1.23565">
        <ele>114</ele>
        <time>2017-02-14T15:18:57Z</time>
      </trkpt>
      <trkpt lat="49.43495" lon="1.23568">
        <ele>114</ele>
        <time>2017-02-14T15:19:13Z</time>
      </trkpt>
      <trkpt lat="49.4349" lon="1.23572">
        <ele>114</ele>
        <time>2017-02-14T15:19:13Z</time>
      </trkpt>
      <trkpt lat="49.43487" lon="1.23576">
        <ele>114</ele>
        <time>2017-02-14T15:19:13Z</time>
      </trkpt>
      <trkpt lat="49.43483" lon="1.23579">
        <ele>114</ele>
        <time>2017-02-14T15:19:13Z</time>
      </trkpt>
      <trkpt lat="49.43481" lon="1.23585">
        <ele>114</ele>
        <time>2017-02-14T15:19:28Z</time>
      </trkpt>
      <trkpt lat="49.43481" lon="1.23593">
        <ele>114</ele>
        <time>2017-02-14T15:19:28Z</time>
      </trkpt>
      <trkpt lat="49.43479" lon="1.23601">
        <ele>114</ele>
        <time>2017-02-14T15:19:28Z</time>
      </trkpt>
      <trkpt lat="49.43478" lon="1.23601">
        <ele>114</ele>
        <time>2017-02-14T15:19:28Z</time>
      </trkpt>
      <trkpt lat="49.43476" lon="1.23602">
        <ele>114</ele>
        <time>2017-02-14T15:19:44Z</time>
      </trkpt>
      <trkpt lat="49.43473" lon="1.23607">
        <ele>114</ele>
        <time>2017-02-14T15:19:44Z</time>
      </trkpt>
      <trkpt lat="49.43471" lon="1.23615">
        <ele>114</ele>
        <time>2017-02-14T15:19:44Z</time>
      </trkpt>
      <trkpt lat="49.43469" lon="1.2362">
        <ele>114</ele>
        <time>2017-02-14T15:19:44Z</time>
      </trkpt>
      <trkpt lat="49.43437" lon="1.23624">
        <ele>108</ele>
        <time>2017-02-14T15:20:37Z</time>
      </trkpt>
      <trkpt lat="49.43437" lon="1.23637">
        <ele>103</ele>
        <time>2017-02-14T15:20:37Z</time>
      </trkpt>
      <trkpt lat="49.43431" lon="1.23647">
        <ele>103</ele>
        <time>2017-02-14T15:20:37Z</time>
      </trkpt>
      <trkpt lat="49.43426" lon="1.23657">
        <ele>103</ele>
        <time>2017-02-14T15:20:37Z</time>
      </trkpt>
      <trkpt lat="49.43423" lon="1.23668">
        <ele>103</ele>
        <time>2017-02-14T15:20:37Z</time>
      </trkpt>
      <trkpt lat="49.43421" lon="1.23676">
        <ele>103</ele>
        <time>2017-02-14T15:20:52Z</time>
      </trkpt>
      <trkpt lat="49.43419" lon="1.23686">
        <ele>103</ele>
        <time>2017-02-14T15:20:52Z</time>
      </trkpt>
      <trkpt lat="49.43417" lon="1.23692">
        <ele>103</ele>
        <time>2017-02-14T15:20:52Z</time>
      </trkpt>
      <trkpt lat="49.43413" lon="1.23697">
        <ele>103</ele>
        <time>2017-02-14T15:20:52Z</time>
      </trkpt>
      <trkpt lat="49.43407" lon="1.23703">
        <ele>103</ele>
        <time>2017-02-14T15:21:08Z</time>
      </trkpt>
      <trkpt lat="49.43403" lon="1.23708">
        <ele>103</ele>
        <time>2017-02-14T15:21:08Z</time>
      </trkpt>
      <trkpt lat="49.434" lon="1.23713">
        <ele>101</ele>
        <time>2017-02-14T15:21:08Z</time>
      </trkpt>
      <trkpt lat="49.43396" lon="1.23722">
        <ele>101</ele>
        <time>2017-02-14T15:21:08Z</time>
      </trkpt>
      <trkpt lat="49.43394" lon="1.23728">
        <ele>101</ele>
        <time>2017-02-14T15:21:24Z</time>
      </trkpt>
      <trkpt lat="49.43389" lon="1.23735">
        <ele>101</ele>
        <time>2017-02-14T15:21:24Z</time>
      </trkpt>
      <trkpt lat="49.43385" lon="1.23741">
        <ele>101</ele>
        <time>2017-02-14T15:21:24Z</time>
      </trkpt>
      <trkpt lat="49.43382" lon="1.23748">
        <ele>101</ele>
        <time>2017-02-14T15:21:24Z</time>
      </trkpt>
      <trkpt lat="49.43379" lon="1.23752">
        <ele>101</ele>
        <time>2017-02-14T15:21:40Z</time>
      </trkpt>
      <trkpt lat="49.43378" lon="1.23755">
        <ele>101</ele>
        <time>2017-02-14T15:21:40Z</time>
      </trkpt>
      <trkpt lat="49.43375" lon="1.23758">
        <ele>99</ele>
        <time>2017-02-14T15:21:40Z</time>
      </trkpt>
      <trkpt lat="49.43369" lon="1.23767">
        <ele>99</ele>
        <time>2017-02-14T15:21:40Z</time>
      </trkpt>
      <trkpt lat="49.43365" lon="1.23762">
        <ele>99</ele>
        <time>2017-02-14T15:28:16Z</time>
      </trkpt>
      <trkpt lat="49.43365" lon="1.23762">
        <ele>99</ele>
        <time>2017-02-14T15:28:16Z</time>
      </trkpt>
      <trkpt lat="49.43365" lon="1.23762">
        <ele>99</ele>
        <time>2017-02-14T15:28:16Z</time>
      </trkpt>
      <trkpt lat="49.43355" lon="1.23762">
        <ele>99</ele>
        <time>2017-02-14T15:28:16Z</time>
      </trkpt>
      <trkpt lat="49.43347" lon="1.23759">
        <ele>99</ele>
        <time>2017-02-14T15:28:16Z</time>
      </trkpt>
      <trkpt lat="49.43343" lon="1.23758">
        <ele>99</ele>
        <time>2017-02-14T15:28:32Z</time>
      </trkpt>
      <trkpt lat="49.43339" lon="1.23759">
        <ele>99</ele>
        <time>2017-02-14T15:28:32Z</time>
      </trkpt>
      <trkpt lat="49.43336" lon="1.2376">
        <ele>99</ele>
        <time>2017-02-14T15:28:32Z</time>
      </trkpt>
      <trkpt lat="49.43333" lon="1.23762">
        <ele>99</ele>
        <time>2017-02-14T15:28:32Z</time>
      </trkpt>
      <trkpt lat="49.43328" lon="1.23764">
        <ele>99</ele>
        <time>2017-02-14T15:28:48Z</time>
      </trkpt>
      <trkpt lat="49.43322" lon="1.23764">
        <ele>99</ele>
        <time>2017-02-14T15:28:48Z</time>
      </trkpt>
      <trkpt lat="49.43315" lon="1.23761">
        <ele>99</ele>
        <time>2017-02-14T15:28:48Z</time>
      </trkpt>
      <trkpt lat="49.43312" lon="1.2376">
        <ele>99</ele>
        <time>2017-02-14T15:28:48Z</time>
      </trkpt>
      <trkpt lat="49.43308" lon="1.23759">
        <ele>99</ele>
        <time>2017-02-14T15:29:04Z</time>
      </trkpt>
      <trkpt lat="49.43303" lon="1.2376">
        <ele>99</ele>
        <time>2017-02-14T15:29:04Z</time>
      </trkpt>
      <trkpt lat="49.43299" lon="1.23762">
        <ele>99</ele>
        <time>2017-02-14T15:29:04Z</time>
      </trkpt>
      <trkpt lat="49.43295" lon="1.23762">
        <ele>99</ele>
        <time>2017-02-14T15:29:04Z</time>
      </trkpt>
      <trkpt lat="49.43292" lon="1.23762">
        <ele>99</ele>
        <time>2017-02-14T15:29:20Z</time>
      </trkpt>
      <trkpt lat="49.43286" lon="1.23761">
        <ele>99</ele>
        <time>2017-02-14T15:29:20Z</time>
      </trkpt>
      <trkpt lat="49.43278" lon="1.23763">
        <ele>99</ele>
        <time>2017-02-14T15:29:21Z</time>
      </trkpt>
      <trkpt lat="49.43275" lon="1.23764">
        <ele>99</ele>
        <time>2017-02-14T15:29:21Z</time>
      </trkpt>
      <trkpt lat="49.4327" lon="1.23766">
        <ele>99</ele>
        <time>2017-02-14T15:29:36Z</time>
      </trkpt>
      <trkpt lat="49.43267" lon="1.23763">
        <ele>99</ele>
        <time>2017-02-14T15:29:36Z</time>
      </trkpt>
      <trkpt lat="49.43263" lon="1.2376">
        <ele>99</ele>
        <time>2017-02-14T15:29:36Z</time>
      </trkpt>
      <trkpt lat="49.43259" lon="1.23758">
        <ele>99</ele>
        <time>2017-02-14T15:29:36Z</time>
      </trkpt>
      <trkpt lat="49.43255" lon="1.23759">
        <ele>99</ele>
        <time>2017-02-14T15:29:53Z</time>
      </trkpt>
      <trkpt lat="49.4325" lon="1.23758">
        <ele>99</ele>
        <time>2017-02-14T15:29:53Z</time>
      </trkpt>
      <trkpt lat="49.43245" lon="1.23757">
        <ele>99</ele>
        <time>2017-02-14T15:29:53Z</time>
      </trkpt>
      <trkpt lat="49.43241" lon="1.23757">
        <ele>99</ele>
        <time>2017-02-14T15:29:53Z</time>
      </trkpt>
      <trkpt lat="49.43237" lon="1.23757">
        <ele>99</ele>
        <time>2017-02-14T15:30:09Z</time>
      </trkpt>
      <trkpt lat="49.43233" lon="1.23756">
        <ele>99</ele>
        <time>2017-02-14T15:30:09Z</time>
      </trkpt>
      <trkpt lat="49.43229" lon="1.23757">
        <ele>99</ele>
        <time>2017-02-14T15:30:09Z</time>
      </trkpt>
      <trkpt lat="49.43224" lon="1.23758">
        <ele>99</ele>
        <time>2017-02-14T15:30:09Z</time>
      </trkpt>
      <trkpt lat="49.4322" lon="1.2376">
        <ele>99</ele>
        <time>2017-02-14T15:30:24Z</time>
      </trkpt>
      <trkpt lat="49.43213" lon="1.23757">
        <ele>99</ele>
        <time>2017-02-14T15:30:24Z</time>
      </trkpt>
      <trkpt lat="49.43208" lon="1.23754">
        <ele>99</ele>
        <time>2017-02-14T15:30:24Z</time>
      </trkpt>
      <trkpt lat="49.43204" lon="1.23751">
        <ele>99</ele>
        <time>2017-02-14T15:30:24Z</time>
      </trkpt>
      <trkpt lat="49.43199" lon="1.23748">
        <ele>99</ele>
        <time>2017-02-14T15:30:41Z</time>
      </trkpt>
      <trkpt lat="49.43194" lon="1.23745">
        <ele>99</ele>
        <time>2017-02-14T15:30:41Z</time>
      </trkpt>
      <trkpt lat="49.4319" lon="1.23743">
        <ele>99</ele>
        <time>2017-02-14T15:30:41Z</time>
      </trkpt>
      <trkpt lat="49.43184" lon="1.23741">
        <ele>99</ele>
        <time>2017-02-14T15:30:41Z</time>
      </trkpt>
      <trkpt lat="49.4318" lon="1.23738">
        <ele>99</ele>
        <time>2017-02-14T15:30:56Z</time>
      </trkpt>
      <trkpt lat="49.43175" lon="1.23736">
        <ele>99</ele>
        <time>2017-02-14T15:30:56Z</time>
      </trkpt>
      <trkpt lat="49.4317" lon="1.23735">
        <ele>99</ele>
        <time>2017-02-14T15:30:56Z</time>
      </trkpt>
      <trkpt lat="49.43165" lon="1.23734">
        <ele>99</ele>
        <time>2017-02-14T15:30:56Z</time>
      </trkpt>
      <trkpt lat="49.43161" lon="1.23735">
        <ele>99</ele>
        <time>2017-02-14T15:31:12Z</time>
      </trkpt>
      <trkpt lat="49.43156" lon="1.23737">
        <ele>99</ele>
        <time>2017-02-14T15:31:12Z</time>
      </trkpt>
      <trkpt lat="49.43151" lon="1.23738">
        <ele>99</ele>
        <time>2017-02-14T15:31:12Z</time>
      </trkpt>
      <trkpt lat="49.43147" lon="1.23739">
        <ele>99</ele>
        <time>2017-02-14T15:31:12Z</time>
      </trkpt>
      <trkpt lat="49.43132" lon="1.23736">
        <ele>99</ele>
        <time>2017-02-14T15:31:48Z</time>
      </trkpt>
      <trkpt lat="49.43132" lon="1.23736">
        <ele>99</ele>
        <time>2017-02-14T15:31:48Z</time>
      </trkpt>
      <trkpt lat="49.43132" lon="1.23736">
        <ele>99</ele>
        <time>2017-02-14T15:31:48Z</time>
      </trkpt>
      <trkpt lat="49.43132" lon="1.23736">
        <ele>99</ele>
        <time>2017-02-14T15:31:48Z</time>
      </trkpt>
      <trkpt lat="49.43132" lon="1.23736">
        <ele>99</ele>
        <time>2017-02-14T15:31:48Z</time>
      </trkpt>
      <trkpt lat="49.43132" lon="1.23736">
        <ele>99</ele>
        <time>2017-02-14T15:32:05Z</time>
      </trkpt>
      <trkpt lat="49.43124" lon="1.2372">
        <ele>102</ele>
        <time>2017-02-14T15:32:05Z</time>
      </trkpt>
      <trkpt lat="49.43121" lon="1.23718">
        <ele>102</ele>
        <time>2017-02-14T15:32:05Z</time>
      </trkpt>
      <trkpt lat="49.43116" lon="1.23711">
        <ele>102</ele>
        <time>2017-02-14T15:32:05Z</time>
      </trkpt>
      <trkpt lat="49.43112" lon="1.23707">
        <ele>101</ele>
        <time>2017-02-14T15:32:21Z</time>
      </trkpt>
      <trkpt lat="49.43108" lon="1.23702">
        <ele>101</ele>
        <time>2017-02-14T15:32:21Z</time>
      </trkpt>
      <trkpt lat="49.43103" lon="1.237">
        <ele>101</ele>
        <time>2017-02-14T15:32:21Z</time>
      </trkpt>
      <trkpt lat="49.43099" lon="1.23701">
        <ele>101</ele>
        <time>2017-02-14T15:32:21Z</time>
      </trkpt>
      <trkpt lat="49.43093" lon="1.23702">
        <ele>101</ele>
        <time>2017-02-14T15:32:37Z</time>
      </trkpt>
      <trkpt lat="49.43089" lon="1.23703">
        <ele>101</ele>
        <time>2017-02-14T15:32:37Z</time>
      </trkpt>
      <trkpt lat="49.43085" lon="1.23706">
        <ele>101</ele>
        <time>2017-02-14T15:32:37Z</time>
      </trkpt>
      <trkpt lat="49.43081" lon="1.23702">
        <ele>101</ele>
        <time>2017-02-14T15:32:37Z</time>
      </trkpt>
      <trkpt lat="49.43075" lon="1.23697">
        <ele>101</ele>
        <time>2017-02-14T15:32:53Z</time>
      </trkpt>
      <trkpt lat="49.43071" lon="1.23695">
        <ele>101</ele>
        <time>2017-02-14T15:32:53Z</time>
      </trkpt>
      <trkpt lat="49.43066" lon="1.23693">
        <ele>101</ele>
        <time>2017-02-14T15:32:53Z</time>
      </trkpt>
      <trkpt lat="49.43061" lon="1.2369">
        <ele>101</ele>
        <time>2017-02-14T15:32:53Z</time>
      </trkpt>
      <trkpt lat="49.43054" lon="1.23689">
        <ele>101</ele>
        <time>2017-02-14T15:33:08Z</time>
      </trkpt>
      <trkpt lat="49.43052" lon="1.2369">
        <ele>101</ele>
        <time>2017-02-14T15:33:08Z</time>
      </trkpt>
      <trkpt lat="49.4305" lon="1.23693">
        <ele>101</ele>
        <time>2017-02-14T15:33:08Z</time>
      </trkpt>
      <trkpt lat="49.43044" lon="1.23692">
        <ele>101</ele>
        <time>2017-02-14T15:33:08Z</time>
      </trkpt>
      <trkpt lat="49.43037" lon="1.23691">
        <ele>94</ele>
        <time>2017-02-14T15:33:25Z</time>
      </trkpt>
      <trkpt lat="49.43033" lon="1.23689">
        <ele>94</ele>
        <time>2017-02-14T15:33:25Z</time>
      </trkpt>
      <trkpt lat="49.43026" lon="1.23685">
        <ele>94</ele>
        <time>2017-02-14T15:33:25Z</time>
      </trkpt>
      <trkpt lat="49.43021" lon="1.23683">
        <ele>94</ele>
        <time>2017-02-14T15:33:25Z</time>
      </trkpt>
      <trkpt lat="49.43018" lon="1.23682">
        <ele>94</ele>
        <time>2017-02-14T15:33:41Z</time>
      </trkpt>
      <trkpt lat="49.43013" lon="1.23684">
        <ele>94</ele>
        <time>2017-02-14T15:33:41Z</time>
      </trkpt>
      <trkpt lat="49.43008" lon="1.23686">
        <ele>94</ele>
        <time>2017-02-14T15:33:41Z</time>
      </trkpt>
      <trkpt lat="49.43002" lon="1.23687">
        <ele>94</ele>
        <time>2017-02-14T15:33:41Z</time>
      </trkpt>
      <trkpt lat="49.42999" lon="1.23689">
        <ele>94</ele>
        <time>2017-02-14T15:33:57Z</time>
      </trkpt>
      <trkpt lat="49.42996" lon="1.23692">
        <ele>94</ele>
        <time>2017-02-14T15:33:57Z</time>
      </trkpt>
      <trkpt lat="49.42992" lon="1.23696">
        <ele>94</ele>
        <time>2017-02-14T15:33:57Z</time>
      </trkpt>
      <trkpt lat="49.42989" lon="1.237">
        <ele>94</ele>
        <time>2017-02-14T15:33:57Z</time>
      </trkpt>
      <trkpt lat="49.42984" lon="1.23706">
        <ele>94</ele>
        <time>2017-02-14T15:34:13Z</time>
      </trkpt>
      <trkpt lat="49.4298" lon="1.23709">
        <ele>99</ele>
        <time>2017-02-14T15:34:13Z</time>
      </trkpt>
      <trkpt lat="49.42976" lon="1.23712">
        <ele>99</ele>
        <time>2017-02-14T15:34:14Z</time>
      </trkpt>
      <trkpt lat="49.42971" lon="1.23717">
        <ele>99</ele>
        <time>2017-02-14T15:34:14Z</time>
      </trkpt>
      <trkpt lat="49.42968" lon="1.2372">
        <ele>99</ele>
        <time>2017-02-14T15:34:29Z</time>
      </trkpt>
      <trkpt lat="49.42963" lon="1.23723">
        <ele>99</ele>
        <time>2017-02-14T15:34:29Z</time>
      </trkpt>
      <trkpt lat="49.4296" lon="1.23725">
        <ele>99</ele>
        <time>2017-02-14T15:34:29Z</time>
      </trkpt>
      <trkpt lat="49.42954" lon="1.23728">
        <ele>95</ele>
        <time>2017-02-14T15:34:29Z</time>
      </trkpt>
      <trkpt lat="49.42948" lon="1.23732">
        <ele>95</ele>
        <time>2017-02-14T15:34:45Z</time>
      </trkpt>
      <trkpt lat="49.42945" lon="1.23733">
        <ele>95</ele>
        <time>2017-02-14T15:34:45Z</time>
      </trkpt>
      <trkpt lat="49.4294" lon="1.23737">
        <ele>95</ele>
        <time>2017-02-14T15:34:45Z</time>
      </trkpt>
      <trkpt lat="49.42937" lon="1.23741">
        <ele>95</ele>
        <time>2017-02-14T15:34:45Z</time>
      </trkpt>
      <trkpt lat="49.42932" lon="1.23742">
        <ele>95</ele>
        <time>2017-02-14T15:35:00Z</time>
      </trkpt>
      <trkpt lat="49.42927" lon="1.23747">
        <ele>95</ele>
        <time>2017-02-14T15:35:00Z</time>
      </trkpt>
      <trkpt lat="49.42922" lon="1.2375">
        <ele>95</ele>
        <time>2017-02-14T15:35:00Z</time>
      </trkpt>
      <trkpt lat="49.42918" lon="1.23754">
        <ele>95</ele>
        <time>2017-02-14T15:35:00Z</time>
      </trkpt>
      <trkpt lat="49.42912" lon="1.2376">
        <ele>95</ele>
        <time>2017-02-14T15:35:17Z</time>
      </trkpt>
      <trkpt lat="49.4291" lon="1.23763">
        <ele>95</ele>
        <time>2017-02-14T15:35:17Z</time>
      </trkpt>
      <trkpt lat="49.42905" lon="1.23766">
        <ele>95</ele>
        <time>2017-02-14T15:35:17Z</time>
      </trkpt>
      <trkpt lat="49.42903" lon="1.23769">
        <ele>95</ele>
        <time>2017-02-14T15:35:17Z</time>
      </trkpt>
      <trkpt lat="49.42898" lon="1.23774">
        <ele>95</ele>
        <time>2017-02-14T15:35:33Z</time>
      </trkpt>
      <trkpt lat="49.42894" lon="1.23775">
        <ele>95</ele>
        <time>2017-02-14T15:35:33Z</time>
      </trkpt>
      <trkpt lat="49.42887" lon="1.23777">
        <ele>95</ele>
        <time>2017-02-14T15:35:33Z</time>
      </trkpt>
      <trkpt lat="49.42884" lon="1.23777">
        <ele>95</ele>
        <time>2017-02-14T15:35:33Z</time>
      </trkpt>
      <trkpt lat="49.42878" lon="1.23778">
        <ele>95</ele>
        <time>2017-02-14T15:35:49Z</time>
      </trkpt>
      <trkpt lat="49.42873" lon="1.23779">
        <ele>100</ele>
        <time>2017-02-14T15:35:49Z</time>
      </trkpt>
      <trkpt lat="49.42866" lon="1.2378">
        <ele>100</ele>
        <time>2017-02-14T15:35:49Z</time>
      </trkpt>
      <trkpt lat="49.42861" lon="1.23782">
        <ele>100</ele>
        <time>2017-02-14T15:35:49Z</time>
      </trkpt>
      <trkpt lat="49.42856" lon="1.23784">
        <ele>100</ele>
        <time>2017-02-14T15:36:06Z</time>
      </trkpt>
      <trkpt lat="49.42849" lon="1.23781">
        <ele>100</ele>
        <time>2017-02-14T15:36:06Z</time>
      </trkpt>
      <trkpt lat="49.42845" lon="1.23781">
        <ele>100</ele>
        <time>2017-02-14T15:36:06Z</time>
      </trkpt>
      <trkpt lat="49.42841" lon="1.2378">
        <ele>100</ele>
        <time>2017-02-14T15:36:06Z</time>
      </trkpt>
      <trkpt lat="49.42838" lon="1.23777">
        <ele>100</ele>
        <time>2017-02-14T15:36:20Z</time>
      </trkpt>
      <trkpt lat="49.42835" lon="1.23771">
        <ele>100</ele>
        <time>2017-02-14T15:36:20Z</time>
      </trkpt>
      <trkpt lat="49.42831" lon="1.23766">
        <ele>100</ele>
        <time>2017-02-14T15:36:20Z</time>
      </trkpt>
      <trkpt lat="49.42828" lon="1.23765">
        <ele>100</ele>
        <time>2017-02-14T15:36:20Z</time>
      </trkpt>
      <trkpt lat="49.42822" lon="1.23761">
        <ele>100</ele>
        <time>2017-02-14T15:36:36Z</time>
      </trkpt>
      <trkpt lat="49.42818" lon="1.23757">
        <ele>100</ele>
        <time>2017-02-14T15:36:36Z</time>
      </trkpt>
      <trkpt lat="49.42813" lon="1.23753">
        <ele>100</ele>
        <time>2017-02-14T15:36:36Z</time>
      </trkpt>
      <trkpt lat="49.42809" lon="1.23753">
        <ele>100</ele>
        <time>2017-02-14T15:36:36Z</time>
      </trkpt>
      <trkpt lat="49.42804" lon="1.23753">
        <ele>100</ele>
        <time>2017-02-14T15:36:53Z</time>
      </trkpt>
      <trkpt lat="49.428" lon="1.23752">
        <ele>100</ele>
        <time>2017-02-14T15:36:53Z</time>
      </trkpt>
      <trkpt lat="49.42792" lon="1.23747">
        <ele>100</ele>
        <time>2017-02-14T15:36:53Z</time>
      </trkpt>
      <trkpt lat="49.42784" lon="1.23746">
        <ele>99</ele>
        <time>2017-02-14T15:36:53Z</time>
      </trkpt>
      <trkpt lat="49.4278" lon="1.23747">
        <ele>99</ele>
        <time>2017-02-14T15:37:08Z</time>
      </trkpt>
      <trkpt lat="49.42775" lon="1.23749">
        <ele>99</ele>
        <time>2017-02-14T15:37:08Z</time>
      </trkpt>
      <trkpt lat="49.42772" lon="1.2375">
        <ele>99</ele>
        <time>2017-02-14T15:37:08Z</time>
      </trkpt>
      <trkpt lat="49.42767" lon="1.23751">
        <ele>99</ele>
        <time>2017-02-14T15:37:08Z</time>
      </trkpt>
      <trkpt lat="49.42764" lon="1.23746">
        <ele>99</ele>
        <time>2017-02-14T15:37:25Z</time>
      </trkpt>
      <trkpt lat="49.42761" lon="1.23743">
        <ele>99</ele>
        <time>2017-02-14T15:37:25Z</time>
      </trkpt>
      <trkpt lat="49.42756" lon="1.23741">
        <ele>99</ele>
        <time>2017-02-14T15:37:25Z</time>
      </trkpt>
      <trkpt lat="49.42752" lon="1.23736">
        <ele>99</ele>
        <time>2017-02-14T15:37:25Z</time>
      </trkpt>
      <trkpt lat="49.42748" lon="1.23735">
        <ele>99</ele>
        <time>2017-02-14T15:37:42Z</time>
      </trkpt>
      <trkpt lat="49.42744" lon="1.23736">
        <ele>99</ele>
        <time>2017-02-14T15:37:42Z</time>
      </trkpt>
      <trkpt lat="49.42738" lon="1.23737">
        <ele>99</ele>
        <time>2017-02-14T15:37:42Z</time>
      </trkpt>
      <trkpt lat="49.42734" lon="1.23738">
        <ele>99</ele>
        <time>2017-02-14T15:37:42Z</time>
      </trkpt>
      <trkpt lat="49.4273" lon="1.23739">
        <ele>99</ele>
        <time>2017-02-14T15:37:57Z</time>
      </trkpt>
      <trkpt lat="49.42725" lon="1.2373">
        <ele>99</ele>
        <time>2017-02-14T15:37:57Z</time>
      </trkpt>
      <trkpt lat="49.42724" lon="1.23727">
        <ele>99</ele>
        <time>2017-02-14T15:37:57Z</time>
      </trkpt>
      <trkpt lat="49.42722" lon="1.23726">
        <ele>99</ele>
        <time>2017-02-14T15:37:57Z</time>
      </trkpt>
      <trkpt lat="49.42716" lon="1.23725">
        <ele>99</ele>
        <time>2017-02-14T15:38:13Z</time>
      </trkpt>
      <trkpt lat="49.42709" lon="1.23725">
        <ele>99</ele>
        <time>2017-02-14T15:38:13Z</time>
      </trkpt>
      <trkpt lat="49.42704" lon="1.23724">
        <ele>97</ele>
        <time>2017-02-14T15:38:13Z</time>
      </trkpt>
      <trkpt lat="49.42699" lon="1.23724">
        <ele>97</ele>
        <time>2017-02-14T15:38:13Z</time>
      </trkpt>
      <trkpt lat="49.42694" lon="1.23726">
        <ele>97</ele>
        <time>2017-02-14T15:38:28Z</time>
      </trkpt>
      <trkpt lat="49.4269" lon="1.23727">
        <ele>97</ele>
        <time>2017-02-14T15:38:28Z</time>
      </trkpt>
      <trkpt lat="49.42686" lon="1.23728">
        <ele>97</ele>
        <time>2017-02-14T15:38:28Z</time>
      </trkpt>
      <trkpt lat="49.4268" lon="1.23724">
        <ele>97</ele>
        <time>2017-02-14T15:38:28Z</time>
      </trkpt>
      <trkpt lat="49.42674" lon="1.23724">
        <ele>97</ele>
        <time>2017-02-14T15:38:44Z</time>
      </trkpt>
      <trkpt lat="49.42669" lon="1.23727">
        <ele>97</ele>
        <time>2017-02-14T15:38:44Z</time>
      </trkpt>
      <trkpt lat="49.42663" lon="1.23729">
        <ele>97</ele>
        <time>2017-02-14T15:38:44Z</time>
      </trkpt>
      <trkpt lat="49.42656" lon="1.23729">
        <ele>97</ele>
        <time>2017-02-14T15:38:44Z</time>
      </trkpt>
      <trkpt lat="49.42649" lon="1.23729">
        <ele>97</ele>
        <time>2017-02-14T15:39:00Z</time>
      </trkpt>
      <trkpt lat="49.42645" lon="1.23728">
        <ele>97</ele>
        <time>2017-02-14T15:39:00Z</time>
      </trkpt>
      <trkpt lat="49.42641" lon="1.23728">
        <ele>97</ele>
        <time>2017-02-14T15:39:00Z</time>
      </trkpt>
      <trkpt lat="49.42635" lon="1.23727">
        <ele>97</ele>
        <time>2017-02-14T15:39:00Z</time>
      </trkpt>
      <trkpt lat="49.4263" lon="1.23726">
        <ele>97</ele>
        <time>2017-02-14T15:39:16Z</time>
      </trkpt>
      <trkpt lat="49.42624" lon="1.23723">
        <ele>97</ele>
        <time>2017-02-14T15:39:16Z</time>
      </trkpt>
      <trkpt lat="49.42619" lon="1.23722">
        <ele>97</ele>
        <time>2017-02-14T15:39:16Z</time>
      </trkpt>
      <trkpt lat="49.42614" lon="1.23724">
        <ele>97</ele>
        <time>2017-02-14T15:39:16Z</time>
      </trkpt>
      <trkpt lat="49.42609" lon="1.23724">
        <ele>97</ele>
        <time>2017-02-14T15:39:32Z</time>
      </trkpt>
      <trkpt lat="49.42604" lon="1.23726">
        <ele>97</ele>
        <time>2017-02-14T15:39:32Z</time>
      </trkpt>
      <trkpt lat="49.42599" lon="1.23726">
        <ele>97</ele>
        <time>2017-02-14T15:39:32Z</time>
      </trkpt>
      <trkpt lat="49.42594" lon="1.23727">
        <ele>97</ele>
        <time>2017-02-14T15:39:32Z</time>
      </trkpt>
      <trkpt lat="49.42589" lon="1.23728">
        <ele>97</ele>
        <time>2017-02-14T15:39:48Z</time>
      </trkpt>
      <trkpt lat="49.42584" lon="1.23728">
        <ele>97</ele>
        <time>2017-02-14T15:39:48Z</time>
      </trkpt>
      <trkpt lat="49.42578" lon="1.23726">
        <ele>97</ele>
        <time>2017-02-14T15:39:48Z</time>
      </trkpt>
      <trkpt lat="49.42573" lon="1.23721">
        <ele>97</ele>
        <time>2017-02-14T15:39:48Z</time>
      </trkpt>
      <trkpt lat="49.42569" lon="1.23718">
        <ele>97</ele>
        <time>2017-02-14T15:40:04Z</time>
      </trkpt>
      <trkpt lat="49.42564" lon="1.23715">
        <ele>97</ele>
        <time>2017-02-14T15:40:04Z</time>
      </trkpt>
      <trkpt lat="49.42558" lon="1.23712">
        <ele>97</ele>
        <time>2017-02-14T15:40:05Z</time>
      </trkpt>
      <trkpt lat="49.42554" lon="1.2371">
        <ele>97</ele>
        <time>2017-02-14T15:40:05Z</time>
      </trkpt>
      <trkpt lat="49.42547" lon="1.2371">
        <ele>97</ele>
        <time>2017-02-14T15:40:21Z</time>
      </trkpt>
      <trkpt lat="49.42543" lon="1.23708">
        <ele>96</ele>
        <time>2017-02-14T15:40:21Z</time>
      </trkpt>
      <trkpt lat="49.42537" lon="1.23707">
        <ele>101</ele>
        <time>2017-02-14T15:40:21Z</time>
      </trkpt>
      <trkpt lat="49.42535" lon="1.23704">
        <ele>101</ele>
        <time>2017-02-14T15:40:21Z</time>
      </trkpt>
      <trkpt lat="49.4253" lon="1.23699">
        <ele>101</ele>
        <time>2017-02-14T15:40:37Z</time>
      </trkpt>
      <trkpt lat="49.42525" lon="1.23696">
        <ele>101</ele>
        <time>2017-02-14T15:40:37Z</time>
      </trkpt>
      <trkpt lat="49.42519" lon="1.23694">
        <ele>101</ele>
        <time>2017-02-14T15:40:37Z</time>
      </trkpt>
      <trkpt lat="49.42515" lon="1.23693">
        <ele>101</ele>
        <time>2017-02-14T15:40:37Z</time>
      </trkpt>
      <trkpt lat="49.42511" lon="1.2369">
        <ele>101</ele>
        <time>2017-02-14T15:40:52Z</time>
      </trkpt>
      <trkpt lat="49.42508" lon="1.23682">
        <ele>101</ele>
        <time>2017-02-14T15:40:52Z</time>
      </trkpt>
      <trkpt lat="49.42505" lon="1.23677">
        <ele>101</ele>
        <time>2017-02-14T15:40:52Z</time>
      </trkpt>
      <trkpt lat="49.42501" lon="1.23672">
        <ele>101</ele>
        <time>2017-02-14T15:40:52Z</time>
      </trkpt>
      <trkpt lat="49.42496" lon="1.23668">
        <ele>101</ele>
        <time>2017-02-14T15:41:10Z</time>
      </trkpt>
      <trkpt lat="49.42493" lon="1.23664">
        <ele>101</ele>
        <time>2017-02-14T15:41:10Z</time>
      </trkpt>
      <trkpt lat="49.42491" lon="1.23652">
        <ele>101</ele>
        <time>2017-02-14T15:41:10Z</time>
      </trkpt>
      <trkpt lat="49.4249" lon="1.23645">
        <ele>101</ele>
        <time>2017-02-14T15:41:10Z</time>
      </trkpt>
      <trkpt lat="49.42488" lon="1.23641">
        <ele>101</ele>
        <time>2017-02-14T15:41:24Z</time>
      </trkpt>
      <trkpt lat="49.42486" lon="1.23634">
        <ele>101</ele>
        <time>2017-02-14T15:41:24Z</time>
      </trkpt>
      <trkpt lat="49.42483" lon="1.23627">
        <ele>101</ele>
        <time>2017-02-14T15:41:24Z</time>
      </trkpt>
      <trkpt lat="49.42481" lon="1.23622">
        <ele>95</ele>
        <time>2017-02-14T15:41:24Z</time>
      </trkpt>
      <trkpt lat="49.42478" lon="1.23614">
        <ele>95</ele>
        <time>2017-02-14T15:41:42Z</time>
      </trkpt>
      <trkpt lat="49.42476" lon="1.23606">
        <ele>95</ele>
        <time>2017-02-14T15:41:42Z</time>
      </trkpt>
      <trkpt lat="49.42474" lon="1.236">
        <ele>95</ele>
        <time>2017-02-14T15:41:42Z</time>
      </trkpt>
      <trkpt lat="49.42472" lon="1.23592">
        <ele>95</ele>
        <time>2017-02-14T15:41:42Z</time>
      </trkpt>
      <trkpt lat="49.4247" lon="1.23583">
        <ele>95</ele>
        <time>2017-02-14T15:41:57Z</time>
      </trkpt>
      <trkpt lat="49.42467" lon="1.23577">
        <ele>95</ele>
        <time>2017-02-14T15:41:57Z</time>
      </trkpt>
      <trkpt lat="49.42462" lon="1.23567">
        <ele>95</ele>
        <time>2017-02-14T15:41:57Z</time>
      </trkpt>
      <trkpt lat="49.42461" lon="1.23565">
        <ele>95</ele>
        <time>2017-02-14T15:41:57Z</time>
      </trkpt>
      <trkpt lat="49.4246" lon="1.23561">
        <ele>95</ele>
        <time>2017-02-14T15:42:12Z</time>
      </trkpt>
      <trkpt lat="49.42459" lon="1.23555">
        <ele>95</ele>
        <time>2017-02-14T15:42:12Z</time>
      </trkpt>
      <trkpt lat="49.42457" lon="1.2355">
        <ele>108</ele>
        <time>2017-02-14T15:42:12Z</time>
      </trkpt>
      <trkpt lat="49.42455" lon="1.23544">
        <ele>108</ele>
        <time>2017-02-14T15:42:12Z</time>
      </trkpt>
      <trkpt lat="49.42453" lon="1.23537">
        <ele>92</ele>
        <time>2017-02-14T15:42:30Z</time>
      </trkpt>
      <trkpt lat="49.4245" lon="1.23528">
        <ele>92</ele>
        <time>2017-02-14T15:42:30Z</time>
      </trkpt>
      <trkpt lat="49.4245" lon="1.23522">
        <ele>92</ele>
        <time>2017-02-14T15:42:30Z</time>
      </trkpt>
      <trkpt lat="49.42448" lon="1.23513">
        <ele>92</ele>
        <time>2017-02-14T15:42:30Z</time>
      </trkpt>
      <trkpt lat="49.42447" lon="1.23508">
        <ele>92</ele>
        <time>2017-02-14T15:42:49Z</time>
      </trkpt>
      <trkpt lat="49.42443" lon="1.23502">
        <ele>92</ele>
        <time>2017-02-14T15:42:49Z</time>
      </trkpt>
      <trkpt lat="49.4244" lon="1.23497">
        <ele>92</ele>
        <time>2017-02-14T15:42:49Z</time>
      </trkpt>
      <trkpt lat="49.42434" lon="1.23488">
        <ele>92</ele>
        <time>2017-02-14T15:42:49Z</time>
      </trkpt>
      <trkpt lat="49.42426" lon="1.23478">
        <ele>92</ele>
        <time>2017-02-14T15:43:09Z</time>
      </trkpt>
      <trkpt lat="49.42425" lon="1.23477">
        <ele>92</ele>
        <time>2017-02-14T15:43:09Z</time>
      </trkpt>
      <trkpt lat="49.42419" lon="1.23469">
        <ele>92</ele>
        <time>2017-02-14T15:43:09Z</time>
      </trkpt>
      <trkpt lat="49.42419" lon="1.23468">
        <ele>92</ele>
        <time>2017-02-14T15:43:09Z</time>
      </trkpt>
      <trkpt lat="49.42416" lon="1.23466">
        <ele>92</ele>
        <time>2017-02-14T15:43:33Z</time>
      </trkpt>
      <trkpt lat="49.42416" lon="1.23466">
        <ele>92</ele>
        <time>2017-02-14T15:43:33Z</time>
      </trkpt>
      <trkpt lat="49.42416" lon="1.23466">
        <ele>92</ele>
        <time>2017-02-14T15:43:33Z</time>
      </trkpt>
      <trkpt lat="49.42411" lon="1.23458">
        <ele>83</ele>
        <time>2017-02-14T15:43:33Z</time>
      </trkpt>
      <trkpt lat="49.42389" lon="1.23449">
        <ele>83</ele>
        <time>2017-02-14T15:43:33Z</time>
      </trkpt>
      <trkpt lat="49.42382" lon="1.23437">
        <ele>83</ele>
        <time>2017-02-14T15:43:50Z</time>
      </trkpt>
      <trkpt lat="49.42379" lon="1.23435">
        <ele>83</ele>
        <time>2017-02-14T15:43:50Z</time>
      </trkpt>
      <trkpt lat="49.42376" lon="1.23436">
        <ele>83</ele>
        <time>2017-02-14T15:43:50Z</time>
      </trkpt>
      <trkpt lat="49.42371" lon="1.23432">
        <ele>88</ele>
        <time>2017-02-14T15:43:50Z</time>
      </trkpt>
      <trkpt lat="49.42368" lon="1.2343">
        <ele>88</ele>
        <time>2017-02-14T15:44:06Z</time>
      </trkpt>
      <trkpt lat="49.42363" lon="1.23428">
        <ele>88</ele>
        <time>2017-02-14T15:44:06Z</time>
      </trkpt>
      <trkpt lat="49.42358" lon="1.23426">
        <ele>88</ele>
        <time>2017-02-14T15:44:06Z</time>
      </trkpt>
      <trkpt lat="49.42356" lon="1.23424">
        <ele>88</ele>
        <time>2017-02-14T15:44:06Z</time>
      </trkpt>
      <trkpt lat="49.42352" lon="1.23423">
        <ele>88</ele>
        <time>2017-02-14T15:44:20Z</time>
      </trkpt>
      <trkpt lat="49.42349" lon="1.23424">
        <ele>88</ele>
        <time>2017-02-14T15:44:20Z</time>
      </trkpt>
      <trkpt lat="49.42344" lon="1.23427">
        <ele>88</ele>
        <time>2017-02-14T15:44:20Z</time>
      </trkpt>
      <trkpt lat="49.42338" lon="1.23428">
        <ele>88</ele>
        <time>2017-02-14T15:44:20Z</time>
      </trkpt>
      <trkpt lat="49.42332" lon="1.23429">
        <ele>88</ele>
        <time>2017-02-14T15:44:36Z</time>
      </trkpt>
      <trkpt lat="49.42326" lon="1.23429">
        <ele>88</ele>
        <time>2017-02-14T15:44:36Z</time>
      </trkpt>
      <trkpt lat="49.42322" lon="1.2343">
        <ele>88</ele>
        <time>2017-02-14T15:44:36Z</time>
      </trkpt>
      <trkpt lat="49.42317" lon="1.23434">
        <ele>88</ele>
        <time>2017-02-14T15:44:36Z</time>
      </trkpt>
      <trkpt lat="49.42312" lon="1.23436">
        <ele>88</ele>
        <time>2017-02-14T15:44:52Z</time>
      </trkpt>
      <trkpt lat="49.42307" lon="1.2344">
        <ele>88</ele>
        <time>2017-02-14T15:44:52Z</time>
      </trkpt>
      <trkpt lat="49.42303" lon="1.23442">
        <ele>88</ele>
        <time>2017-02-14T15:44:52Z</time>
      </trkpt>
      <trkpt lat="49.42299" lon="1.23444">
        <ele>88</ele>
        <time>2017-02-14T15:44:52Z</time>
      </trkpt>
      <trkpt lat="49.42291" lon="1.23447">
        <ele>86</ele>
        <time>2017-02-14T15:45:09Z</time>
      </trkpt>
      <trkpt lat="49.42287" lon="1.23449">
        <ele>86</ele>
        <time>2017-02-14T15:45:09Z</time>
      </trkpt>
      <trkpt lat="49.42282" lon="1.23452">
        <ele>86</ele>
        <time>2017-02-14T15:45:09Z</time>
      </trkpt>
      <trkpt lat="49.42278" lon="1.23456">
        <ele>86</ele>
        <time>2017-02-14T15:45:09Z</time>
      </trkpt>
      <trkpt lat="49.42273" lon="1.2346">
        <ele>92</ele>
        <time>2017-02-14T15:45:24Z</time>
      </trkpt>
      <trkpt lat="49.4227" lon="1.23463">
        <ele>92</ele>
        <time>2017-02-14T15:45:24Z</time>
      </trkpt>
      <trkpt lat="49.42265" lon="1.23465">
        <ele>92</ele>
        <time>2017-02-14T15:45:24Z</time>
      </trkpt>
      <trkpt lat="49.42262" lon="1.23467">
        <ele>92</ele>
        <time>2017-02-14T15:45:24Z</time>
      </trkpt>
      <trkpt lat="49.42258" lon="1.23469">
        <ele>92</ele>
        <time>2017-02-14T15:45:40Z</time>
      </trkpt>
      <trkpt lat="49.42253" lon="1.23471">
        <ele>92</ele>
        <time>2017-02-14T15:45:40Z</time>
      </trkpt>
      <trkpt lat="49.42247" lon="1.23472">
        <ele>92</ele>
        <time>2017-02-14T15:45:40Z</time>
      </trkpt>
      <trkpt lat="49.42243" lon="1.23472">
        <ele>92</ele>
        <time>2017-02-14T15:45:40Z</time>
      </trkpt>
      <trkpt lat="49.42234" lon="1.23475">
        <ele>92</ele>
        <time>2017-02-14T15:46:12Z</time>
      </trkpt>
      <trkpt lat="49.4223" lon="1.23476">
        <ele>92</ele>
        <time>2017-02-14T15:46:12Z</time>
      </trkpt>
      <trkpt lat="49.42223" lon="1.23474">
        <ele>92</ele>
        <time>2017-02-14T15:46:12Z</time>
      </trkpt>
      <trkpt lat="49.42218" lon="1.23474">
        <ele>92</ele>
        <time>2017-02-14T15:46:12Z</time>
      </trkpt>
      <trkpt lat="49.42214" lon="1.23473">
        <ele>92</ele>
        <time>2017-02-14T15:46:12Z</time>
      </trkpt>
      <trkpt lat="49.42209" lon="1.23472">
        <ele>92</ele>
        <time>2017-02-14T15:46:28Z</time>
      </trkpt>
      <trkpt lat="49.42206" lon="1.23473">
        <ele>90</ele>
        <time>2017-02-14T15:46:28Z</time>
      </trkpt>
      <trkpt lat="49.42201" lon="1.23474">
        <ele>90</ele>
        <time>2017-02-14T15:46:28Z</time>
      </trkpt>
      <trkpt lat="49.42196" lon="1.23473">
        <ele>90</ele>
        <time>2017-02-14T15:46:28Z</time>
      </trkpt>
      <trkpt lat="49.42191" lon="1.23474">
        <ele>90</ele>
        <time>2017-02-14T15:46:44Z</time>
      </trkpt>
      <trkpt lat="49.42185" lon="1.23477">
        <ele>90</ele>
        <time>2017-02-14T15:46:44Z</time>
      </trkpt>
      <trkpt lat="49.42179" lon="1.23476">
        <ele>90</ele>
        <time>2017-02-14T15:46:44Z</time>
      </trkpt>
      <trkpt lat="49.42174" lon="1.23476">
        <ele>90</ele>
        <time>2017-02-14T15:46:44Z</time>
      </trkpt>
      <trkpt lat="49.4217" lon="1.23474">
        <ele>90</ele>
        <time>2017-02-14T15:47:01Z</time>
      </trkpt>
      <trkpt lat="49.42165" lon="1.23472">
        <ele>90</ele>
        <time>2017-02-14T15:47:01Z</time>
      </trkpt>
      <trkpt lat="49.4216" lon="1.23472">
        <ele>90</ele>
        <time>2017-02-14T15:47:01Z</time>
      </trkpt>
      <trkpt lat="49.42155" lon="1.2347">
        <ele>90</ele>
        <time>2017-02-14T15:47:01Z</time>
      </trkpt>
      <trkpt lat="49.42148" lon="1.23469">
        <ele>90</ele>
        <time>2017-02-14T15:47:16Z</time>
      </trkpt>
      <trkpt lat="49.42145" lon="1.23467">
        <ele>90</ele>
        <time>2017-02-14T15:47:16Z</time>
      </trkpt>
      <trkpt lat="49.42143" lon="1.23466">
        <ele>90</ele>
        <time>2017-02-14T15:47:16Z</time>
      </trkpt>
      <trkpt lat="49.42139" lon="1.23463">
        <ele>90</ele>
        <time>2017-02-14T15:47:16Z</time>
      </trkpt>
      <trkpt lat="49.42133" lon="1.23464">
        <ele>90</ele>
        <time>2017-02-14T15:47:32Z</time>
      </trkpt>
      <trkpt lat="49.42128" lon="1.23461">
        <ele>90</ele>
        <time>2017-02-14T15:47:32Z</time>
      </trkpt>
      <trkpt lat="49.42123" lon="1.2346">
        <ele>88</ele>
        <time>2017-02-14T15:47:32Z</time>
      </trkpt>
      <trkpt lat="49.4212" lon="1.23459">
        <ele>88</ele>
        <time>2017-02-14T15:47:32Z</time>
      </trkpt>
      <trkpt lat="49.42114" lon="1.23459">
        <ele>88</ele>
        <time>2017-02-14T15:47:49Z</time>
      </trkpt>
      <trkpt lat="49.42111" lon="1.2346">
        <ele>88</ele>
        <time>2017-02-14T15:47:49Z</time>
      </trkpt>
      <trkpt lat="49.42105" lon="1.23461">
        <ele>88</ele>
        <time>2017-02-14T15:47:49Z</time>
      </trkpt>
      <trkpt lat="49.421" lon="1.2346">
        <ele>88</ele>
        <time>2017-02-14T15:47:49Z</time>
      </trkpt>
      <trkpt lat="49.42093" lon="1.23461">
        <ele>88</ele>
        <time>2017-02-14T15:48:05Z</time>
      </trkpt>
      <trkpt lat="49.42089" lon="1.2346">
        <ele>88</ele>
        <time>2017-02-14T15:48:05Z</time>
      </trkpt>
      <trkpt lat="49.42085" lon="1.23457">
        <ele>85</ele>
        <time>2017-02-14T15:48:05Z</time>
      </trkpt>
      <trkpt lat="49.42082" lon="1.23458">
        <ele>85</ele>
        <time>2017-02-14T15:48:05Z</time>
      </trkpt>
      <trkpt lat="49.42068" lon="1.23459">
        <ele>88</ele>
        <time>2017-02-14T16:01:16Z</time>
      </trkpt>
      <trkpt lat="49.42068" lon="1.23459">
        <ele>88</ele>
        <time>2017-02-14T16:01:16Z</time>
      </trkpt>
      <trkpt lat="49.42068" lon="1.23459">
        <ele>88</ele>
        <time>2017-02-14T16:01:16Z</time>
      </trkpt>
      <trkpt lat="49.42068" lon="1.23459">
        <ele>88</ele>
        <time>2017-02-14T16:01:16Z</time>
      </trkpt>
      <trkpt lat="49.42068" lon="1.23459">
        <ele>88</ele>
        <time>2017-02-14T16:01:16Z</time>
      </trkpt>
      <trkpt lat="49.42067" lon="1.23457">
        <ele>85</ele>
        <time>2017-02-14T16:01:32Z</time>
      </trkpt>
      <trkpt lat="49.42065" lon="1.2345">
        <ele>85</ele>
        <time>2017-02-14T16:01:32Z</time>
      </trkpt>
      <trkpt lat="49.42066" lon="1.23436">
        <ele>85</ele>
        <time>2017-02-14T16:01:32Z</time>
      </trkpt>
      <trkpt lat="49.42065" lon="1.23433">
        <ele>85</ele>
        <time>2017-02-14T16:01:32Z</time>
      </trkpt>
      <trkpt lat="49.42062" lon="1.23429">
        <ele>85</ele>
        <time>2017-02-14T16:01:48Z</time>
      </trkpt>
      <trkpt lat="49.42058" lon="1.23419">
        <ele>85</ele>
        <time>2017-02-14T16:01:48Z</time>
      </trkpt>
      <trkpt lat="49.42054" lon="1.23413">
        <ele>85</ele>
        <time>2017-02-14T16:01:48Z</time>
      </trkpt>
      <trkpt lat="49.42053" lon="1.23408">
        <ele>85</ele>
        <time>2017-02-14T16:01:48Z</time>
      </trkpt>
      <trkpt lat="49.42052" lon="1.23405">
        <ele>85</ele>
        <time>2017-02-14T16:02:41Z</time>
      </trkpt>
      <trkpt lat="49.42052" lon="1.23404">
        <ele>85</ele>
        <time>2017-02-14T16:02:41Z</time>
      </trkpt>
      <trkpt lat="49.42047" lon="1.23398">
        <ele>85</ele>
        <time>2017-02-14T16:02:41Z</time>
      </trkpt>
      <trkpt lat="49.42042" lon="1.23398">
        <ele>85</ele>
        <time>2017-02-14T16:02:41Z</time>
      </trkpt>
      <trkpt lat="49.42038" lon="1.23396">
        <ele>83</ele>
        <time>2017-02-14T16:02:41Z</time>
      </trkpt>
      <trkpt lat="49.42035" lon="1.23393">
        <ele>83</ele>
        <time>2017-02-14T16:02:58Z</time>
      </trkpt>
      <trkpt lat="49.4203" lon="1.2339">
        <ele>83</ele>
        <time>2017-02-14T16:02:58Z</time>
      </trkpt>
      <trkpt lat="49.42023" lon="1.23385">
        <ele>83</ele>
        <time>2017-02-14T16:02:58Z</time>
      </trkpt>
      <trkpt lat="49.42019" lon="1.23382">
        <ele>83</ele>
        <time>2017-02-14T16:02:58Z</time>
      </trkpt>
      <trkpt lat="49.42016" lon="1.2338">
        <ele>83</ele>
        <time>2017-02-14T16:03:14Z</time>
      </trkpt>
      <trkpt lat="49.42009" lon="1.23376">
        <ele>83</ele>
        <time>2017-02-14T16:03:14Z</time>
      </trkpt>
      <trkpt lat="49.42005" lon="1.23375">
        <ele>82</ele>
        <time>2017-02-14T16:03:14Z</time>
      </trkpt>
      <trkpt lat="49.42" lon="1.2337">
        <ele>82</ele>
        <time>2017-02-14T16:03:14Z</time>
      </trkpt>
      <trkpt lat="49.41995" lon="1.23367">
        <ele>82</ele>
        <time>2017-02-14T16:03:29Z</time>
      </trkpt>
      <trkpt lat="49.41992" lon="1.23365">
        <ele>82</ele>
        <time>2017-02-14T16:03:29Z</time>
      </trkpt>
      <trkpt lat="49.41987" lon="1.23361">
        <ele>82</ele>
        <time>2017-02-14T16:03:29Z</time>
      </trkpt>
      <trkpt lat="49.41982" lon="1.23359">
        <ele>82</ele>
        <time>2017-02-14T16:03:29Z</time>
      </trkpt>
      <trkpt lat="49.41977" lon="1.23356">
        <ele>82</ele>
        <time>2017-02-14T16:03:45Z</time>
      </trkpt>
      <trkpt lat="49.41974" lon="1.23354">
        <ele>82</ele>
        <time>2017-02-14T16:03:45Z</time>
      </trkpt>
      <trkpt lat="49.41969" lon="1.23351">
        <ele>82</ele>
        <time>2017-02-14T16:03:45Z</time>
      </trkpt>
      <trkpt lat="49.41964" lon="1.23347">
        <ele>82</ele>
        <time>2017-02-14T16:03:45Z</time>
      </trkpt>
      <trkpt lat="49.4196" lon="1.23345">
        <ele>82</ele>
        <time>2017-02-14T16:04:01Z</time>
      </trkpt>
      <trkpt lat="49.41955" lon="1.23342">
        <ele>82</ele>
        <time>2017-02-14T16:04:01Z</time>
      </trkpt>
      <trkpt lat="49.41951" lon="1.23339">
        <ele>82</ele>
        <time>2017-02-14T16:04:01Z</time>
      </trkpt>
      <trkpt lat="49.41944" lon="1.23334">
        <ele>82</ele>
        <time>2017-02-14T16:04:01Z</time>
      </trkpt>
      <trkpt lat="49.4194" lon="1.2333">
        <ele>82</ele>
        <time>2017-02-14T16:04:16Z</time>
      </trkpt>
      <trkpt lat="49.41934" lon="1.23326">
        <ele>82</ele>
        <time>2017-02-14T16:04:16Z</time>
      </trkpt>
      <trkpt lat="49.41931" lon="1.23322">
        <ele>82</ele>
        <time>2017-02-14T16:04:16Z</time>
      </trkpt>
      <trkpt lat="49.41925" lon="1.23319">
        <ele>82</ele>
        <time>2017-02-14T16:04:16Z</time>
      </trkpt>
      <trkpt lat="49.41921" lon="1.23316">
        <ele>82</ele>
        <time>2017-02-14T16:04:32Z</time>
      </trkpt>
      <trkpt lat="49.41916" lon="1.23316">
        <ele>82</ele>
        <time>2017-02-14T16:04:32Z</time>
      </trkpt>
      <trkpt lat="49.41911" lon="1.23312">
        <ele>82</ele>
        <time>2017-02-14T16:04:32Z</time>
      </trkpt>
      <trkpt lat="49.41907" lon="1.23308">
        <ele>82</ele>
        <time>2017-02-14T16:04:32Z</time>
      </trkpt>
      <trkpt lat="49.41902" lon="1.23304">
        <ele>82</ele>
        <time>2017-02-14T16:04:48Z</time>
      </trkpt>
      <trkpt lat="49.41898" lon="1.23301">
        <ele>82</ele>
        <time>2017-02-14T16:04:48Z</time>
      </trkpt>
      <trkpt lat="49.41893" lon="1.23297">
        <ele>82</ele>
        <time>2017-02-14T16:04:48Z</time>
      </trkpt>
      <trkpt lat="49.4189" lon="1.23295">
        <ele>82</ele>
        <time>2017-02-14T16:04:48Z</time>
      </trkpt>
      <trkpt lat="49.41884" lon="1.23289">
        <ele>78</ele>
        <time>2017-02-14T16:05:04Z</time>
      </trkpt>
      <trkpt lat="49.4188" lon="1.23286">
        <ele>78</ele>
        <time>2017-02-14T16:05:04Z</time>
      </trkpt>
      <trkpt lat="49.41874" lon="1.23282">
        <ele>80</ele>
        <time>2017-02-14T16:05:04Z</time>
      </trkpt>
      <trkpt lat="49.41871" lon="1.23279">
        <ele>80</ele>
        <time>2017-02-14T16:05:04Z</time>
      </trkpt>
      <trkpt lat="49.41866" lon="1.23276">
        <ele>80</ele>
        <time>2017-02-14T16:05:21Z</time>
      </trkpt>
      <trkpt lat="49.41862" lon="1.23271">
        <ele>80</ele>
        <time>2017-02-14T16:05:21Z</time>
      </trkpt>
      <trkpt lat="49.41856" lon="1.23266">
        <ele>80</ele>
        <time>2017-02-14T16:05:21Z</time>
      </trkpt>
      <trkpt lat="49.41852" lon="1.23263">
        <ele>80</ele>
        <time>2017-02-14T16:05:21Z</time>
      </trkpt>
      <trkpt lat="49.41845" lon="1.23258">
        <ele>80</ele>
        <time>2017-02-14T16:05:36Z</time>
      </trkpt>
      <trkpt lat="49.4184" lon="1.23254">
        <ele>80</ele>
        <time>2017-02-14T16:05:36Z</time>
      </trkpt>
      <trkpt lat="49.41836" lon="1.23252">
        <ele>80</ele>
        <time>2017-02-14T16:05:36Z</time>
      </trkpt>
      <trkpt lat="49.41832" lon="1.23247">
        <ele>80</ele>
        <time>2017-02-14T16:05:36Z</time>
      </trkpt>
      <trkpt lat="49.41828" lon="1.23242">
        <ele>80</ele>
        <time>2017-02-14T16:05:53Z</time>
      </trkpt>
      <trkpt lat="49.41824" lon="1.23239">
        <ele>80</ele>
        <time>2017-02-14T16:05:53Z</time>
      </trkpt>
      <trkpt lat="49.41819" lon="1.23232">
        <ele>80</ele>
        <time>2017-02-14T16:05:53Z</time>
      </trkpt>
      <trkpt lat="49.41816" lon="1.23226">
        <ele>80</ele>
        <time>2017-02-14T16:05:53Z</time>
      </trkpt>
      <trkpt lat="49.41812" lon="1.2322">
        <ele>80</ele>
        <time>2017-02-14T16:06:09Z</time>
      </trkpt>
      <trkpt lat="49.41808" lon="1.23214">
        <ele>80</ele>
        <time>2017-02-14T16:06:09Z</time>
      </trkpt>
      <trkpt lat="49.41803" lon="1.23208">
        <ele>73</ele>
        <time>2017-02-14T16:06:09Z</time>
      </trkpt>
      <trkpt lat="49.418" lon="1.23203">
        <ele>73</ele>
        <time>2017-02-14T16:06:09Z</time>
      </trkpt>
      <trkpt lat="49.41795" lon="1.23196">
        <ele>73</ele>
        <time>2017-02-14T16:06:25Z</time>
      </trkpt>
      <trkpt lat="49.41792" lon="1.23193">
        <ele>73</ele>
        <time>2017-02-14T16:06:25Z</time>
      </trkpt>
      <trkpt lat="49.41788" lon="1.23189">
        <ele>77</ele>
        <time>2017-02-14T16:06:25Z</time>
      </trkpt>
      <trkpt lat="49.41782" lon="1.23183">
        <ele>77</ele>
        <time>2017-02-14T16:06:26Z</time>
      </trkpt>
      <trkpt lat="49.41779" lon="1.23181">
        <ele>77</ele>
        <time>2017-02-14T16:06:40Z</time>
      </trkpt>
      <trkpt lat="49.41776" lon="1.2318">
        <ele>77</ele>
        <time>2017-02-14T16:06:40Z</time>
      </trkpt>
      <trkpt lat="49.41769" lon="1.23176">
        <ele>77</ele>
        <time>2017-02-14T16:06:40Z</time>
      </trkpt>
      <trkpt lat="49.41765" lon="1.23175">
        <ele>77</ele>
        <time>2017-02-14T16:06:40Z</time>
      </trkpt>
      <trkpt lat="49.4176" lon="1.23173">
        <ele>77</ele>
        <time>2017-02-14T16:06:56Z</time>
      </trkpt>
      <trkpt lat="49.41753" lon="1.23171">
        <ele>77</ele>
        <time>2017-02-14T16:06:56Z</time>
      </trkpt>
      <trkpt lat="49.4175" lon="1.23168">
        <ele>77</ele>
        <time>2017-02-14T16:06:56Z</time>
      </trkpt>
      <trkpt lat="49.41745" lon="1.23166">
        <ele>77</ele>
        <time>2017-02-14T16:06:56Z</time>
      </trkpt>
      <trkpt lat="49.41741" lon="1.23163">
        <ele>77</ele>
        <time>2017-02-14T16:07:12Z</time>
      </trkpt>
      <trkpt lat="49.41738" lon="1.23159">
        <ele>77</ele>
        <time>2017-02-14T16:07:12Z</time>
      </trkpt>
      <trkpt lat="49.41734" lon="1.23153">
        <ele>77</ele>
        <time>2017-02-14T16:07:12Z</time>
      </trkpt>
      <trkpt lat="49.41729" lon="1.23148">
        <ele>77</ele>
        <time>2017-02-14T16:07:12Z</time>
      </trkpt>
      <trkpt lat="49.41724" lon="1.23145">
        <ele>77</ele>
        <time>2017-02-14T16:07:28Z</time>
      </trkpt>
      <trkpt lat="49.41721" lon="1.2314">
        <ele>77</ele>
        <time>2017-02-14T16:07:28Z</time>
      </trkpt>
      <trkpt lat="49.41717" lon="1.23136">
        <ele>77</ele>
        <time>2017-02-14T16:07:28Z</time>
      </trkpt>
      <trkpt lat="49.41711" lon="1.23129">
        <ele>77</ele>
        <time>2017-02-14T16:07:28Z</time>
      </trkpt>
      <trkpt lat="49.41707" lon="1.23126">
        <ele>79</ele>
        <time>2017-02-14T16:07:44Z</time>
      </trkpt>
      <trkpt lat="49.41703" lon="1.23122">
        <ele>74</ele>
        <time>2017-02-14T16:07:44Z</time>
      </trkpt>
      <trkpt lat="49.417" lon="1.23118">
        <ele>74</ele>
        <time>2017-02-14T16:07:44Z</time>
      </trkpt>
      <trkpt lat="49.41695" lon="1.23115">
        <ele>74</ele>
        <time>2017-02-14T16:07:44Z</time>
      </trkpt>
      <trkpt lat="49.41691" lon="1.2311">
        <ele>74</ele>
        <time>2017-02-14T16:08:00Z</time>
      </trkpt>
      <trkpt lat="49.41686" lon="1.23105">
        <ele>74</ele>
        <time>2017-02-14T16:08:00Z</time>
      </trkpt>
      <trkpt lat="49.41681" lon="1.23101">
        <ele>74</ele>
        <time>2017-02-14T16:08:00Z</time>
      </trkpt>
      <trkpt lat="49.41678" lon="1.23098">
        <ele>74</ele>
        <time>2017-02-14T16:08:00Z</time>
      </trkpt>
      <trkpt lat="49.41674" lon="1.23094">
        <ele>74</ele>
        <time>2017-02-14T16:08:16Z</time>
      </trkpt>
      <trkpt lat="49.41669" lon="1.23089">
        <ele>74</ele>
        <time>2017-02-14T16:08:16Z</time>
      </trkpt>
      <trkpt lat="49.41665" lon="1.23087">
        <ele>74</ele>
        <time>2017-02-14T16:08:16Z</time>
      </trkpt>
      <trkpt lat="49.41661" lon="1.23083">
        <ele>74</ele>
        <time>2017-02-14T16:08:16Z</time>
      </trkpt>
      <trkpt lat="49.41657" lon="1.23079">
        <ele>74</ele>
        <time>2017-02-14T16:08:32Z</time>
      </trkpt>
      <trkpt lat="49.41652" lon="1.23073">
        <ele>74</ele>
        <time>2017-02-14T16:08:32Z</time>
      </trkpt>
      <trkpt lat="49.41647" lon="1.23068">
        <ele>74</ele>
        <time>2017-02-14T16:08:32Z</time>
      </trkpt>
      <trkpt lat="49.41644" lon="1.23064">
        <ele>74</ele>
        <time>2017-02-14T16:08:32Z</time>
      </trkpt>
      <trkpt lat="49.41639" lon="1.2306">
        <ele>74</ele>
        <time>2017-02-14T16:08:48Z</time>
      </trkpt>
      <trkpt lat="49.41634" lon="1.23055">
        <ele>74</ele>
        <time>2017-02-14T16:08:48Z</time>
      </trkpt>
      <trkpt lat="49.4163" lon="1.23051">
        <ele>74</ele>
        <time>2017-02-14T16:08:48Z</time>
      </trkpt>
      <trkpt lat="49.41627" lon="1.23045">
        <ele>74</ele>
        <time>2017-02-14T16:08:48Z</time>
      </trkpt>
      <trkpt lat="49.41623" lon="1.2304">
        <ele>72</ele>
        <time>2017-02-14T16:09:04Z</time>
      </trkpt>
      <trkpt lat="49.41619" lon="1.23035">
        <ele>72</ele>
        <time>2017-02-14T16:09:04Z</time>
      </trkpt>
      <trkpt lat="49.41615" lon="1.23031">
        <ele>72</ele>
        <time>2017-02-14T16:09:04Z</time>
      </trkpt>
      <trkpt lat="49.4161" lon="1.23027">
        <ele>72</ele>
        <time>2017-02-14T16:09:04Z</time>
      </trkpt>
      <trkpt lat="49.41607" lon="1.23023">
        <ele>72</ele>
        <time>2017-02-14T16:09:20Z</time>
      </trkpt>
      <trkpt lat="49.41602" lon="1.23019">
        <ele>72</ele>
        <time>2017-02-14T16:09:20Z</time>
      </trkpt>
      <trkpt lat="49.41599" lon="1.23015">
        <ele>72</ele>
        <time>2017-02-14T16:09:20Z</time>
      </trkpt>
      <trkpt lat="49.41597" lon="1.23014">
        <ele>72</ele>
        <time>2017-02-14T16:09:20Z</time>
      </trkpt>
      <trkpt lat="49.41592" lon="1.23008">
        <ele>72</ele>
        <time>2017-02-14T16:09:36Z</time>
      </trkpt>
      <trkpt lat="49.41589" lon="1.23001">
        <ele>72</ele>
        <time>2017-02-14T16:09:36Z</time>
      </trkpt>
      <trkpt lat="49.41585" lon="1.22994">
        <ele>72</ele>
        <time>2017-02-14T16:09:36Z</time>
      </trkpt>
      <trkpt lat="49.41581" lon="1.2299">
        <ele>72</ele>
        <time>2017-02-14T16:09:36Z</time>
      </trkpt>
      <trkpt lat="49.41577" lon="1.22984">
        <ele>72</ele>
        <time>2017-02-14T16:09:52Z</time>
      </trkpt>
      <trkpt lat="49.41574" lon="1.22978">
        <ele>72</ele>
        <time>2017-02-14T16:09:52Z</time>
      </trkpt>
      <trkpt lat="49.4157" lon="1.22972">
        <ele>72</ele>
        <time>2017-02-14T16:09:52Z</time>
      </trkpt>
      <trkpt lat="49.41567" lon="1.22966">
        <ele>72</ele>
        <time>2017-02-14T16:09:52Z</time>
      </trkpt>
      <trkpt lat="49.41564" lon="1.2296">
        <ele>72</ele>
        <time>2017-02-14T16:10:08Z</time>
      </trkpt>
      <trkpt lat="49.41562" lon="1.22952">
        <ele>71</ele>
        <time>2017-02-14T16:10:08Z</time>
      </trkpt>
      <trkpt lat="49.41559" lon="1.22947">
        <ele>71</ele>
        <time>2017-02-14T16:10:08Z</time>
      </trkpt>
      <trkpt lat="49.41555" lon="1.2294">
        <ele>71</ele>
        <time>2017-02-14T16:10:08Z</time>
      </trkpt>
      <trkpt lat="49.41552" lon="1.22934">
        <ele>71</ele>
        <time>2017-02-14T16:10:25Z</time>
      </trkpt>
      <trkpt lat="49.41547" lon="1.22927">
        <ele>71</ele>
        <time>2017-02-14T16:10:25Z</time>
      </trkpt>
      <trkpt lat="49.41543" lon="1.2292">
        <ele>71</ele>
        <time>2017-02-14T16:10:25Z</time>
      </trkpt>
      <trkpt lat="49.41541" lon="1.22916">
        <ele>71</ele>
        <time>2017-02-14T16:10:25Z</time>
      </trkpt>
      <trkpt lat="49.41538" lon="1.22909">
        <ele>71</ele>
        <time>2017-02-14T16:10:40Z</time>
      </trkpt>
      <trkpt lat="49.41534" lon="1.22903">
        <ele>71</ele>
        <time>2017-02-14T16:10:40Z</time>
      </trkpt>
      <trkpt lat="49.4153" lon="1.22898">
        <ele>71</ele>
        <time>2017-02-14T16:10:40Z</time>
      </trkpt>
      <trkpt lat="49.41525" lon="1.22897">
        <ele>71</ele>
        <time>2017-02-14T16:10:40Z</time>
      </trkpt>
      <trkpt lat="49.41519" lon="1.22891">
        <ele>71</ele>
        <time>2017-02-14T16:10:57Z</time>
      </trkpt>
      <trkpt lat="49.41515" lon="1.22888">
        <ele>71</ele>
        <time>2017-02-14T16:10:57Z</time>
      </trkpt>
      <trkpt lat="49.41509" lon="1.22886">
        <ele>71</ele>
        <time>2017-02-14T16:10:57Z</time>
      </trkpt>
      <trkpt lat="49.41504" lon="1.22882">
        <ele>71</ele>
        <time>2017-02-14T16:10:57Z</time>
      </trkpt>
      <trkpt lat="49.41501" lon="1.22879">
        <ele>71</ele>
        <time>2017-02-14T16:11:14Z</time>
      </trkpt>
      <trkpt lat="49.41498" lon="1.22876">
        <ele>71</ele>
        <time>2017-02-14T16:11:14Z</time>
      </trkpt>
      <trkpt lat="49.41493" lon="1.22872">
        <ele>70</ele>
        <time>2017-02-14T16:11:14Z</time>
      </trkpt>
      <trkpt lat="49.41492" lon="1.22868">
        <ele>70</ele>
        <time>2017-02-14T16:11:14Z</time>
      </trkpt>
      <trkpt lat="49.41489" lon="1.22861">
        <ele>70</ele>
        <time>2017-02-14T16:11:28Z</time>
      </trkpt>
      <trkpt lat="49.41487" lon="1.22851">
        <ele>70</ele>
        <time>2017-02-14T16:11:28Z</time>
      </trkpt>
      <trkpt lat="49.41485" lon="1.22844">
        <ele>70</ele>
        <time>2017-02-14T16:11:28Z</time>
      </trkpt>
      <trkpt lat="49.41484" lon="1.22838">
        <ele>70</ele>
        <time>2017-02-14T16:11:28Z</time>
      </trkpt>
      <trkpt lat="49.41477" lon="1.22833">
        <ele>70</ele>
        <time>2017-02-14T16:14:48Z</time>
      </trkpt>
      <trkpt lat="49.41477" lon="1.2283">
        <ele>70</ele>
        <time>2017-02-14T16:14:48Z</time>
      </trkpt>
      <trkpt lat="49.41475" lon="1.22822">
        <ele>70</ele>
        <time>2017-02-14T16:14:48Z</time>
      </trkpt>
      <trkpt lat="49.41472" lon="1.22815">
        <ele>70</ele>
        <time>2017-02-14T16:14:48Z</time>
      </trkpt>
      <trkpt lat="49.41471" lon="1.22806">
        <ele>70</ele>
        <time>2017-02-14T16:14:48Z</time>
      </trkpt>
      <trkpt lat="49.4147" lon="1.22799">
        <ele>70</ele>
        <time>2017-02-14T16:15:04Z</time>
      </trkpt>
      <trkpt lat="49.4147" lon="1.22792">
        <ele>70</ele>
        <time>2017-02-14T16:15:04Z</time>
      </trkpt>
      <trkpt lat="49.41469" lon="1.22784">
        <ele>71</ele>
        <time>2017-02-14T16:15:04Z</time>
      </trkpt>
      <trkpt lat="49.41469" lon="1.22776">
        <ele>71</ele>
        <time>2017-02-14T16:15:04Z</time>
      </trkpt>
      <trkpt lat="49.41468" lon="1.22769">
        <ele>71</ele>
        <time>2017-02-14T16:15:20Z</time>
      </trkpt>
      <trkpt lat="49.41467" lon="1.22763">
        <ele>71</ele>
        <time>2017-02-14T16:15:20Z</time>
      </trkpt>
      <trkpt lat="49.41466" lon="1.22756">
        <ele>71</ele>
        <time>2017-02-14T16:15:20Z</time>
      </trkpt>
      <trkpt lat="49.41466" lon="1.22749">
        <ele>71</ele>
        <time>2017-02-14T16:15:20Z</time>
      </trkpt>
      <trkpt lat="49.41466" lon="1.22742">
        <ele>71</ele>
        <time>2017-02-14T16:15:36Z</time>
      </trkpt>
      <trkpt lat="49.41466" lon="1.22734">
        <ele>71</ele>
        <time>2017-02-14T16:15:36Z</time>
      </trkpt>
      <trkpt lat="49.41467" lon="1.22724">
        <ele>71</ele>
        <time>2017-02-14T16:15:36Z</time>
      </trkpt>
      <trkpt lat="49.41467" lon="1.22719">
        <ele>71</ele>
        <time>2017-02-14T16:15:36Z</time>
      </trkpt>
      <trkpt lat="49.41466" lon="1.22712">
        <ele>71</ele>
        <time>2017-02-14T16:15:53Z</time>
      </trkpt>
      <trkpt lat="49.41465" lon="1.22705">
        <ele>74</ele>
        <time>2017-02-14T16:15:53Z</time>
      </trkpt>
      <trkpt lat="49.41465" lon="1.22694">
        <ele>74</ele>
        <time>2017-02-14T16:15:53Z</time>
      </trkpt>
      <trkpt lat="49.41465" lon="1.22687">
        <ele>74</ele>
        <time>2017-02-14T16:15:53Z</time>
      </trkpt>
      <trkpt lat="49.41465" lon="1.22679">
        <ele>74</ele>
        <time>2017-02-14T16:16:08Z</time>
      </trkpt>
      <trkpt lat="49.41465" lon="1.2267">
        <ele>74</ele>
        <time>2017-02-14T16:16:08Z</time>
      </trkpt>
      <trkpt lat="49.41464" lon="1.22661">
        <ele>74</ele>
        <time>2017-02-14T16:16:08Z</time>
      </trkpt>
      <trkpt lat="49.41464" lon="1.22655">
        <ele>74</ele>
        <time>2017-02-14T16:16:08Z</time>
      </trkpt>
      <trkpt lat="49.41465" lon="1.22648">
        <ele>74</ele>
        <time>2017-02-14T16:16:24Z</time>
      </trkpt>
      <trkpt lat="49.41465" lon="1.2264">
        <ele>74</ele>
        <time>2017-02-14T16:16:24Z</time>
      </trkpt>
      <trkpt lat="49.41466" lon="1.22635">
        <ele>74</ele>
        <time>2017-02-14T16:16:24Z</time>
      </trkpt>
      <trkpt lat="49.41467" lon="1.22623">
        <ele>72</ele>
        <time>2017-02-14T16:16:24Z</time>
      </trkpt>
      <trkpt lat="49.41471" lon="1.22614">
        <ele>72</ele>
        <time>2017-02-14T16:16:40Z</time>
      </trkpt>
      <trkpt lat="49.41473" lon="1.2261">
        <ele>72</ele>
        <time>2017-02-14T16:16:40Z</time>
      </trkpt>
      <trkpt lat="49.41475" lon="1.22601">
        <ele>72</ele>
        <time>2017-02-14T16:16:40Z</time>
      </trkpt>
      <trkpt lat="49.41476" lon="1.22596">
        <ele>72</ele>
        <time>2017-02-14T16:16:40Z</time>
      </trkpt>
      <trkpt lat="49.41477" lon="1.22588">
        <ele>72</ele>
        <time>2017-02-14T16:16:57Z</time>
      </trkpt>
      <trkpt lat="49.41478" lon="1.22578">
        <ele>72</ele>
        <time>2017-02-14T16:16:57Z</time>
      </trkpt>
      <trkpt lat="49.41479" lon="1.22572">
        <ele>72</ele>
        <time>2017-02-14T16:16:57Z</time>
      </trkpt>
      <trkpt lat="49.41479" lon="1.22565">
        <ele>72</ele>
        <time>2017-02-14T16:16:57Z</time>
      </trkpt>
      <trkpt lat="49.41478" lon="1.22556">
        <ele>72</ele>
        <time>2017-02-14T16:17:13Z</time>
      </trkpt>
      <trkpt lat="49.41478" lon="1.22547">
        <ele>72</ele>
        <time>2017-02-14T16:17:13Z</time>
      </trkpt>
      <trkpt lat="49.41477" lon="1.22541">
        <ele>67</ele>
        <time>2017-02-14T16:17:13Z</time>
      </trkpt>
      <trkpt lat="49.41475" lon="1.22531">
        <ele>67</ele>
        <time>2017-02-14T16:17:13Z</time>
      </trkpt>
      <trkpt lat="49.41474" lon="1.22524">
        <ele>67</ele>
        <time>2017-02-14T16:17:30Z</time>
      </trkpt>
      <trkpt lat="49.41473" lon="1.22517">
        <ele>67</ele>
        <time>2017-02-14T16:17:30Z</time>
      </trkpt>
      <trkpt lat="49.41471" lon="1.22507">
        <ele>67</ele>
        <time>2017-02-14T16:17:30Z</time>
      </trkpt>
      <trkpt lat="49.41471" lon="1.22499">
        <ele>67</ele>
        <time>2017-02-14T16:17:30Z</time>
      </trkpt>
      <trkpt lat="49.41471" lon="1.22493">
        <ele>67</ele>
        <time>2017-02-14T16:17:45Z</time>
      </trkpt>
      <trkpt lat="49.41471" lon="1.22483">
        <ele>67</ele>
        <time>2017-02-14T16:17:45Z</time>
      </trkpt>
      <trkpt lat="49.41471" lon="1.22475">
        <ele>67</ele>
        <time>2017-02-14T16:17:45Z</time>
      </trkpt>
      <trkpt lat="49.41472" lon="1.2247">
        <ele>67</ele>
        <time>2017-02-14T16:17:45Z</time>
      </trkpt>
      <trkpt lat="49.41474" lon="1.22464">
        <ele>67</ele>
        <time>2017-02-14T16:18:01Z</time>
      </trkpt>
      <trkpt lat="49.41476" lon="1.22456">
        <ele>68</ele>
        <time>2017-02-14T16:18:01Z</time>
      </trkpt>
      <trkpt lat="49.41476" lon="1.22449">
        <ele>68</ele>
        <time>2017-02-14T16:18:01Z</time>
      </trkpt>
      <trkpt lat="49.41477" lon="1.22438">
        <ele>68</ele>
        <time>2017-02-14T16:18:01Z</time>
      </trkpt>
      <trkpt lat="49.41477" lon="1.22431">
        <ele>68</ele>
        <time>2017-02-14T16:18:17Z</time>
      </trkpt>
      <trkpt lat="49.41478" lon="1.22424">
        <ele>68</ele>
        <time>2017-02-14T16:18:17Z</time>
      </trkpt>
      <trkpt lat="49.41479" lon="1.22418">
        <ele>68</ele>
        <time>2017-02-14T16:18:17Z</time>
      </trkpt>
      <trkpt lat="49.41481" lon="1.22407">
        <ele>68</ele>
        <time>2017-02-14T16:18:17Z</time>
      </trkpt>
      <trkpt lat="49.41482" lon="1.22397">
        <ele>68</ele>
        <time>2017-02-14T16:18:33Z</time>
      </trkpt>
      <trkpt lat="49.41482" lon="1.22391">
        <ele>68</ele>
        <time>2017-02-14T16:18:33Z</time>
      </trkpt>
      <trkpt lat="49.41483" lon="1.22382">
        <ele>68</ele>
        <time>2017-02-14T16:18:33Z</time>
      </trkpt>
      <trkpt lat="49.41483" lon="1.22376">
        <ele>68</ele>
        <time>2017-02-14T16:18:33Z</time>
      </trkpt>
      <trkpt lat="49.41483" lon="1.2237">
        <ele>72</ele>
        <time>2017-02-14T16:18:48Z</time>
      </trkpt>
      <trkpt lat="49.41485" lon="1.2236">
        <ele>72</ele>
        <time>2017-02-14T16:18:48Z</time>
      </trkpt>
      <trkpt lat="49.41486" lon="1.22353">
        <ele>72</ele>
        <time>2017-02-14T16:18:48Z</time>
      </trkpt>
      <trkpt lat="49.41487" lon="1.22348">
        <ele>72</ele>
        <time>2017-02-14T16:18:48Z</time>
      </trkpt>
      <trkpt lat="49.41487" lon="1.22342">
        <ele>72</ele>
        <time>2017-02-14T16:19:05Z</time>
      </trkpt>
      <trkpt lat="49.41489" lon="1.22333">
        <ele>72</ele>
        <time>2017-02-14T16:19:05Z</time>
      </trkpt>
      <trkpt lat="49.4149" lon="1.22324">
        <ele>72</ele>
        <time>2017-02-14T16:19:05Z</time>
      </trkpt>
      <trkpt lat="49.41492" lon="1.22319">
        <ele>72</ele>
        <time>2017-02-14T16:19:05Z</time>
      </trkpt>
      <trkpt lat="49.41493" lon="1.2231">
        <ele>72</ele>
        <time>2017-02-14T16:19:21Z</time>
      </trkpt>
      <trkpt lat="49.41494" lon="1.22304">
        <ele>72</ele>
        <time>2017-02-14T16:19:21Z</time>
      </trkpt>
      <trkpt lat="49.41496" lon="1.22294">
        <ele>72</ele>
        <time>2017-02-14T16:19:21Z</time>
      </trkpt>
      <trkpt lat="49.41496" lon="1.22289">
        <ele>74</ele>
        <time>2017-02-14T16:19:21Z</time>
      </trkpt>
      <trkpt lat="49.41497" lon="1.22283">
        <ele>74</ele>
        <time>2017-02-14T16:19:38Z</time>
      </trkpt>
      <trkpt lat="49.415" lon="1.22274">
        <ele>74</ele>
        <time>2017-02-14T16:19:38Z</time>
      </trkpt>
      <trkpt lat="49.41501" lon="1.22267">
        <ele>74</ele>
        <time>2017-02-14T16:19:38Z</time>
      </trkpt>
      <trkpt lat="49.41501" lon="1.22258">
        <ele>74</ele>
        <time>2017-02-14T16:19:38Z</time>
      </trkpt>
      <trkpt lat="49.41503" lon="1.22253">
        <ele>74</ele>
        <time>2017-02-14T16:19:52Z</time>
      </trkpt>
      <trkpt lat="49.41505" lon="1.22243">
        <ele>74</ele>
        <time>2017-02-14T16:19:52Z</time>
      </trkpt>
      <trkpt lat="49.41504" lon="1.22236">
        <ele>74</ele>
        <time>2017-02-14T16:19:52Z</time>
      </trkpt>
      <trkpt lat="49.41503" lon="1.22228">
        <ele>74</ele>
        <time>2017-02-14T16:19:52Z</time>
      </trkpt>
      <trkpt lat="49.41505" lon="1.22219">
        <ele>74</ele>
        <time>2017-02-14T16:20:13Z</time>
      </trkpt>
      <trkpt lat="49.41507" lon="1.22213">
        <ele>74</ele>
        <time>2017-02-14T16:20:13Z</time>
      </trkpt>
      <trkpt lat="49.41508" lon="1.22205">
        <ele>73</ele>
        <time>2017-02-14T16:20:13Z</time>
      </trkpt>
      <trkpt lat="49.41508" lon="1.22188">
        <ele>73</ele>
        <time>2017-02-14T16:20:13Z</time>
      </trkpt>
      <trkpt lat="49.41509" lon="1.22182">
        <ele>73</ele>
        <time>2017-02-14T16:20:30Z</time>
      </trkpt>
      <trkpt lat="49.41509" lon="1.22174">
        <ele>73</ele>
        <time>2017-02-14T16:20:30Z</time>
      </trkpt>
      <trkpt lat="49.4151" lon="1.22169">
        <ele>73</ele>
        <time>2017-02-14T16:20:30Z</time>
      </trkpt>
      <trkpt lat="49.4151" lon="1.22159">
        <ele>73</ele>
        <time>2017-02-14T16:20:30Z</time>
      </trkpt>
      <trkpt lat="49.4151" lon="1.22153">
        <ele>73</ele>
        <time>2017-02-14T16:20:44Z</time>
      </trkpt>
      <trkpt lat="49.41512" lon="1.22145">
        <ele>73</ele>
        <time>2017-02-14T16:20:44Z</time>
      </trkpt>
      <trkpt lat="49.41514" lon="1.22136">
        <ele>73</ele>
        <time>2017-02-14T16:20:44Z</time>
      </trkpt>
      <trkpt lat="49.41515" lon="1.22132">
        <ele>73</ele>
        <time>2017-02-14T16:20:44Z</time>
      </trkpt>
      <trkpt lat="49.41518" lon="1.22124">
        <ele>73</ele>
        <time>2017-02-14T16:21:01Z</time>
      </trkpt>
      <trkpt lat="49.41518" lon="1.22119">
        <ele>73</ele>
        <time>2017-02-14T16:21:01Z</time>
      </trkpt>
      <trkpt lat="49.4152" lon="1.2211">
        <ele>73</ele>
        <time>2017-02-14T16:21:01Z</time>
      </trkpt>
      <trkpt lat="49.41522" lon="1.22103">
        <ele>73</ele>
        <time>2017-02-14T16:21:01Z</time>
      </trkpt>
      <trkpt lat="49.41523" lon="1.22094">
        <ele>73</ele>
        <time>2017-02-14T16:21:18Z</time>
      </trkpt>
      <trkpt lat="49.41523" lon="1.22083">
        <ele>73</ele>
        <time>2017-02-14T16:21:18Z</time>
      </trkpt>
      <trkpt lat="49.41523" lon="1.22075">
        <ele>73</ele>
        <time>2017-02-14T16:21:18Z</time>
      </trkpt>
      <trkpt lat="49.41526" lon="1.2207">
        <ele>73</ele>
        <time>2017-02-14T16:21:18Z</time>
      </trkpt>
      <trkpt lat="49.41527" lon="1.22063">
        <ele>73</ele>
        <time>2017-02-14T16:21:33Z</time>
      </trkpt>
      <trkpt lat="49.41526" lon="1.22056">
        <ele>73</ele>
        <time>2017-02-14T16:21:33Z</time>
      </trkpt>
      <trkpt lat="49.41526" lon="1.22047">
        <ele>73</ele>
        <time>2017-02-14T16:21:33Z</time>
      </trkpt>
      <trkpt lat="49.41526" lon="1.22039">
        <ele>71</ele>
        <time>2017-02-14T16:21:33Z</time>
      </trkpt>
      <trkpt lat="49.41527" lon="1.22032">
        <ele>71</ele>
        <time>2017-02-14T16:21:49Z</time>
      </trkpt>
      <trkpt lat="49.41527" lon="1.22024">
        <ele>71</ele>
        <time>2017-02-14T16:21:49Z</time>
      </trkpt>
      <trkpt lat="49.41524" lon="1.22013">
        <ele>71</ele>
        <time>2017-02-14T16:21:49Z</time>
      </trkpt>
      <trkpt lat="49.41524" lon="1.22005">
        <ele>71</ele>
        <time>2017-02-14T16:21:49Z</time>
      </trkpt>
      <trkpt lat="49.41524" lon="1.21998">
        <ele>71</ele>
        <time>2017-02-14T16:22:04Z</time>
      </trkpt>
      <trkpt lat="49.41524" lon="1.2199">
        <ele>71</ele>
        <time>2017-02-14T16:22:04Z</time>
      </trkpt>
      <trkpt lat="49.41525" lon="1.21983">
        <ele>71</ele>
        <time>2017-02-14T16:22:04Z</time>
      </trkpt>
      <trkpt lat="49.41524" lon="1.2198">
        <ele>71</ele>
        <time>2017-02-14T16:22:04Z</time>
      </trkpt>
      <trkpt lat="49.41523" lon="1.21971">
        <ele>71</ele>
        <time>2017-02-14T16:22:20Z</time>
      </trkpt>
      <trkpt lat="49.41523" lon="1.21967">
        <ele>71</ele>
        <time>2017-02-14T16:22:20Z</time>
      </trkpt>
      <trkpt lat="49.41522" lon="1.21957">
        <ele>68</ele>
        <time>2017-02-14T16:22:20Z</time>
      </trkpt>
      <trkpt lat="49.41522" lon="1.2195">
        <ele>68</ele>
        <time>2017-02-14T16:22:20Z</time>
      </trkpt>
      <trkpt lat="49.41522" lon="1.21941">
        <ele>68</ele>
        <time>2017-02-14T16:22:38Z</time>
      </trkpt>
      <trkpt lat="49.4152" lon="1.21929">
        <ele>68</ele>
        <time>2017-02-14T16:22:38Z</time>
      </trkpt>
      <trkpt lat="49.4152" lon="1.21923">
        <ele>68</ele>
        <time>2017-02-14T16:22:38Z</time>
      </trkpt>
      <trkpt lat="49.41521" lon="1.21914">
        <ele>68</ele>
        <time>2017-02-14T16:22:38Z</time>
      </trkpt>
      <trkpt lat="49.41521" lon="1.21909">
        <ele>68</ele>
        <time>2017-02-14T16:22:53Z</time>
      </trkpt>
      <trkpt lat="49.4152" lon="1.21904">
        <ele>68</ele>
        <time>2017-02-14T16:22:54Z</time>
      </trkpt>
      <trkpt lat="49.41517" lon="1.21896">
        <ele>68</ele>
        <time>2017-02-14T16:22:54Z</time>
      </trkpt>
      <trkpt lat="49.41518" lon="1.21889">
        <ele>68</ele>
        <time>2017-02-14T16:22:54Z</time>
      </trkpt>
      <trkpt lat="49.41517" lon="1.21885">
        <ele>68</ele>
        <time>2017-02-14T16:23:08Z</time>
      </trkpt>
      <trkpt lat="49.41515" lon="1.21878">
        <ele>68</ele>
        <time>2017-02-14T16:23:08Z</time>
      </trkpt>
      <trkpt lat="49.41511" lon="1.21871">
        <ele>69</ele>
        <time>2017-02-14T16:23:08Z</time>
      </trkpt>
      <trkpt lat="49.41509" lon="1.21865">
        <ele>69</ele>
        <time>2017-02-14T16:23:08Z</time>
      </trkpt>
      <trkpt lat="49.41507" lon="1.21861">
        <ele>69</ele>
        <time>2017-02-14T16:25:00Z</time>
      </trkpt>
      <trkpt lat="49.41506" lon="1.21855">
        <ele>69</ele>
        <time>2017-02-14T16:25:00Z</time>
      </trkpt>
      <trkpt lat="49.41507" lon="1.21849">
        <ele>69</ele>
        <time>2017-02-14T16:25:00Z</time>
      </trkpt>
      <trkpt lat="49.41507" lon="1.21843">
        <ele>69</ele>
        <time>2017-02-14T16:25:00Z</time>
      </trkpt>
      <trkpt lat="49.41507" lon="1.21839">
        <ele>69</ele>
        <time>2017-02-14T16:25:00Z</time>
      </trkpt>
      <trkpt lat="49.41506" lon="1.21832">
        <ele>69</ele>
        <time>2017-02-14T16:25:16Z</time>
      </trkpt>
      <trkpt lat="49.41505" lon="1.21825">
        <ele>69</ele>
        <time>2017-02-14T16:25:16Z</time>
      </trkpt>
      <trkpt lat="49.41505" lon="1.21817">
        <ele>69</ele>
        <time>2017-02-14T16:25:16Z</time>
      </trkpt>
      <trkpt lat="49.41504" lon="1.2181">
        <ele>69</ele>
        <time>2017-02-14T16:25:16Z</time>
      </trkpt>
      <trkpt lat="49.41503" lon="1.21801">
        <ele>69</ele>
        <time>2017-02-14T16:25:32Z</time>
      </trkpt>
      <trkpt lat="49.41502" lon="1.21794">
        <ele>69</ele>
        <time>2017-02-14T16:25:32Z</time>
      </trkpt>
      <trkpt lat="49.41501" lon="1.21788">
        <ele>69</ele>
        <time>2017-02-14T16:25:32Z</time>
      </trkpt>
      <trkpt lat="49.41499" lon="1.2178">
        <ele>69</ele>
        <time>2017-02-14T16:25:32Z</time>
      </trkpt>
      <trkpt lat="49.41497" lon="1.21773">
        <ele>69</ele>
        <time>2017-02-14T16:25:48Z</time>
      </trkpt>
      <trkpt lat="49.41494" lon="1.21764">
        <ele>69</ele>
        <time>2017-02-14T16:25:48Z</time>
      </trkpt>
      <trkpt lat="49.41492" lon="1.21756">
        <ele>69</ele>
        <time>2017-02-14T16:25:48Z</time>
      </trkpt>
      <trkpt lat="49.41489" lon="1.21747">
        <ele>69</ele>
        <time>2017-02-14T16:25:48Z</time>
      </trkpt>
      <trkpt lat="49.41486" lon="1.2174">
        <ele>69</ele>
        <time>2017-02-14T16:26:04Z</time>
      </trkpt>
      <trkpt lat="49.41484" lon="1.21733">
        <ele>69</ele>
        <time>2017-02-14T16:26:04Z</time>
      </trkpt>
      <trkpt lat="49.41481" lon="1.21728">
        <ele>69</ele>
        <time>2017-02-14T16:26:04Z</time>
      </trkpt>
      <trkpt lat="49.4148" lon="1.21726">
        <ele>69</ele>
        <time>2017-02-14T16:26:04Z</time>
      </trkpt>
      <trkpt lat="49.41478" lon="1.21719">
        <ele>69</ele>
        <time>2017-02-14T16:26:20Z</time>
      </trkpt>
      <trkpt lat="49.41475" lon="1.21711">
        <ele>69</ele>
        <time>2017-02-14T16:26:20Z</time>
      </trkpt>
      <trkpt lat="49.41472" lon="1.21704">
        <ele>64</ele>
        <time>2017-02-14T16:26:20Z</time>
      </trkpt>
      <trkpt lat="49.41469" lon="1.21696">
        <ele>64</ele>
        <time>2017-02-14T16:26:20Z</time>
      </trkpt>
      <trkpt lat="49.41467" lon="1.2169">
        <ele>64</ele>
        <time>2017-02-14T16:26:36Z</time>
      </trkpt>
      <trkpt lat="49.41465" lon="1.21685">
        <ele>64</ele>
        <time>2017-02-14T16:26:36Z</time>
      </trkpt>
      <trkpt lat="49.41463" lon="1.2168">
        <ele>64</ele>
        <time>2017-02-14T16:26:36Z</time>
      </trkpt>
      <trkpt lat="49.41461" lon="1.21673">
        <ele>64</ele>
        <time>2017-02-14T16:26:36Z</time>
      </trkpt>
      <trkpt lat="49.41458" lon="1.21666">
        <ele>82</ele>
        <time>2017-02-14T16:26:52Z</time>
      </trkpt>
      <trkpt lat="49.41455" lon="1.21658">
        <ele>82</ele>
        <time>2017-02-14T16:26:52Z</time>
      </trkpt>
      <trkpt lat="49.41453" lon="1.2165">
        <ele>82</ele>
        <time>2017-02-14T16:26:52Z</time>
      </trkpt>
      <trkpt lat="49.4145" lon="1.21641">
        <ele>82</ele>
        <time>2017-02-14T16:26:52Z</time>
      </trkpt>
      <trkpt lat="49.41448" lon="1.21634">
        <ele>82</ele>
        <time>2017-02-14T16:27:08Z</time>
      </trkpt>
      <trkpt lat="49.41447" lon="1.21627">
        <ele>82</ele>
        <time>2017-02-14T16:27:08Z</time>
      </trkpt>
      <trkpt lat="49.41445" lon="1.21619">
        <ele>79</ele>
        <time>2017-02-14T16:27:08Z</time>
      </trkpt>
      <trkpt lat="49.41444" lon="1.21612">
        <ele>79</ele>
        <time>2017-02-14T16:27:08Z</time>
      </trkpt>
      <trkpt lat="49.41443" lon="1.21604">
        <ele>79</ele>
        <time>2017-02-14T16:27:24Z</time>
      </trkpt>
      <trkpt lat="49.41442" lon="1.21596">
        <ele>79</ele>
        <time>2017-02-14T16:27:24Z</time>
      </trkpt>
      <trkpt lat="49.41442" lon="1.21588">
        <ele>79</ele>
        <time>2017-02-14T16:27:24Z</time>
      </trkpt>
      <trkpt lat="49.41442" lon="1.21581">
        <ele>79</ele>
        <time>2017-02-14T16:27:24Z</time>
      </trkpt>
      <trkpt lat="49.41442" lon="1.21573">
        <ele>79</ele>
        <time>2017-02-14T16:27:40Z</time>
      </trkpt>
      <trkpt lat="49.41441" lon="1.21566">
        <ele>79</ele>
        <time>2017-02-14T16:27:40Z</time>
      </trkpt>
      <trkpt lat="49.41441" lon="1.2156">
        <ele>79</ele>
        <time>2017-02-14T16:27:40Z</time>
      </trkpt>
      <trkpt lat="49.4144" lon="1.21553">
        <ele>79</ele>
        <time>2017-02-14T16:27:40Z</time>
      </trkpt>
      <trkpt lat="49.41439" lon="1.21546">
        <ele>79</ele>
        <time>2017-02-14T16:27:56Z</time>
      </trkpt>
      <trkpt lat="49.41439" lon="1.21537">
        <ele>77</ele>
        <time>2017-02-14T16:27:56Z</time>
      </trkpt>
      <trkpt lat="49.41438" lon="1.21527">
        <ele>77</ele>
        <time>2017-02-14T16:27:56Z</time>
      </trkpt>
      <trkpt lat="49.41439" lon="1.2152">
        <ele>77</ele>
        <time>2017-02-14T16:27:56Z</time>
      </trkpt>
      <trkpt lat="49.41438" lon="1.21514">
        <ele>77</ele>
        <time>2017-02-14T16:28:12Z</time>
      </trkpt>
      <trkpt lat="49.41438" lon="1.21506">
        <ele>77</ele>
        <time>2017-02-14T16:28:12Z</time>
      </trkpt>
      <trkpt lat="49.41439" lon="1.215">
        <ele>77</ele>
        <time>2017-02-14T16:28:12Z</time>
      </trkpt>
      <trkpt lat="49.41439" lon="1.21494">
        <ele>77</ele>
        <time>2017-02-14T16:28:12Z</time>
      </trkpt>
      <trkpt lat="49.41438" lon="1.21486">
        <ele>77</ele>
        <time>2017-02-14T16:28:28Z</time>
      </trkpt>
      <trkpt lat="49.41438" lon="1.21479">
        <ele>77</ele>
        <time>2017-02-14T16:28:28Z</time>
      </trkpt>
      <trkpt lat="49.41437" lon="1.21475">
        <ele>77</ele>
        <time>2017-02-14T16:28:28Z</time>
      </trkpt>
      <trkpt lat="49.41437" lon="1.21469">
        <ele>77</ele>
        <time>2017-02-14T16:28:28Z</time>
      </trkpt>
      <trkpt lat="49.41437" lon="1.2146">
        <ele>77</ele>
        <time>2017-02-14T16:28:44Z</time>
      </trkpt>
      <trkpt lat="49.41437" lon="1.2145">
        <ele>75</ele>
        <time>2017-02-14T16:28:44Z</time>
      </trkpt>
      <trkpt lat="49.41436" lon="1.21442">
        <ele>75</ele>
        <time>2017-02-14T16:28:44Z</time>
      </trkpt>
      <trkpt lat="49.41435" lon="1.21435">
        <ele>75</ele>
        <time>2017-02-14T16:28:44Z</time>
      </trkpt>
      <trkpt lat="49.41436" lon="1.21428">
        <ele>75</ele>
        <time>2017-02-14T16:29:00Z</time>
      </trkpt>
      <trkpt lat="49.41436" lon="1.21421">
        <ele>75</ele>
        <time>2017-02-14T16:29:00Z</time>
      </trkpt>
      <trkpt lat="49.41437" lon="1.21416">
        <ele>75</ele>
        <time>2017-02-14T16:29:00Z</time>
      </trkpt>
      <trkpt lat="49.41437" lon="1.21408">
        <ele>75</ele>
        <time>2017-02-14T16:29:00Z</time>
      </trkpt>
      <trkpt lat="49.41437" lon="1.214">
        <ele>75</ele>
        <time>2017-02-14T16:29:16Z</time>
      </trkpt>
      <trkpt lat="49.41437" lon="1.21391">
        <ele>75</ele>
        <time>2017-02-14T16:29:16Z</time>
      </trkpt>
      <trkpt lat="49.41438" lon="1.21382">
        <ele>75</ele>
        <time>2017-02-14T16:29:16Z</time>
      </trkpt>
      <trkpt lat="49.4144" lon="1.21374">
        <ele>74</ele>
        <time>2017-02-14T16:29:16Z</time>
      </trkpt>
      <trkpt lat="49.41443" lon="1.21368">
        <ele>74</ele>
        <time>2017-02-14T16:29:32Z</time>
      </trkpt>
      <trkpt lat="49.41443" lon="1.21361">
        <ele>74</ele>
        <time>2017-02-14T16:29:32Z</time>
      </trkpt>
      <trkpt lat="49.41445" lon="1.21355">
        <ele>74</ele>
        <time>2017-02-14T16:29:32Z</time>
      </trkpt>
      <trkpt lat="49.41447" lon="1.21349">
        <ele>74</ele>
        <time>2017-02-14T16:29:32Z</time>
      </trkpt>
      <trkpt lat="49.41449" lon="1.2134">
        <ele>74</ele>
        <time>2017-02-14T16:29:48Z</time>
      </trkpt>
      <trkpt lat="49.41451" lon="1.21334">
        <ele>74</ele>
        <time>2017-02-14T16:29:48Z</time>
      </trkpt>
      <trkpt lat="49.41452" lon="1.21327">
        <ele>74</ele>
        <time>2017-02-14T16:29:48Z</time>
      </trkpt>
      <trkpt lat="49.41454" lon="1.21318">
        <ele>74</ele>
        <time>2017-02-14T16:29:48Z</time>
      </trkpt>
      <trkpt lat="49.41455" lon="1.2131">
        <ele>74</ele>
        <time>2017-02-14T16:30:04Z</time>
      </trkpt>
      <trkpt lat="49.41455" lon="1.21306">
        <ele>74</ele>
        <time>2017-02-14T16:30:04Z</time>
      </trkpt>
      <trkpt lat="49.41456" lon="1.213">
        <ele>74</ele>
        <time>2017-02-14T16:30:04Z</time>
      </trkpt>
      <trkpt lat="49.41459" lon="1.21294">
        <ele>62</ele>
        <time>2017-02-14T16:30:04Z</time>
      </trkpt>
      <trkpt lat="49.41461" lon="1.21286">
        <ele>62</ele>
        <time>2017-02-14T16:30:20Z</time>
      </trkpt>
      <trkpt lat="49.41462" lon="1.21278">
        <ele>62</ele>
        <time>2017-02-14T16:30:20Z</time>
      </trkpt>
      <trkpt lat="49.41464" lon="1.21272">
        <ele>62</ele>
        <time>2017-02-14T16:30:20Z</time>
      </trkpt>
      <trkpt lat="49.41466" lon="1.21264">
        <ele>62</ele>
        <time>2017-02-14T16:30:20Z</time>
      </trkpt>
      <trkpt lat="49.41467" lon="1.21258">
        <ele>62</ele>
        <time>2017-02-14T16:30:36Z</time>
      </trkpt>
      <trkpt lat="49.41468" lon="1.21252">
        <ele>62</ele>
        <time>2017-02-14T16:30:36Z</time>
      </trkpt>
      <trkpt lat="49.41469" lon="1.21245">
        <ele>62</ele>
        <time>2017-02-14T16:30:36Z</time>
      </trkpt>
      <trkpt lat="49.41469" lon="1.21239">
        <ele>62</ele>
        <time>2017-02-14T16:30:36Z</time>
      </trkpt>
      <trkpt lat="49.41472" lon="1.21233">
        <ele>62</ele>
        <time>2017-02-14T16:30:52Z</time>
      </trkpt>
      <trkpt lat="49.41473" lon="1.21226">
        <ele>62</ele>
        <time>2017-02-14T16:30:52Z</time>
      </trkpt>
      <trkpt lat="49.41474" lon="1.21219">
        <ele>62</ele>
        <time>2017-02-14T16:30:52Z</time>
      </trkpt>
      <trkpt lat="49.41476" lon="1.21211">
        <ele>62</ele>
        <time>2017-02-14T16:30:52Z</time>
      </trkpt>
      <trkpt lat="49.41477" lon="1.21204">
        <ele>64</ele>
        <time>2017-02-14T16:31:08Z</time>
      </trkpt>
      <trkpt lat="49.41479" lon="1.21198">
        <ele>64</ele>
        <time>2017-02-14T16:31:08Z</time>
      </trkpt>
      <trkpt lat="49.4148" lon="1.21191">
        <ele>64</ele>
        <time>2017-02-14T16:31:08Z</time>
      </trkpt>
      <trkpt lat="49.41482" lon="1.21183">
        <ele>64</ele>
        <time>2017-02-14T16:31:08Z</time>
      </trkpt>
      <trkpt lat="49.41483" lon="1.21177">
        <ele>64</ele>
        <time>2017-02-14T16:31:24Z</time>
      </trkpt>
      <trkpt lat="49.41485" lon="1.21171">
        <ele>64</ele>
        <time>2017-02-14T16:31:24Z</time>
      </trkpt>
      <trkpt lat="49.41489" lon="1.21165">
        <ele>64</ele>
        <time>2017-02-14T16:31:24Z</time>
      </trkpt>
      <trkpt lat="49.41493" lon="1.21156">
        <ele>64</ele>
        <time>2017-02-14T16:31:24Z</time>
      </trkpt>
      <trkpt lat="49.41494" lon="1.2115">
        <ele>64</ele>
        <time>2017-02-14T16:31:40Z</time>
      </trkpt>
      <trkpt lat="49.41495" lon="1.21143">
        <ele>64</ele>
        <time>2017-02-14T16:31:40Z</time>
      </trkpt>
      <trkpt lat="49.41498" lon="1.21135">
        <ele>64</ele>
        <time>2017-02-14T16:31:40Z</time>
      </trkpt>
      <trkpt lat="49.41499" lon="1.21127">
        <ele>64</ele>
        <time>2017-02-14T16:31:40Z</time>
      </trkpt>
      <trkpt lat="49.41501" lon="1.21119">
        <ele>65</ele>
        <time>2017-02-14T16:31:58Z</time>
      </trkpt>
      <trkpt lat="49.41502" lon="1.21115">
        <ele>65</ele>
        <time>2017-02-14T16:31:58Z</time>
      </trkpt>
      <trkpt lat="49.41504" lon="1.21105">
        <ele>65</ele>
        <time>2017-02-14T16:31:58Z</time>
      </trkpt>
      <trkpt lat="49.41506" lon="1.21098">
        <ele>65</ele>
        <time>2017-02-14T16:31:58Z</time>
      </trkpt>
      <trkpt lat="49.41508" lon="1.21094">
        <ele>65</ele>
        <time>2017-02-14T16:32:13Z</time>
      </trkpt>
      <trkpt lat="49.41511" lon="1.21087">
        <ele>65</ele>
        <time>2017-02-14T16:32:13Z</time>
      </trkpt>
      <trkpt lat="49.41512" lon="1.21082">
        <ele>65</ele>
        <time>2017-02-14T16:32:13Z</time>
      </trkpt>
      <trkpt lat="49.41515" lon="1.21075">
        <ele>65</ele>
        <time>2017-02-14T16:32:13Z</time>
      </trkpt>
      <trkpt lat="49.41518" lon="1.21065">
        <ele>65</ele>
        <time>2017-02-14T16:32:29Z</time>
      </trkpt>
      <trkpt lat="49.4152" lon="1.21061">
        <ele>65</ele>
        <time>2017-02-14T16:32:29Z</time>
      </trkpt>
      <trkpt lat="49.41523" lon="1.21053">
        <ele>65</ele>
        <time>2017-02-14T16:32:29Z</time>
      </trkpt>
      <trkpt lat="49.41523" lon="1.21046">
        <ele>65</ele>
        <time>2017-02-14T16:32:29Z</time>
      </trkpt>
      <trkpt lat="49.41523" lon="1.21038">
        <ele>64</ele>
        <time>2017-02-14T16:32:45Z</time>
      </trkpt>
      <trkpt lat="49.41523" lon="1.21032">
        <ele>64</ele>
        <time>2017-02-14T16:32:45Z</time>
      </trkpt>
      <trkpt lat="49.41525" lon="1.21025">
        <ele>64</ele>
        <time>2017-02-14T16:32:45Z</time>
      </trkpt>
      <trkpt lat="49.41527" lon="1.21018">
        <ele>64</ele>
        <time>2017-02-14T16:32:45Z</time>
      </trkpt>
      <trkpt lat="49.41529" lon="1.21011">
        <ele>64</ele>
        <time>2017-02-14T16:33:00Z</time>
      </trkpt>
      <trkpt lat="49.4153" lon="1.21002">
        <ele>64</ele>
        <time>2017-02-14T16:33:00Z</time>
      </trkpt>
      <trkpt lat="49.41531" lon="1.20995">
        <ele>64</ele>
        <time>2017-02-14T16:33:02Z</time>
      </trkpt>
      <trkpt lat="49.41532" lon="1.20984">
        <ele>64</ele>
        <time>2017-02-14T16:33:02Z</time>
      </trkpt>
      <trkpt lat="49.41533" lon="1.20979">
        <ele>64</ele>
        <time>2017-02-14T16:33:16Z</time>
      </trkpt>
      <trkpt lat="49.41529" lon="1.20976">
        <ele>64</ele>
        <time>2017-02-14T16:33:16Z</time>
      </trkpt>
      <trkpt lat="49.41525" lon="1.20975">
        <ele>64</ele>
        <time>2017-02-14T16:33:16Z</time>
      </trkpt>
      <trkpt lat="49.41523" lon="1.20971">
        <ele>64</ele>
        <time>2017-02-14T16:33:16Z</time>
      </trkpt>
      <trkpt lat="49.41522" lon="1.20964">
        <ele>64</ele>
        <time>2017-02-14T16:33:34Z</time>
      </trkpt>
      <trkpt lat="49.41522" lon="1.20957">
        <ele>63</ele>
        <time>2017-02-14T16:33:34Z</time>
      </trkpt>
      <trkpt lat="49.41523" lon="1.20953">
        <ele>63</ele>
        <time>2017-02-14T16:33:34Z</time>
      </trkpt>
      <trkpt lat="49.41523" lon="1.20942">
        <ele>63</ele>
        <time>2017-02-14T16:33:34Z</time>
      </trkpt>
      <trkpt lat="49.41521" lon="1.20935">
        <ele>63</ele>
        <time>2017-02-14T16:33:49Z</time>
      </trkpt>
      <trkpt lat="49.41521" lon="1.20929">
        <ele>63</ele>
        <time>2017-02-14T16:33:49Z</time>
      </trkpt>
      <trkpt lat="49.4152" lon="1.20919">
        <ele>63</ele>
        <time>2017-02-14T16:33:49Z</time>
      </trkpt>
      <trkpt lat="49.41518" lon="1.20913">
        <ele>63</ele>
        <time>2017-02-14T16:33:49Z</time>
      </trkpt>
      <trkpt lat="49.41515" lon="1.20907">
        <ele>63</ele>
        <time>2017-02-14T16:34:05Z</time>
      </trkpt>
      <trkpt lat="49.41515" lon="1.209">
        <ele>63</ele>
        <time>2017-02-14T16:34:05Z</time>
      </trkpt>
      <trkpt lat="49.41514" lon="1.20894">
        <ele>63</ele>
        <time>2017-02-14T16:34:05Z</time>
      </trkpt>
      <trkpt lat="49.41515" lon="1.2089">
        <ele>63</ele>
        <time>2017-02-14T16:34:05Z</time>
      </trkpt>
      <trkpt lat="49.41513" lon="1.20883">
        <ele>63</ele>
        <time>2017-02-14T16:34:20Z</time>
      </trkpt>
      <trkpt lat="49.41513" lon="1.20877">
        <ele>63</ele>
        <time>2017-02-14T16:34:20Z</time>
      </trkpt>
      <trkpt lat="49.41512" lon="1.20871">
        <ele>61</ele>
        <time>2017-02-14T16:34:20Z</time>
      </trkpt>
      <trkpt lat="49.41512" lon="1.20864">
        <ele>61</ele>
        <time>2017-02-14T16:34:20Z</time>
      </trkpt>
      <trkpt lat="49.41513" lon="1.20857">
        <ele>61</ele>
        <time>2017-02-14T16:34:37Z</time>
      </trkpt>
      <trkpt lat="49.4151" lon="1.2085">
        <ele>61</ele>
        <time>2017-02-14T16:34:37Z</time>
      </trkpt>
      <trkpt lat="49.41508" lon="1.20838">
        <ele>61</ele>
        <time>2017-02-14T16:34:37Z</time>
      </trkpt>
      <trkpt lat="49.41507" lon="1.20833">
        <ele>61</ele>
        <time>2017-02-14T16:34:37Z</time>
      </trkpt>
      <trkpt lat="49.41506" lon="1.20825">
        <ele>61</ele>
        <time>2017-02-14T16:34:53Z</time>
      </trkpt>
      <trkpt lat="49.41506" lon="1.20817">
        <ele>61</ele>
        <time>2017-02-14T16:34:53Z</time>
      </trkpt>
      <trkpt lat="49.41505" lon="1.20809">
        <ele>61</ele>
        <time>2017-02-14T16:34:53Z</time>
      </trkpt>
      <trkpt lat="49.41505" lon="1.20804">
        <ele>61</ele>
        <time>2017-02-14T16:34:53Z</time>
      </trkpt>
      <trkpt lat="49.41504" lon="1.20795">
        <ele>61</ele>
        <time>2017-02-14T16:35:09Z</time>
      </trkpt>
      <trkpt lat="49.41503" lon="1.20789">
        <ele>58</ele>
        <time>2017-02-14T16:35:09Z</time>
      </trkpt>
      <trkpt lat="49.41503" lon="1.20781">
        <ele>58</ele>
        <time>2017-02-14T16:35:09Z</time>
      </trkpt>
      <trkpt lat="49.41504" lon="1.20776">
        <ele>58</ele>
        <time>2017-02-14T16:35:09Z</time>
      </trkpt>
      <trkpt lat="49.41504" lon="1.20767">
        <ele>58</ele>
        <time>2017-02-14T16:35:24Z</time>
      </trkpt>
      <trkpt lat="49.41504" lon="1.20762">
        <ele>58</ele>
        <time>2017-02-14T16:35:24Z</time>
      </trkpt>
      <trkpt lat="49.41503" lon="1.2075">
        <ele>58</ele>
        <time>2017-02-14T16:35:24Z</time>
      </trkpt>
      <trkpt lat="49.41502" lon="1.20745">
        <ele>58</ele>
        <time>2017-02-14T16:35:24Z</time>
      </trkpt>
      <trkpt lat="49.41501" lon="1.20736">
        <ele>58</ele>
        <time>2017-02-14T16:35:41Z</time>
      </trkpt>
      <trkpt lat="49.415" lon="1.2073">
        <ele>58</ele>
        <time>2017-02-14T16:35:41Z</time>
      </trkpt>
      <trkpt lat="49.415" lon="1.2072">
        <ele>58</ele>
        <time>2017-02-14T16:35:41Z</time>
      </trkpt>
      <trkpt lat="49.41498" lon="1.20715">
        <ele>58</ele>
        <time>2017-02-14T16:35:41Z</time>
      </trkpt>
      <trkpt lat="49.41497" lon="1.20705">
        <ele>58</ele>
        <time>2017-02-14T16:35:58Z</time>
      </trkpt>
      <trkpt lat="49.41496" lon="1.207">
        <ele>58</ele>
        <time>2017-02-14T16:35:58Z</time>
      </trkpt>
      <trkpt lat="49.41495" lon="1.20693">
        <ele>58</ele>
        <time>2017-02-14T16:35:58Z</time>
      </trkpt>
      <trkpt lat="49.41493" lon="1.20682">
        <ele>58</ele>
        <time>2017-02-14T16:35:58Z</time>
      </trkpt>
      <trkpt lat="49.41492" lon="1.20678">
        <ele>58</ele>
        <time>2017-02-14T16:36:13Z</time>
      </trkpt>
      <trkpt lat="49.4149" lon="1.20671">
        <ele>58</ele>
        <time>2017-02-14T16:36:13Z</time>
      </trkpt>
      <trkpt lat="49.41487" lon="1.20664">
        <ele>58</ele>
        <time>2017-02-14T16:36:13Z</time>
      </trkpt>
      <trkpt lat="49.41482" lon="1.20662">
        <ele>58</ele>
        <time>2017-02-14T16:36:13Z</time>
      </trkpt>
      <trkpt lat="49.41476" lon="1.20653">
        <ele>58</ele>
        <time>2017-02-14T16:36:29Z</time>
      </trkpt>
      <trkpt lat="49.41476" lon="1.20647">
        <ele>58</ele>
        <time>2017-02-14T16:36:29Z</time>
      </trkpt>
      <trkpt lat="49.41478" lon="1.2064">
        <ele>58</ele>
        <time>2017-02-14T16:36:29Z</time>
      </trkpt>
      <trkpt lat="49.41478" lon="1.2064">
        <ele>58</ele>
        <time>2017-02-14T16:36:29Z</time>
      </trkpt>
      <trkpt lat="49.41478" lon="1.2064">
        <ele>58</ele>
        <time>2017-02-14T16:37:17Z</time>
      </trkpt>
      <trkpt lat="49.41478" lon="1.2064">
        <ele>58</ele>
        <time>2017-02-14T16:37:17Z</time>
      </trkpt>
      <trkpt lat="49.41478" lon="1.20637">
        <ele>58</ele>
        <time>2017-02-14T16:37:17Z</time>
      </trkpt>
      <trkpt lat="49.41479" lon="1.20633">
        <ele>58</ele>
        <time>2017-02-14T16:37:17Z</time>
      </trkpt>
      <trkpt lat="49.41479" lon="1.20624">
        <ele>58</ele>
        <time>2017-02-14T16:37:17Z</time>
      </trkpt>
      <trkpt lat="49.41473" lon="1.20613">
        <ele>58</ele>
        <time>2017-02-14T16:37:33Z</time>
      </trkpt>
      <trkpt lat="49.41471" lon="1.20608">
        <ele>58</ele>
        <time>2017-02-14T16:37:33Z</time>
      </trkpt>
      <trkpt lat="49.41471" lon="1.20599">
        <ele>58</ele>
        <time>2017-02-14T16:37:34Z</time>
      </trkpt>
      <trkpt lat="49.41469" lon="1.20591">
        <ele>58</ele>
        <time>2017-02-14T16:37:34Z</time>
      </trkpt>
      <trkpt lat="49.41468" lon="1.20583">
        <ele>58</ele>
        <time>2017-02-14T16:37:50Z</time>
      </trkpt>
      <trkpt lat="49.41466" lon="1.20577">
        <ele>58</ele>
        <time>2017-02-14T16:37:50Z</time>
      </trkpt>
      <trkpt lat="49.41465" lon="1.20569">
        <ele>58</ele>
        <time>2017-02-14T16:37:50Z</time>
      </trkpt>
      <trkpt lat="49.41463" lon="1.2056">
        <ele>58</ele>
        <time>2017-02-14T16:37:50Z</time>
      </trkpt>
      <trkpt lat="49.41462" lon="1.20553">
        <ele>58</ele>
        <time>2017-02-14T16:38:05Z</time>
      </trkpt>
      <trkpt lat="49.41461" lon="1.20544">
        <ele>58</ele>
        <time>2017-02-14T16:38:06Z</time>
      </trkpt>
      <trkpt lat="49.4146" lon="1.20539">
        <ele>57</ele>
        <time>2017-02-14T16:38:06Z</time>
      </trkpt>
      <trkpt lat="49.41458" lon="1.20529">
        <ele>57</ele>
        <time>2017-02-14T16:38:06Z</time>
      </trkpt>
      <trkpt lat="49.41457" lon="1.20522">
        <ele>57</ele>
        <time>2017-02-14T16:38:22Z</time>
      </trkpt>
      <trkpt lat="49.41455" lon="1.20513">
        <ele>57</ele>
        <time>2017-02-14T16:38:22Z</time>
      </trkpt>
      <trkpt lat="49.41453" lon="1.20506">
        <ele>57</ele>
        <time>2017-02-14T16:38:22Z</time>
      </trkpt>
      <trkpt lat="49.41452" lon="1.20498">
        <ele>57</ele>
        <time>2017-02-14T16:38:22Z</time>
      </trkpt>
      <trkpt lat="49.41451" lon="1.20493">
        <ele>57</ele>
        <time>2017-02-14T16:38:37Z</time>
      </trkpt>
      <trkpt lat="49.41449" lon="1.20484">
        <ele>57</ele>
        <time>2017-02-14T16:38:37Z</time>
      </trkpt>
      <trkpt lat="49.41448" lon="1.20479">
        <ele>57</ele>
        <time>2017-02-14T16:38:37Z</time>
      </trkpt>
      <trkpt lat="49.41447" lon="1.20472">
        <ele>57</ele>
        <time>2017-02-14T16:38:37Z</time>
      </trkpt>
      <trkpt lat="49.41446" lon="1.20464">
        <ele>57</ele>
        <time>2017-02-14T16:38:54Z</time>
      </trkpt>
      <trkpt lat="49.41444" lon="1.20456">
        <ele>55</ele>
        <time>2017-02-14T16:38:54Z</time>
      </trkpt>
      <trkpt lat="49.41443" lon="1.20451">
        <ele>55</ele>
        <time>2017-02-14T16:38:54Z</time>
      </trkpt>
      <trkpt lat="49.41442" lon="1.20442">
        <ele>55</ele>
        <time>2017-02-14T16:38:54Z</time>
      </trkpt>
      <trkpt lat="49.41441" lon="1.20437">
        <ele>55</ele>
        <time>2017-02-14T16:39:09Z</time>
      </trkpt>
      <trkpt lat="49.4144" lon="1.2043">
        <ele>55</ele>
        <time>2017-02-14T16:39:09Z</time>
      </trkpt>
      <trkpt lat="49.41438" lon="1.2042">
        <ele>55</ele>
        <time>2017-02-14T16:39:09Z</time>
      </trkpt>
      <trkpt lat="49.41437" lon="1.20415">
        <ele>55</ele>
        <time>2017-02-14T16:39:09Z</time>
      </trkpt>
      <trkpt lat="49.41435" lon="1.20407">
        <ele>55</ele>
        <time>2017-02-14T16:39:24Z</time>
      </trkpt>
      <trkpt lat="49.41434" lon="1.20397">
        <ele>55</ele>
        <time>2017-02-14T16:39:24Z</time>
      </trkpt>
      <trkpt lat="49.41433" lon="1.20391">
        <ele>55</ele>
        <time>2017-02-14T16:39:24Z</time>
      </trkpt>
      <trkpt lat="49.41432" lon="1.20384">
        <ele>55</ele>
        <time>2017-02-14T16:39:24Z</time>
      </trkpt>
      <trkpt lat="49.4143" lon="1.20377">
        <ele>55</ele>
        <time>2017-02-14T16:39:41Z</time>
      </trkpt>
      <trkpt lat="49.41428" lon="1.20367">
        <ele>55</ele>
        <time>2017-02-14T16:39:41Z</time>
      </trkpt>
      <trkpt lat="49.41427" lon="1.20361">
        <ele>55</ele>
        <time>2017-02-14T16:39:41Z</time>
      </trkpt>
      <trkpt lat="49.41426" lon="1.20353">
        <ele>55</ele>
        <time>2017-02-14T16:39:41Z</time>
      </trkpt>
      <trkpt lat="49.41424" lon="1.20343">
        <ele>55</ele>
        <time>2017-02-14T16:39:58Z</time>
      </trkpt>
      <trkpt lat="49.41423" lon="1.20338">
        <ele>55</ele>
        <time>2017-02-14T16:39:58Z</time>
      </trkpt>
      <trkpt lat="49.41422" lon="1.20333">
        <ele>55</ele>
        <time>2017-02-14T16:39:58Z</time>
      </trkpt>
      <trkpt lat="49.41421" lon="1.20322">
        <ele>55</ele>
        <time>2017-02-14T16:39:58Z</time>
      </trkpt>
      <trkpt lat="49.41422" lon="1.20317">
        <ele>55</ele>
        <time>2017-02-14T16:40:13Z</time>
      </trkpt>
      <trkpt lat="49.41421" lon="1.2031">
        <ele>55</ele>
        <time>2017-02-14T16:40:13Z</time>
      </trkpt>
      <trkpt lat="49.41419" lon="1.20301">
        <ele>55</ele>
        <time>2017-02-14T16:40:13Z</time>
      </trkpt>
      <trkpt lat="49.41419" lon="1.20293">
        <ele>55</ele>
        <time>2017-02-14T16:40:13Z</time>
      </trkpt>
      <trkpt lat="49.41419" lon="1.20287">
        <ele>56</ele>
        <time>2017-02-14T16:40:29Z</time>
      </trkpt>
      <trkpt lat="49.41419" lon="1.20276">
        <ele>56</ele>
        <time>2017-02-14T16:40:29Z</time>
      </trkpt>
      <trkpt lat="49.41419" lon="1.2027">
        <ele>56</ele>
        <time>2017-02-14T16:40:29Z</time>
      </trkpt>
      <trkpt lat="49.41418" lon="1.20261">
        <ele>56</ele>
        <time>2017-02-14T16:40:30Z</time>
      </trkpt>
      <trkpt lat="49.41418" lon="1.20257">
        <ele>56</ele>
        <time>2017-02-14T16:40:46Z</time>
      </trkpt>
      <trkpt lat="49.41417" lon="1.20248">
        <ele>56</ele>
        <time>2017-02-14T16:40:46Z</time>
      </trkpt>
      <trkpt lat="49.41416" lon="1.2024">
        <ele>56</ele>
        <time>2017-02-14T16:40:46Z</time>
      </trkpt>
      <trkpt lat="49.41416" lon="1.20233">
        <ele>56</ele>
        <time>2017-02-14T16:40:46Z</time>
      </trkpt>
      <trkpt lat="49.41416" lon="1.20229">
        <ele>56</ele>
        <time>2017-02-14T16:41:01Z</time>
      </trkpt>
      <trkpt lat="49.41415" lon="1.20221">
        <ele>56</ele>
        <time>2017-02-14T16:41:01Z</time>
      </trkpt>
      <trkpt lat="49.41415" lon="1.20212">
        <ele>56</ele>
        <time>2017-02-14T16:41:01Z</time>
      </trkpt>
      <trkpt lat="49.41414" lon="1.20204">
        <ele>56</ele>
        <time>2017-02-14T16:41:01Z</time>
      </trkpt>
      <trkpt lat="49.41415" lon="1.20194">
        <ele>56</ele>
        <time>2017-02-14T16:41:18Z</time>
      </trkpt>
      <trkpt lat="49.41415" lon="1.20189">
        <ele>56</ele>
        <time>2017-02-14T16:41:18Z</time>
      </trkpt>
      <trkpt lat="49.41415" lon="1.20179">
        <ele>56</ele>
        <time>2017-02-14T16:41:18Z</time>
      </trkpt>
      <trkpt lat="49.41415" lon="1.20172">
        <ele>56</ele>
        <time>2017-02-14T16:41:18Z</time>
      </trkpt>
      <trkpt lat="49.41414" lon="1.20167">
        <ele>56</ele>
        <time>2017-02-14T16:41:33Z</time>
      </trkpt>
      <trkpt lat="49.41415" lon="1.20159">
        <ele>56</ele>
        <time>2017-02-14T16:41:33Z</time>
      </trkpt>
      <trkpt lat="49.41416" lon="1.20152">
        <ele>56</ele>
        <time>2017-02-14T16:41:33Z</time>
      </trkpt>
      <trkpt lat="49.41415" lon="1.20144">
        <ele>56</ele>
        <time>2017-02-14T16:41:33Z</time>
      </trkpt>
      <trkpt lat="49.41414" lon="1.20137">
        <ele>56</ele>
        <time>2017-02-14T16:41:49Z</time>
      </trkpt>
      <trkpt lat="49.41415" lon="1.20131">
        <ele>56</ele>
        <time>2017-02-14T16:41:49Z</time>
      </trkpt>
      <trkpt lat="49.41416" lon="1.20122">
        <ele>54</ele>
        <time>2017-02-14T16:41:49Z</time>
      </trkpt>
      <trkpt lat="49.41417" lon="1.20113">
        <ele>54</ele>
        <time>2017-02-14T16:41:49Z</time>
      </trkpt>
      <trkpt lat="49.41417" lon="1.20104">
        <ele>54</ele>
        <time>2017-02-14T16:42:04Z</time>
      </trkpt>
      <trkpt lat="49.41418" lon="1.20097">
        <ele>54</ele>
        <time>2017-02-14T16:42:05Z</time>
      </trkpt>
      <trkpt lat="49.41419" lon="1.20086">
        <ele>54</ele>
        <time>2017-02-14T16:42:05Z</time>
      </trkpt>
      <trkpt lat="49.4142" lon="1.2008">
        <ele>54</ele>
        <time>2017-02-14T16:42:05Z</time>
      </trkpt>
      <trkpt lat="49.41422" lon="1.2007">
        <ele>54</ele>
        <time>2017-02-14T16:42:21Z</time>
      </trkpt>
      <trkpt lat="49.41422" lon="1.20067">
        <ele>54</ele>
        <time>2017-02-14T16:42:21Z</time>
      </trkpt>
      <trkpt lat="49.41423" lon="1.20058">
        <ele>54</ele>
        <time>2017-02-14T16:42:21Z</time>
      </trkpt>
      <trkpt lat="49.41424" lon="1.20048">
        <ele>54</ele>
        <time>2017-02-14T16:42:21Z</time>
      </trkpt>
      <trkpt lat="49.41424" lon="1.20039">
        <ele>54</ele>
        <time>2017-02-14T16:42:38Z</time>
      </trkpt>
      <trkpt lat="49.41424" lon="1.20034">
        <ele>54</ele>
        <time>2017-02-14T16:42:38Z</time>
      </trkpt>
      <trkpt lat="49.41425" lon="1.20025">
        <ele>54</ele>
        <time>2017-02-14T16:42:38Z</time>
      </trkpt>
      <trkpt lat="49.41426" lon="1.20016">
        <ele>54</ele>
        <time>2017-02-14T16:42:38Z</time>
      </trkpt>
      <trkpt lat="49.41427" lon="1.20008">
        <ele>54</ele>
        <time>2017-02-14T16:42:54Z</time>
      </trkpt>
      <trkpt lat="49.41428" lon="1.20001">
        <ele>54</ele>
        <time>2017-02-14T16:42:54Z</time>
      </trkpt>
      <trkpt lat="49.41429" lon="1.19993">
        <ele>54</ele>
        <time>2017-02-14T16:42:54Z</time>
      </trkpt>
      <trkpt lat="49.4143" lon="1.19985">
        <ele>54</ele>
        <time>2017-02-14T16:42:54Z</time>
      </trkpt>
      <trkpt lat="49.41432" lon="1.19979">
        <ele>54</ele>
        <time>2017-02-14T16:43:09Z</time>
      </trkpt>
      <trkpt lat="49.41433" lon="1.19971">
        <ele>54</ele>
        <time>2017-02-14T16:43:09Z</time>
      </trkpt>
      <trkpt lat="49.41434" lon="1.19962">
        <ele>54</ele>
        <time>2017-02-14T16:43:09Z</time>
      </trkpt>
      <trkpt lat="49.41434" lon="1.19956">
        <ele>55</ele>
        <time>2017-02-14T16:43:09Z</time>
      </trkpt>
      <trkpt lat="49.41436" lon="1.19945">
        <ele>55</ele>
        <time>2017-02-14T16:43:25Z</time>
      </trkpt>
      <trkpt lat="49.41436" lon="1.19939">
        <ele>55</ele>
        <time>2017-02-14T16:43:25Z</time>
      </trkpt>
      <trkpt lat="49.41435" lon="1.19929">
        <ele>55</ele>
        <time>2017-02-14T16:43:25Z</time>
      </trkpt>
      <trkpt lat="49.41435" lon="1.19924">
        <ele>55</ele>
        <time>2017-02-14T16:43:25Z</time>
      </trkpt>
      <trkpt lat="49.41436" lon="1.19914">
        <ele>55</ele>
        <time>2017-02-14T16:43:41Z</time>
      </trkpt>
      <trkpt lat="49.41437" lon="1.19908">
        <ele>55</ele>
        <time>2017-02-14T16:43:41Z</time>
      </trkpt>
      <trkpt lat="49.41439" lon="1.19898">
        <ele>55</ele>
        <time>2017-02-14T16:43:41Z</time>
      </trkpt>
      <trkpt lat="49.41441" lon="1.19892">
        <ele>55</ele>
        <time>2017-02-14T16:43:41Z</time>
      </trkpt>
      <trkpt lat="49.41443" lon="1.19883">
        <ele>55</ele>
        <time>2017-02-14T16:43:57Z</time>
      </trkpt>
      <trkpt lat="49.41445" lon="1.19876">
        <ele>55</ele>
        <time>2017-02-14T16:43:57Z</time>
      </trkpt>
      <trkpt lat="49.41447" lon="1.19869">
        <ele>64</ele>
        <time>2017-02-14T16:43:57Z</time>
      </trkpt>
      <trkpt lat="49.41448" lon="1.19862">
        <ele>64</ele>
        <time>2017-02-14T16:43:57Z</time>
      </trkpt>
      <trkpt lat="49.41449" lon="1.19854">
        <ele>64</ele>
        <time>2017-02-14T16:44:13Z</time>
      </trkpt>
      <trkpt lat="49.4145" lon="1.1985">
        <ele>64</ele>
        <time>2017-02-14T16:44:13Z</time>
      </trkpt>
      <trkpt lat="49.41454" lon="1.19843">
        <ele>64</ele>
        <time>2017-02-14T16:44:13Z</time>
      </trkpt>
      <trkpt lat="49.41455" lon="1.19839">
        <ele>64</ele>
        <time>2017-02-14T16:44:13Z</time>
      </trkpt>
      <trkpt lat="49.41457" lon="1.19832">
        <ele>64</ele>
        <time>2017-02-14T16:44:28Z</time>
      </trkpt>
      <trkpt lat="49.41459" lon="1.19825">
        <ele>54</ele>
        <time>2017-02-14T16:44:28Z</time>
      </trkpt>
      <trkpt lat="49.4146" lon="1.19816">
        <ele>54</ele>
        <time>2017-02-14T16:44:28Z</time>
      </trkpt>
      <trkpt lat="49.41462" lon="1.19807">
        <ele>54</ele>
        <time>2017-02-14T16:44:29Z</time>
      </trkpt>
      <trkpt lat="49.41464" lon="1.19797">
        <ele>54</ele>
        <time>2017-02-14T16:44:45Z</time>
      </trkpt>
      <trkpt lat="49.41467" lon="1.19791">
        <ele>54</ele>
        <time>2017-02-14T16:44:45Z</time>
      </trkpt>
      <trkpt lat="49.4147" lon="1.19786">
        <ele>54</ele>
        <time>2017-02-14T16:44:45Z</time>
      </trkpt>
      <trkpt lat="49.41474" lon="1.19776">
        <ele>54</ele>
        <time>2017-02-14T16:44:46Z</time>
      </trkpt>
      <trkpt lat="49.41478" lon="1.1977">
        <ele>54</ele>
        <time>2017-02-14T16:45:01Z</time>
      </trkpt>
      <trkpt lat="49.41481" lon="1.19765">
        <ele>54</ele>
        <time>2017-02-14T16:45:01Z</time>
      </trkpt>
      <trkpt lat="49.41483" lon="1.1976">
        <ele>54</ele>
        <time>2017-02-14T16:45:01Z</time>
      </trkpt>
      <trkpt lat="49.41486" lon="1.19753">
        <ele>54</ele>
        <time>2017-02-14T16:45:01Z</time>
      </trkpt>
      <trkpt lat="49.4149" lon="1.19746">
        <ele>54</ele>
        <time>2017-02-14T16:45:16Z</time>
      </trkpt>
      <trkpt lat="49.41491" lon="1.19743">
        <ele>54</ele>
        <time>2017-02-14T16:45:16Z</time>
      </trkpt>
      <trkpt lat="49.41495" lon="1.19734">
        <ele>54</ele>
        <time>2017-02-14T16:45:16Z</time>
      </trkpt>
      <trkpt lat="49.41497" lon="1.1973">
        <ele>54</ele>
        <time>2017-02-14T16:45:16Z</time>
      </trkpt>
      <trkpt lat="49.41498" lon="1.19723">
        <ele>54</ele>
        <time>2017-02-14T16:45:32Z</time>
      </trkpt>
      <trkpt lat="49.41501" lon="1.19717">
        <ele>54</ele>
        <time>2017-02-14T16:45:32Z</time>
      </trkpt>
      <trkpt lat="49.41503" lon="1.19711">
        <ele>54</ele>
        <time>2017-02-14T16:45:32Z</time>
      </trkpt>
      <trkpt lat="49.41506" lon="1.19702">
        <ele>56</ele>
        <time>2017-02-14T16:45:32Z</time>
      </trkpt>
      <trkpt lat="49.4151" lon="1.19695">
        <ele>56</ele>
        <time>2017-02-14T16:45:48Z</time>
      </trkpt>
      <trkpt lat="49.41513" lon="1.19688">
        <ele>56</ele>
        <time>2017-02-14T16:45:48Z</time>
      </trkpt>
      <trkpt lat="49.41516" lon="1.19681">
        <ele>56</ele>
        <time>2017-02-14T16:45:48Z</time>
      </trkpt>
      <trkpt lat="49.41519" lon="1.19676">
        <ele>56</ele>
        <time>2017-02-14T16:45:48Z</time>
      </trkpt>
      <trkpt lat="49.41522" lon="1.19671">
        <ele>56</ele>
        <time>2017-02-14T16:46:04Z</time>
      </trkpt>
      <trkpt lat="49.41524" lon="1.19665">
        <ele>56</ele>
        <time>2017-02-14T16:46:04Z</time>
      </trkpt>
      <trkpt lat="49.41527" lon="1.19658">
        <ele>56</ele>
        <time>2017-02-14T16:46:04Z</time>
      </trkpt>
      <trkpt lat="49.4153" lon="1.19651">
        <ele>56</ele>
        <time>2017-02-14T16:46:04Z</time>
      </trkpt>
      <trkpt lat="49.41533" lon="1.19644">
        <ele>56</ele>
        <time>2017-02-14T16:46:20Z</time>
      </trkpt>
      <trkpt lat="49.41534" lon="1.19637">
        <ele>56</ele>
        <time>2017-02-14T16:46:20Z</time>
      </trkpt>
      <trkpt lat="49.41536" lon="1.19631">
        <ele>56</ele>
        <time>2017-02-14T16:46:20Z</time>
      </trkpt>
      <trkpt lat="49.41539" lon="1.19624">
        <ele>59</ele>
        <time>2017-02-14T16:46:20Z</time>
      </trkpt>
      <trkpt lat="49.41543" lon="1.19618">
        <ele>53</ele>
        <time>2017-02-14T16:46:37Z</time>
      </trkpt>
      <trkpt lat="49.41545" lon="1.19612">
        <ele>53</ele>
        <time>2017-02-14T16:46:37Z</time>
      </trkpt>
      <trkpt lat="49.41549" lon="1.19604">
        <ele>53</ele>
        <time>2017-02-14T16:46:37Z</time>
      </trkpt>
      <trkpt lat="49.4155" lon="1.19598">
        <ele>53</ele>
        <time>2017-02-14T16:46:37Z</time>
      </trkpt>
      <trkpt lat="49.41551" lon="1.19592">
        <ele>53</ele>
        <time>2017-02-14T16:46:53Z</time>
      </trkpt>
      <trkpt lat="49.41552" lon="1.19585">
        <ele>53</ele>
        <time>2017-02-14T16:46:53Z</time>
      </trkpt>
      <trkpt lat="49.41554" lon="1.19578">
        <ele>53</ele>
        <time>2017-02-14T16:46:53Z</time>
      </trkpt>
      <trkpt lat="49.41557" lon="1.1957">
        <ele>53</ele>
        <time>2017-02-14T16:46:53Z</time>
      </trkpt>
      <trkpt lat="49.41558" lon="1.19564">
        <ele>53</ele>
        <time>2017-02-14T16:47:09Z</time>
      </trkpt>
      <trkpt lat="49.41561" lon="1.1956">
        <ele>53</ele>
        <time>2017-02-14T16:47:09Z</time>
      </trkpt>
      <trkpt lat="49.41563" lon="1.19554">
        <ele>53</ele>
        <time>2017-02-14T16:47:09Z</time>
      </trkpt>
      <trkpt lat="49.41565" lon="1.19548">
        <ele>53</ele>
        <time>2017-02-14T16:47:09Z</time>
      </trkpt>
      <trkpt lat="49.41568" lon="1.19537">
        <ele>54</ele>
        <time>2017-02-14T16:47:24Z</time>
      </trkpt>
      <trkpt lat="49.41571" lon="1.19529">
        <ele>54</ele>
        <time>2017-02-14T16:47:24Z</time>
      </trkpt>
      <trkpt lat="49.41572" lon="1.19523">
        <ele>54</ele>
        <time>2017-02-14T16:47:24Z</time>
      </trkpt>
      <trkpt lat="49.41575" lon="1.19518">
        <ele>54</ele>
        <time>2017-02-14T16:47:24Z</time>
      </trkpt>
      <trkpt lat="49.41577" lon="1.1951">
        <ele>54</ele>
        <time>2017-02-14T16:47:40Z</time>
      </trkpt>
      <trkpt lat="49.4158" lon="1.195">
        <ele>54</ele>
        <time>2017-02-14T16:47:40Z</time>
      </trkpt>
      <trkpt lat="49.41581" lon="1.19494">
        <ele>54</ele>
        <time>2017-02-14T16:47:41Z</time>
      </trkpt>
      <trkpt lat="49.41583" lon="1.19489">
        <ele>54</ele>
        <time>2017-02-14T16:47:41Z</time>
      </trkpt>
      <trkpt lat="49.41587" lon="1.19481">
        <ele>54</ele>
        <time>2017-02-14T16:47:57Z</time>
      </trkpt>
      <trkpt lat="49.41591" lon="1.19476">
        <ele>54</ele>
        <time>2017-02-14T16:47:57Z</time>
      </trkpt>
      <trkpt lat="49.41597" lon="1.19472">
        <ele>54</ele>
        <time>2017-02-14T16:47:57Z</time>
      </trkpt>
      <trkpt lat="49.416" lon="1.19468">
        <ele>54</ele>
        <time>2017-02-14T16:47:57Z</time>
      </trkpt>
      <trkpt lat="49.41602" lon="1.19463">
        <ele>54</ele>
        <time>2017-02-14T16:48:12Z</time>
      </trkpt>
      <trkpt lat="49.41605" lon="1.19456">
        <ele>57</ele>
        <time>2017-02-14T16:48:12Z</time>
      </trkpt>
      <trkpt lat="49.41606" lon="1.19448">
        <ele>57</ele>
        <time>2017-02-14T16:48:12Z</time>
      </trkpt>
      <trkpt lat="49.41608" lon="1.19441">
        <ele>57</ele>
        <time>2017-02-14T16:48:12Z</time>
      </trkpt>
      <trkpt lat="49.4161" lon="1.19432">
        <ele>57</ele>
        <time>2017-02-14T16:48:29Z</time>
      </trkpt>
      <trkpt lat="49.41613" lon="1.19423">
        <ele>57</ele>
        <time>2017-02-14T16:48:29Z</time>
      </trkpt>
      <trkpt lat="49.41614" lon="1.19418">
        <ele>57</ele>
        <time>2017-02-14T16:48:29Z</time>
      </trkpt>
      <trkpt lat="49.41617" lon="1.19411">
        <ele>57</ele>
        <time>2017-02-14T16:48:29Z</time>
      </trkpt>
      <trkpt lat="49.41619" lon="1.19403">
        <ele>57</ele>
        <time>2017-02-14T16:48:46Z</time>
      </trkpt>
      <trkpt lat="49.41622" lon="1.19395">
        <ele>57</ele>
        <time>2017-02-14T16:48:46Z</time>
      </trkpt>
      <trkpt lat="49.41622" lon="1.19389">
        <ele>57</ele>
        <time>2017-02-14T16:48:46Z</time>
      </trkpt>
      <trkpt lat="49.41624" lon="1.19378">
        <ele>57</ele>
        <time>2017-02-14T16:48:46Z</time>
      </trkpt>
      <trkpt lat="49.41626" lon="1.19371">
        <ele>53</ele>
        <time>2017-02-14T16:49:02Z</time>
      </trkpt>
      <trkpt lat="49.41628" lon="1.19363">
        <ele>53</ele>
        <time>2017-02-14T16:49:02Z</time>
      </trkpt>
      <trkpt lat="49.4163" lon="1.19359">
        <ele>53</ele>
        <time>2017-02-14T16:49:02Z</time>
      </trkpt>
      <trkpt lat="49.41634" lon="1.19351">
        <ele>53</ele>
        <time>2017-02-14T16:49:02Z</time>
      </trkpt>
      <trkpt lat="49.41636" lon="1.19345">
        <ele>53</ele>
        <time>2017-02-14T16:49:16Z</time>
      </trkpt>
      <trkpt lat="49.41639" lon="1.19336">
        <ele>53</ele>
        <time>2017-02-14T16:49:16Z</time>
      </trkpt>
      <trkpt lat="49.41641" lon="1.19329">
        <ele>53</ele>
        <time>2017-02-14T16:49:16Z</time>
      </trkpt>
      <trkpt lat="49.41642" lon="1.19325">
        <ele>53</ele>
        <time>2017-02-14T16:49:16Z</time>
      </trkpt>
      <trkpt lat="49.41643" lon="1.19318">
        <ele>53</ele>
        <time>2017-02-14T16:49:32Z</time>
      </trkpt>
      <trkpt lat="49.41645" lon="1.19313">
        <ele>53</ele>
        <time>2017-02-14T16:49:32Z</time>
      </trkpt>
      <trkpt lat="49.41649" lon="1.19307">
        <ele>53</ele>
        <time>2017-02-14T16:49:32Z</time>
      </trkpt>
      <trkpt lat="49.41651" lon="1.19299">
        <ele>53</ele>
        <time>2017-02-14T16:49:32Z</time>
      </trkpt>
      <trkpt lat="49.41654" lon="1.19288">
        <ele>55</ele>
        <time>2017-02-14T16:49:49Z</time>
      </trkpt>
      <trkpt lat="49.41656" lon="1.19282">
        <ele>55</ele>
        <time>2017-02-14T16:49:49Z</time>
      </trkpt>
      <trkpt lat="49.41659" lon="1.19272">
        <ele>55</ele>
        <time>2017-02-14T16:49:49Z</time>
      </trkpt>
      <trkpt lat="49.41661" lon="1.19266">
        <ele>55</ele>
        <time>2017-02-14T16:49:49Z</time>
      </trkpt>
      <trkpt lat="49.41663" lon="1.1926">
        <ele>55</ele>
        <time>2017-02-14T16:50:05Z</time>
      </trkpt>
      <trkpt lat="49.41665" lon="1.19254">
        <ele>55</ele>
        <time>2017-02-14T16:50:05Z</time>
      </trkpt>
      <trkpt lat="49.41666" lon="1.19249">
        <ele>55</ele>
        <time>2017-02-14T16:50:05Z</time>
      </trkpt>
      <trkpt lat="49.41669" lon="1.1924">
        <ele>55</ele>
        <time>2017-02-14T16:50:05Z</time>
      </trkpt>
      <trkpt lat="49.41668" lon="1.19227">
        <ele>55</ele>
        <time>2017-02-14T16:54:05Z</time>
      </trkpt>
      <trkpt lat="49.41668" lon="1.19227">
        <ele>55</ele>
        <time>2017-02-14T16:54:05Z</time>
      </trkpt>
      <trkpt lat="49.41668" lon="1.19226">
        <ele>55</ele>
        <time>2017-02-14T16:54:05Z</time>
      </trkpt>
      <trkpt lat="49.4167" lon="1.19221">
        <ele>55</ele>
        <time>2017-02-14T16:54:05Z</time>
      </trkpt>
      <trkpt lat="49.41672" lon="1.19215">
        <ele>55</ele>
        <time>2017-02-14T16:54:05Z</time>
      </trkpt>
      <trkpt lat="49.41675" lon="1.19209">
        <ele>55</ele>
        <time>2017-02-14T16:54:22Z</time>
      </trkpt>
      <trkpt lat="49.41677" lon="1.19202">
        <ele>56</ele>
        <time>2017-02-14T16:54:22Z</time>
      </trkpt>
      <trkpt lat="49.41679" lon="1.19194">
        <ele>56</ele>
        <time>2017-02-14T16:54:22Z</time>
      </trkpt>
      <trkpt lat="49.41682" lon="1.19184">
        <ele>56</ele>
        <time>2017-02-14T16:54:22Z</time>
      </trkpt>
      <trkpt lat="49.41683" lon="1.19177">
        <ele>56</ele>
        <time>2017-02-14T16:54:38Z</time>
      </trkpt>
      <trkpt lat="49.41684" lon="1.19168">
        <ele>56</ele>
        <time>2017-02-14T16:54:38Z</time>
      </trkpt>
      <trkpt lat="49.41686" lon="1.19164">
        <ele>56</ele>
        <time>2017-02-14T16:54:38Z</time>
      </trkpt>
      <trkpt lat="49.41687" lon="1.19156">
        <ele>56</ele>
        <time>2017-02-14T16:54:38Z</time>
      </trkpt>
      <trkpt lat="49.41688" lon="1.19149">
        <ele>56</ele>
        <time>2017-02-14T16:54:54Z</time>
      </trkpt>
      <trkpt lat="49.41689" lon="1.19142">
        <ele>56</ele>
        <time>2017-02-14T16:54:54Z</time>
      </trkpt>
      <trkpt lat="49.41691" lon="1.19137">
        <ele>56</ele>
        <time>2017-02-14T16:54:54Z</time>
      </trkpt>
      <trkpt lat="49.41693" lon="1.19127">
        <ele>56</ele>
        <time>2017-02-14T16:54:54Z</time>
      </trkpt>
      <trkpt lat="49.41694" lon="1.19121">
        <ele>55</ele>
        <time>2017-02-14T16:55:08Z</time>
      </trkpt>
      <trkpt lat="49.41696" lon="1.1911">
        <ele>55</ele>
        <time>2017-02-14T16:55:08Z</time>
      </trkpt>
      <trkpt lat="49.41697" lon="1.19104">
        <ele>55</ele>
        <time>2017-02-14T16:55:08Z</time>
      </trkpt>
      <trkpt lat="49.41697" lon="1.19095">
        <ele>55</ele>
        <time>2017-02-14T16:55:08Z</time>
      </trkpt>
      <trkpt lat="49.41699" lon="1.19086">
        <ele>55</ele>
        <time>2017-02-14T16:55:25Z</time>
      </trkpt>
      <trkpt lat="49.41701" lon="1.19076">
        <ele>55</ele>
        <time>2017-02-14T16:55:25Z</time>
      </trkpt>
      <trkpt lat="49.41702" lon="1.19071">
        <ele>55</ele>
        <time>2017-02-14T16:55:25Z</time>
      </trkpt>
      <trkpt lat="49.41704" lon="1.19064">
        <ele>55</ele>
        <time>2017-02-14T16:55:25Z</time>
      </trkpt>
      <trkpt lat="49.41705" lon="1.19058">
        <ele>55</ele>
        <time>2017-02-14T16:55:42Z</time>
      </trkpt>
      <trkpt lat="49.41708" lon="1.19049">
        <ele>55</ele>
        <time>2017-02-14T16:55:42Z</time>
      </trkpt>
      <trkpt lat="49.4171" lon="1.19043">
        <ele>50</ele>
        <time>2017-02-14T16:55:42Z</time>
      </trkpt>
      <trkpt lat="49.41714" lon="1.19035">
        <ele>50</ele>
        <time>2017-02-14T16:55:42Z</time>
      </trkpt>
      <trkpt lat="49.41717" lon="1.19032">
        <ele>50</ele>
        <time>2017-02-14T16:55:57Z</time>
      </trkpt>
      <trkpt lat="49.41721" lon="1.19024">
        <ele>50</ele>
        <time>2017-02-14T16:55:57Z</time>
      </trkpt>
      <trkpt lat="49.41724" lon="1.19019">
        <ele>50</ele>
        <time>2017-02-14T16:55:57Z</time>
      </trkpt>
      <trkpt lat="49.41726" lon="1.19013">
        <ele>50</ele>
        <time>2017-02-14T16:55:57Z</time>
      </trkpt>
      <trkpt lat="49.41729" lon="1.19005">
        <ele>50</ele>
        <time>2017-02-14T16:56:13Z</time>
      </trkpt>
      <trkpt lat="49.41731" lon="1.19">
        <ele>50</ele>
        <time>2017-02-14T16:56:13Z</time>
      </trkpt>
      <trkpt lat="49.41734" lon="1.18993">
        <ele>50</ele>
        <time>2017-02-14T16:56:13Z</time>
      </trkpt>
      <trkpt lat="49.41738" lon="1.18983">
        <ele>50</ele>
        <time>2017-02-14T16:56:13Z</time>
      </trkpt>
      <trkpt lat="49.41739" lon="1.18977">
        <ele>50</ele>
        <time>2017-02-14T16:56:29Z</time>
      </trkpt>
      <trkpt lat="49.41739" lon="1.18968">
        <ele>50</ele>
        <time>2017-02-14T16:56:29Z</time>
      </trkpt>
      <trkpt lat="49.4174" lon="1.18962">
        <ele>50</ele>
        <time>2017-02-14T16:56:29Z</time>
      </trkpt>
      <trkpt lat="49.4174" lon="1.18955">
        <ele>50</ele>
        <time>2017-02-14T16:56:29Z</time>
      </trkpt>
      <trkpt lat="49.41741" lon="1.18943">
        <ele>50</ele>
        <time>2017-02-14T16:56:45Z</time>
      </trkpt>
      <trkpt lat="49.41742" lon="1.18935">
        <ele>50</ele>
        <time>2017-02-14T16:56:45Z</time>
      </trkpt>
      <trkpt lat="49.41742" lon="1.18933">
        <ele>50</ele>
        <time>2017-02-14T16:56:45Z</time>
      </trkpt>
      <trkpt lat="49.41743" lon="1.18926">
        <ele>50</ele>
        <time>2017-02-14T16:56:45Z</time>
      </trkpt>
      <trkpt lat="49.41744" lon="1.18914">
        <ele>50</ele>
        <time>2017-02-14T16:57:01Z</time>
      </trkpt>
      <trkpt lat="49.41745" lon="1.18908">
        <ele>50</ele>
        <time>2017-02-14T16:57:01Z</time>
      </trkpt>
      <trkpt lat="49.41747" lon="1.18898">
        <ele>50</ele>
        <time>2017-02-14T16:57:01Z</time>
      </trkpt>
      <trkpt lat="49.41749" lon="1.18893">
        <ele>50</ele>
        <time>2017-02-14T16:57:01Z</time>
      </trkpt>
      <trkpt lat="49.41752" lon="1.18884">
        <ele>50</ele>
        <time>2017-02-14T16:57:16Z</time>
      </trkpt>
      <trkpt lat="49.41754" lon="1.18879">
        <ele>50</ele>
        <time>2017-02-14T16:57:16Z</time>
      </trkpt>
      <trkpt lat="49.41756" lon="1.18873">
        <ele>50</ele>
        <time>2017-02-14T16:57:16Z</time>
      </trkpt>
      <trkpt lat="49.41759" lon="1.18865">
        <ele>50</ele>
        <time>2017-02-14T16:57:16Z</time>
      </trkpt>
      <trkpt lat="49.41762" lon="1.18855">
        <ele>50</ele>
        <time>2017-02-14T16:57:33Z</time>
      </trkpt>
      <trkpt lat="49.41764" lon="1.18852">
        <ele>50</ele>
        <time>2017-02-14T16:57:33Z</time>
      </trkpt>
      <trkpt lat="49.41767" lon="1.18846">
        <ele>50</ele>
        <time>2017-02-14T16:57:33Z</time>
      </trkpt>
      <trkpt lat="49.4177" lon="1.18839">
        <ele>50</ele>
        <time>2017-02-14T16:57:33Z</time>
      </trkpt>
      <trkpt lat="49.41774" lon="1.18835">
        <ele>50</ele>
        <time>2017-02-14T16:57:49Z</time>
      </trkpt>
      <trkpt lat="49.41776" lon="1.18832">
        <ele>50</ele>
        <time>2017-02-14T16:57:49Z</time>
      </trkpt>
      <trkpt lat="49.4178" lon="1.18822">
        <ele>50</ele>
        <time>2017-02-14T16:57:49Z</time>
      </trkpt>
      <trkpt lat="49.41782" lon="1.18815">
        <ele>50</ele>
        <time>2017-02-14T16:57:49Z</time>
      </trkpt>
      <trkpt lat="49.41785" lon="1.18807">
        <ele>50</ele>
        <time>2017-02-14T16:58:05Z</time>
      </trkpt>
      <trkpt lat="49.41787" lon="1.18801">
        <ele>50</ele>
        <time>2017-02-14T16:58:05Z</time>
      </trkpt>
      <trkpt lat="49.41789" lon="1.18795">
        <ele>50</ele>
        <time>2017-02-14T16:58:05Z</time>
      </trkpt>
      <trkpt lat="49.41793" lon="1.18785">
        <ele>48</ele>
        <time>2017-02-14T16:58:05Z</time>
      </trkpt>
      <trkpt lat="49.41797" lon="1.1878">
        <ele>48</ele>
        <time>2017-02-14T16:58:21Z</time>
      </trkpt>
      <trkpt lat="49.41801" lon="1.18775">
        <ele>48</ele>
        <time>2017-02-14T16:58:21Z</time>
      </trkpt>
      <trkpt lat="49.41807" lon="1.18767">
        <ele>48</ele>
        <time>2017-02-14T16:58:21Z</time>
      </trkpt>
      <trkpt lat="49.4181" lon="1.1876">
        <ele>48</ele>
        <time>2017-02-14T16:58:21Z</time>
      </trkpt>
      <trkpt lat="49.41813" lon="1.18755">
        <ele>48</ele>
        <time>2017-02-14T16:58:38Z</time>
      </trkpt>
      <trkpt lat="49.41818" lon="1.18749">
        <ele>48</ele>
        <time>2017-02-14T16:58:38Z</time>
      </trkpt>
      <trkpt lat="49.4182" lon="1.18746">
        <ele>48</ele>
        <time>2017-02-14T16:58:38Z</time>
      </trkpt>
      <trkpt lat="49.41826" lon="1.18743">
        <ele>48</ele>
        <time>2017-02-14T16:58:38Z</time>
      </trkpt>
      <trkpt lat="49.41829" lon="1.18739">
        <ele>48</ele>
        <time>2017-02-14T16:58:54Z</time>
      </trkpt>
      <trkpt lat="49.41835" lon="1.18733">
        <ele>48</ele>
        <time>2017-02-14T16:58:54Z</time>
      </trkpt>
      <trkpt lat="49.41838" lon="1.18729">
        <ele>48</ele>
        <time>2017-02-14T16:58:54Z</time>
      </trkpt>
      <trkpt lat="49.41843" lon="1.18723">
        <ele>48</ele>
        <time>2017-02-14T16:58:54Z</time>
      </trkpt>
      <trkpt lat="49.41845" lon="1.18719">
        <ele>48</ele>
        <time>2017-02-14T16:59:09Z</time>
      </trkpt>
      <trkpt lat="49.41848" lon="1.18713">
        <ele>48</ele>
        <time>2017-02-14T16:59:09Z</time>
      </trkpt>
      <trkpt lat="49.41851" lon="1.18712">
        <ele>48</ele>
        <time>2017-02-14T16:59:09Z</time>
      </trkpt>
      <trkpt lat="49.41857" lon="1.18706">
        <ele>49</ele>
        <time>2017-02-14T16:59:09Z</time>
      </trkpt>
      <trkpt lat="49.41859" lon="1.187">
        <ele>49</ele>
        <time>2017-02-14T16:59:24Z</time>
      </trkpt>
      <trkpt lat="49.41861" lon="1.18696">
        <ele>49</ele>
        <time>2017-02-14T16:59:24Z</time>
      </trkpt>
      <trkpt lat="49.41862" lon="1.18688">
        <ele>49</ele>
        <time>2017-02-14T16:59:24Z</time>
      </trkpt>
      <trkpt lat="49.41864" lon="1.18681">
        <ele>49</ele>
        <time>2017-02-14T16:59:24Z</time>
      </trkpt>
      <trkpt lat="49.41867" lon="1.18673">
        <ele>49</ele>
        <time>2017-02-14T16:59:41Z</time>
      </trkpt>
      <trkpt lat="49.41868" lon="1.18667">
        <ele>49</ele>
        <time>2017-02-14T16:59:41Z</time>
      </trkpt>
      <trkpt lat="49.41869" lon="1.18664">
        <ele>49</ele>
        <time>2017-02-14T16:59:41Z</time>
      </trkpt>
      <trkpt lat="49.41872" lon="1.18656">
        <ele>49</ele>
        <time>2017-02-14T16:59:41Z</time>
      </trkpt>
      <trkpt lat="49.41876" lon="1.18649">
        <ele>55</ele>
        <time>2017-02-14T16:59:57Z</time>
      </trkpt>
      <trkpt lat="49.41879" lon="1.18646">
        <ele>55</ele>
        <time>2017-02-14T16:59:57Z</time>
      </trkpt>
      <trkpt lat="49.41882" lon="1.18639">
        <ele>55</ele>
        <time>2017-02-14T16:59:57Z</time>
      </trkpt>
      <trkpt lat="49.41884" lon="1.18631">
        <ele>55</ele>
        <time>2017-02-14T16:59:57Z</time>
      </trkpt>
      <trkpt lat="49.41886" lon="1.18625">
        <ele>55</ele>
        <time>2017-02-14T17:00:12Z</time>
      </trkpt>
      <trkpt lat="49.41888" lon="1.18619">
        <ele>48</ele>
        <time>2017-02-14T17:00:12Z</time>
      </trkpt>
      <trkpt lat="49.41889" lon="1.18611">
        <ele>48</ele>
        <time>2017-02-14T17:00:12Z</time>
      </trkpt>
      <trkpt lat="49.4189" lon="1.18606">
        <ele>48</ele>
        <time>2017-02-14T17:00:12Z</time>
      </trkpt>
      <trkpt lat="49.41893" lon="1.18593">
        <ele>48</ele>
        <time>2017-02-14T17:00:28Z</time>
      </trkpt>
      <trkpt lat="49.41893" lon="1.1859">
        <ele>48</ele>
        <time>2017-02-14T17:00:28Z</time>
      </trkpt>
      <trkpt lat="49.41893" lon="1.18578">
        <ele>48</ele>
        <time>2017-02-14T17:00:28Z</time>
      </trkpt>
      <trkpt lat="49.41895" lon="1.18571">
        <ele>48</ele>
        <time>2017-02-14T17:00:28Z</time>
      </trkpt>
      <trkpt lat="49.41896" lon="1.18563">
        <ele>48</ele>
        <time>2017-02-14T17:00:44Z</time>
      </trkpt>
      <trkpt lat="49.41898" lon="1.18555">
        <ele>48</ele>
        <time>2017-02-14T17:00:44Z</time>
      </trkpt>
      <trkpt lat="49.419" lon="1.18545">
        <ele>48</ele>
        <time>2017-02-14T17:00:44Z</time>
      </trkpt>
      <trkpt lat="49.41902" lon="1.18541">
        <ele>46</ele>
        <time>2017-02-14T17:00:44Z</time>
      </trkpt>
      <trkpt lat="49.41905" lon="1.18533">
        <ele>46</ele>
        <time>2017-02-14T17:01:01Z</time>
      </trkpt>
      <trkpt lat="49.41907" lon="1.18527">
        <ele>46</ele>
        <time>2017-02-14T17:01:01Z</time>
      </trkpt>
      <trkpt lat="49.41911" lon="1.18518">
        <ele>46</ele>
        <time>2017-02-14T17:01:01Z</time>
      </trkpt>
      <trkpt lat="49.41914" lon="1.18514">
        <ele>46</ele>
        <time>2017-02-14T17:01:01Z</time>
      </trkpt>
      <trkpt lat="49.41919" lon="1.18508">
        <ele>46</ele>
        <time>2017-02-14T17:01:18Z</time>
      </trkpt>
      <trkpt lat="49.41922" lon="1.18502">
        <ele>46</ele>
        <time>2017-02-14T17:01:18Z</time>
      </trkpt>
      <trkpt lat="49.41924" lon="1.18496">
        <ele>46</ele>
        <time>2017-02-14T17:01:18Z</time>
      </trkpt>
      <trkpt lat="49.4193" lon="1.18484">
        <ele>46</ele>
        <time>2017-02-14T17:01:18Z</time>
      </trkpt>
      <trkpt lat="49.41932" lon="1.18478">
        <ele>46</ele>
        <time>2017-02-14T17:01:33Z</time>
      </trkpt>
      <trkpt lat="49.41934" lon="1.1847">
        <ele>46</ele>
        <time>2017-02-14T17:01:34Z</time>
      </trkpt>
      <trkpt lat="49.41936" lon="1.18466">
        <ele>46</ele>
        <time>2017-02-14T17:01:34Z</time>
      </trkpt>
      <trkpt lat="49.41941" lon="1.18458">
        <ele>45</ele>
        <time>2017-02-14T17:01:34Z</time>
      </trkpt>
      <trkpt lat="49.41944" lon="1.18453">
        <ele>45</ele>
        <time>2017-02-14T17:01:49Z</time>
      </trkpt>
      <trkpt lat="49.41947" lon="1.18446">
        <ele>45</ele>
        <time>2017-02-14T17:01:49Z</time>
      </trkpt>
      <trkpt lat="49.41949" lon="1.18442">
        <ele>45</ele>
        <time>2017-02-14T17:01:49Z</time>
      </trkpt>
      <trkpt lat="49.41954" lon="1.18434">
        <ele>45</ele>
        <time>2017-02-14T17:01:49Z</time>
      </trkpt>
      <trkpt lat="49.41955" lon="1.18429">
        <ele>45</ele>
        <time>2017-02-14T17:02:06Z</time>
      </trkpt>
      <trkpt lat="49.41959" lon="1.1842">
        <ele>48</ele>
        <time>2017-02-14T17:02:06Z</time>
      </trkpt>
      <trkpt lat="49.4196" lon="1.18416">
        <ele>48</ele>
        <time>2017-02-14T17:02:06Z</time>
      </trkpt>
      <trkpt lat="49.41962" lon="1.18408">
        <ele>48</ele>
        <time>2017-02-14T17:02:06Z</time>
      </trkpt>
      <trkpt lat="49.41964" lon="1.18403">
        <ele>48</ele>
        <time>2017-02-14T17:02:21Z</time>
      </trkpt>
      <trkpt lat="49.41966" lon="1.18394">
        <ele>48</ele>
        <time>2017-02-14T17:02:21Z</time>
      </trkpt>
      <trkpt lat="49.41969" lon="1.18388">
        <ele>48</ele>
        <time>2017-02-14T17:02:21Z</time>
      </trkpt>
      <trkpt lat="49.41971" lon="1.1838">
        <ele>48</ele>
        <time>2017-02-14T17:02:21Z</time>
      </trkpt>
      <trkpt lat="49.41973" lon="1.18371">
        <ele>45</ele>
        <time>2017-02-14T17:02:37Z</time>
      </trkpt>
      <trkpt lat="49.41975" lon="1.18366">
        <ele>45</ele>
        <time>2017-02-14T17:02:37Z</time>
      </trkpt>
      <trkpt lat="49.41976" lon="1.18362">
        <ele>45</ele>
        <time>2017-02-14T17:02:37Z</time>
      </trkpt>
      <trkpt lat="49.41977" lon="1.18357">
        <ele>45</ele>
        <time>2017-02-14T17:02:37Z</time>
      </trkpt>
      <trkpt lat="49.4198" lon="1.18351">
        <ele>45</ele>
        <time>2017-02-14T17:02:54Z</time>
      </trkpt>
      <trkpt lat="49.41984" lon="1.18344">
        <ele>45</ele>
        <time>2017-02-14T17:02:54Z</time>
      </trkpt>
      <trkpt lat="49.41985" lon="1.18342">
        <ele>45</ele>
        <time>2017-02-14T17:02:54Z</time>
      </trkpt>
      <trkpt lat="49.41987" lon="1.18331">
        <ele>45</ele>
        <time>2017-02-14T17:02:54Z</time>
      </trkpt>
      <trkpt lat="49.41989" lon="1.18326">
        <ele>45</ele>
        <time>2017-02-14T17:03:09Z</time>
      </trkpt>
      <trkpt lat="49.41993" lon="1.18321">
        <ele>45</ele>
        <time>2017-02-14T17:03:09Z</time>
      </trkpt>
      <trkpt lat="49.41995" lon="1.18312">
        <ele>45</ele>
        <time>2017-02-14T17:03:09Z</time>
      </trkpt>
      <trkpt lat="49.41997" lon="1.18305">
        <ele>45</ele>
        <time>2017-02-14T17:03:09Z</time>
      </trkpt>
      <trkpt lat="49.41999" lon="1.18294">
        <ele>45</ele>
        <time>2017-02-14T17:03:25Z</time>
      </trkpt>
      <trkpt lat="49.41999" lon="1.18287">
        <ele>45</ele>
        <time>2017-02-14T17:03:25Z</time>
      </trkpt>
      <trkpt lat="49.42" lon="1.18284">
        <ele>45</ele>
        <time>2017-02-14T17:03:25Z</time>
      </trkpt>
      <trkpt lat="49.42002" lon="1.18275">
        <ele>45</ele>
        <time>2017-02-14T17:03:25Z</time>
      </trkpt>
      <trkpt lat="49.42004" lon="1.1827">
        <ele>45</ele>
        <time>2017-02-14T17:03:41Z</time>
      </trkpt>
      <trkpt lat="49.42006" lon="1.18261">
        <ele>45</ele>
        <time>2017-02-14T17:03:41Z</time>
      </trkpt>
      <trkpt lat="49.42008" lon="1.18256">
        <ele>45</ele>
        <time>2017-02-14T17:03:41Z</time>
      </trkpt>
      <trkpt lat="49.42011" lon="1.18247">
        <ele>45</ele>
        <time>2017-02-14T17:03:41Z</time>
      </trkpt>
      <trkpt lat="49.42012" lon="1.1824">
        <ele>45</ele>
        <time>2017-02-14T17:03:57Z</time>
      </trkpt>
      <trkpt lat="49.42014" lon="1.18232">
        <ele>45</ele>
        <time>2017-02-14T17:03:57Z</time>
      </trkpt>
      <trkpt lat="49.42015" lon="1.18227">
        <ele>45</ele>
        <time>2017-02-14T17:03:57Z</time>
      </trkpt>
      <trkpt lat="49.42018" lon="1.18219">
        <ele>45</ele>
        <time>2017-02-14T17:03:57Z</time>
      </trkpt>
      <trkpt lat="49.42021" lon="1.1821">
        <ele>45</ele>
        <time>2017-02-14T17:04:12Z</time>
      </trkpt>
      <trkpt lat="49.42023" lon="1.18204">
        <ele>46</ele>
        <time>2017-02-14T17:04:12Z</time>
      </trkpt>
      <trkpt lat="49.42025" lon="1.18195">
        <ele>46</ele>
        <time>2017-02-14T17:04:12Z</time>
      </trkpt>
      <trkpt lat="49.42026" lon="1.18189">
        <ele>46</ele>
        <time>2017-02-14T17:04:12Z</time>
      </trkpt>
      <trkpt lat="49.42027" lon="1.18181">
        <ele>46</ele>
        <time>2017-02-14T17:04:29Z</time>
      </trkpt>
      <trkpt lat="49.42029" lon="1.18173">
        <ele>46</ele>
        <time>2017-02-14T17:04:29Z</time>
      </trkpt>
      <trkpt lat="49.42029" lon="1.18164">
        <ele>46</ele>
        <time>2017-02-14T17:04:29Z</time>
      </trkpt>
      <trkpt lat="49.42029" lon="1.18159">
        <ele>46</ele>
        <time>2017-02-14T17:04:29Z</time>
      </trkpt>
      <trkpt lat="49.4203" lon="1.18151">
        <ele>46</ele>
        <time>2017-02-14T17:04:45Z</time>
      </trkpt>
      <trkpt lat="49.42031" lon="1.18148">
        <ele>46</ele>
        <time>2017-02-14T17:04:45Z</time>
      </trkpt>
      <trkpt lat="49.42033" lon="1.1814">
        <ele>46</ele>
        <time>2017-02-14T17:04:45Z</time>
      </trkpt>
      <trkpt lat="49.42033" lon="1.18137">
        <ele>46</ele>
        <time>2017-02-14T17:04:45Z</time>
      </trkpt>
      <trkpt lat="49.42034" lon="1.18135">
        <ele>46</ele>
        <time>2017-02-14T17:05:01Z</time>
      </trkpt>
      <trkpt lat="49.42037" lon="1.18129">
        <ele>46</ele>
        <time>2017-02-14T17:05:01Z</time>
      </trkpt>
      <trkpt lat="49.42036" lon="1.1812">
        <ele>49</ele>
        <time>2017-02-14T17:05:01Z</time>
      </trkpt>
      <trkpt lat="49.42036" lon="1.18113">
        <ele>49</ele>
        <time>2017-02-14T17:05:01Z</time>
      </trkpt>
      <trkpt lat="49.42037" lon="1.18103">
        <ele>49</ele>
        <time>2017-02-14T17:05:17Z</time>
      </trkpt>
      <trkpt lat="49.42038" lon="1.18098">
        <ele>49</ele>
        <time>2017-02-14T17:05:17Z</time>
      </trkpt>
      <trkpt lat="49.42039" lon="1.18089">
        <ele>49</ele>
        <time>2017-02-14T17:05:17Z</time>
      </trkpt>
      <trkpt lat="49.4204" lon="1.18085">
        <ele>49</ele>
        <time>2017-02-14T17:05:17Z</time>
      </trkpt>
      <trkpt lat="49.42042" lon="1.18078">
        <ele>47</ele>
        <time>2017-02-14T17:05:33Z</time>
      </trkpt>
      <trkpt lat="49.42044" lon="1.18074">
        <ele>47</ele>
        <time>2017-02-14T17:05:33Z</time>
      </trkpt>
      <trkpt lat="49.42045" lon="1.18067">
        <ele>47</ele>
        <time>2017-02-14T17:05:33Z</time>
      </trkpt>
      <trkpt lat="49.42045" lon="1.1806">
        <ele>47</ele>
        <time>2017-02-14T17:05:33Z</time>
      </trkpt>
      <trkpt lat="49.42047" lon="1.18048">
        <ele>47</ele>
        <time>2017-02-14T17:05:49Z</time>
      </trkpt>
      <trkpt lat="49.42048" lon="1.18039">
        <ele>44</ele>
        <time>2017-02-14T17:05:49Z</time>
      </trkpt>
      <trkpt lat="49.4205" lon="1.18032">
        <ele>44</ele>
        <time>2017-02-14T17:05:49Z</time>
      </trkpt>
      <trkpt lat="49.42051" lon="1.18026">
        <ele>44</ele>
        <time>2017-02-14T17:05:49Z</time>
      </trkpt>
      <trkpt lat="49.42053" lon="1.18021">
        <ele>44</ele>
        <time>2017-02-14T17:06:05Z</time>
      </trkpt>
      <trkpt lat="49.42055" lon="1.18017">
        <ele>44</ele>
        <time>2017-02-14T17:06:05Z</time>
      </trkpt>
      <trkpt lat="49.42056" lon="1.18008">
        <ele>44</ele>
        <time>2017-02-14T17:06:05Z</time>
      </trkpt>
      <trkpt lat="49.42059" lon="1.17999">
        <ele>44</ele>
        <time>2017-02-14T17:06:05Z</time>
      </trkpt>
      <trkpt lat="49.42063" lon="1.17993">
        <ele>44</ele>
        <time>2017-02-14T17:06:20Z</time>
      </trkpt>
      <trkpt lat="49.42066" lon="1.17983">
        <ele>44</ele>
        <time>2017-02-14T17:06:20Z</time>
      </trkpt>
      <trkpt lat="49.42068" lon="1.17978">
        <ele>44</ele>
        <time>2017-02-14T17:06:20Z</time>
      </trkpt>
      <trkpt lat="49.42072" lon="1.17978">
        <ele>44</ele>
        <time>2017-02-14T17:06:20Z</time>
      </trkpt>
      <trkpt lat="49.42075" lon="1.17976">
        <ele>44</ele>
        <time>2017-02-14T17:06:36Z</time>
      </trkpt>
      <trkpt lat="49.42078" lon="1.1797">
        <ele>44</ele>
        <time>2017-02-14T17:06:36Z</time>
      </trkpt>
      <trkpt lat="49.42079" lon="1.17961">
        <ele>44</ele>
        <time>2017-02-14T17:06:36Z</time>
      </trkpt>
      <trkpt lat="49.42081" lon="1.17956">
        <ele>44</ele>
        <time>2017-02-14T17:06:36Z</time>
      </trkpt>
      <trkpt lat="49.42086" lon="1.1795">
        <ele>44</ele>
        <time>2017-02-14T17:06:53Z</time>
      </trkpt>
      <trkpt lat="49.42088" lon="1.17945">
        <ele>44</ele>
        <time>2017-02-14T17:06:53Z</time>
      </trkpt>
      <trkpt lat="49.42091" lon="1.17936">
        <ele>44</ele>
        <time>2017-02-14T17:06:53Z</time>
      </trkpt>
      <trkpt lat="49.42092" lon="1.17932">
        <ele>44</ele>
        <time>2017-02-14T17:06:53Z</time>
      </trkpt>
      <trkpt lat="49.42095" lon="1.17927">
        <ele>44</ele>
        <time>2017-02-14T17:07:09Z</time>
      </trkpt>
      <trkpt lat="49.42098" lon="1.17922">
        <ele>44</ele>
        <time>2017-02-14T17:07:09Z</time>
      </trkpt>
      <trkpt lat="49.42101" lon="1.1792">
        <ele>44</ele>
        <time>2017-02-14T17:07:09Z</time>
      </trkpt>
      <trkpt lat="49.42104" lon="1.17913">
        <ele>44</ele>
        <time>2017-02-14T17:07:09Z</time>
      </trkpt>
      <trkpt lat="49.42109" lon="1.17904">
        <ele>44</ele>
        <time>2017-02-14T17:07:25Z</time>
      </trkpt>
      <trkpt lat="49.42113" lon="1.17898">
        <ele>44</ele>
        <time>2017-02-14T17:07:25Z</time>
      </trkpt>
      <trkpt lat="49.42115" lon="1.17892">
        <ele>44</ele>
        <time>2017-02-14T17:07:25Z</time>
      </trkpt>
      <trkpt lat="49.42118" lon="1.17885">
        <ele>44</ele>
        <time>2017-02-14T17:07:25Z</time>
      </trkpt>
      <trkpt lat="49.4212" lon="1.17878">
        <ele>44</ele>
        <time>2017-02-14T17:07:41Z</time>
      </trkpt>
      <trkpt lat="49.42122" lon="1.1787">
        <ele>43</ele>
        <time>2017-02-14T17:07:41Z</time>
      </trkpt>
      <trkpt lat="49.42127" lon="1.1787">
        <ele>43</ele>
        <time>2017-02-14T17:07:41Z</time>
      </trkpt>
      <trkpt lat="49.4213" lon="1.17866">
        <ele>43</ele>
        <time>2017-02-14T17:07:41Z</time>
      </trkpt>
      <trkpt lat="49.42135" lon="1.1786">
        <ele>43</ele>
        <time>2017-02-14T17:07:58Z</time>
      </trkpt>
      <trkpt lat="49.42139" lon="1.17855">
        <ele>43</ele>
        <time>2017-02-14T17:07:58Z</time>
      </trkpt>
      <trkpt lat="49.42141" lon="1.17851">
        <ele>43</ele>
        <time>2017-02-14T17:07:58Z</time>
      </trkpt>
      <trkpt lat="49.42145" lon="1.17845">
        <ele>43</ele>
        <time>2017-02-14T17:07:58Z</time>
      </trkpt>
      <trkpt lat="49.42147" lon="1.17842">
        <ele>43</ele>
        <time>2017-02-14T17:08:13Z</time>
      </trkpt>
      <trkpt lat="49.4215" lon="1.17836">
        <ele>43</ele>
        <time>2017-02-14T17:08:13Z</time>
      </trkpt>
      <trkpt lat="49.42152" lon="1.17831">
        <ele>43</ele>
        <time>2017-02-14T17:08:13Z</time>
      </trkpt>
      <trkpt lat="49.42156" lon="1.17822">
        <ele>43</ele>
        <time>2017-02-14T17:08:13Z</time>
      </trkpt>
      <trkpt lat="49.42159" lon="1.17817">
        <ele>43</ele>
        <time>2017-02-14T17:08:30Z</time>
      </trkpt>
      <trkpt lat="49.42161" lon="1.17812">
        <ele>43</ele>
        <time>2017-02-14T17:08:30Z</time>
      </trkpt>
      <trkpt lat="49.42165" lon="1.17809">
        <ele>43</ele>
        <time>2017-02-14T17:08:30Z</time>
      </trkpt>
      <trkpt lat="49.42172" lon="1.17803">
        <ele>43</ele>
        <time>2017-02-14T17:08:30Z</time>
      </trkpt>
      <trkpt lat="49.42176" lon="1.17799">
        <ele>43</ele>
        <time>2017-02-14T17:08:49Z</time>
      </trkpt>
      <trkpt lat="49.42181" lon="1.17798">
        <ele>43</ele>
        <time>2017-02-14T17:08:49Z</time>
      </trkpt>
      <trkpt lat="49.42182" lon="1.17798">
        <ele>43</ele>
        <time>2017-02-14T17:08:49Z</time>
      </trkpt>
      <trkpt lat="49.42184" lon="1.17797">
        <ele>43</ele>
        <time>2017-02-14T17:08:49Z</time>
      </trkpt>
      <trkpt lat="49.42187" lon="1.17795">
        <ele>43</ele>
        <time>2017-02-14T17:08:49Z</time>
      </trkpt>
      <trkpt lat="49.42189" lon="1.1779">
        <ele>44</ele>
        <time>2017-02-14T17:09:04Z</time>
      </trkpt>
      <trkpt lat="49.42189" lon="1.17786">
        <ele>44</ele>
        <time>2017-02-14T17:09:04Z</time>
      </trkpt>
      <trkpt lat="49.4219" lon="1.17778">
        <ele>44</ele>
        <time>2017-02-14T17:09:04Z</time>
      </trkpt>
      <trkpt lat="49.4219" lon="1.17774">
        <ele>44</ele>
        <time>2017-02-14T17:09:04Z</time>
      </trkpt>
    </trkseg>
  </trk>
</gpx>